Wetterdaten: Sonntag, 11.06.2017
Datum Zeit Temp. A. Pool Temp. Feuchte A. Luftdruck Regen Wind Richtung Richtung Sonnenschein ET UV Solar Taupunkt Windchill Windben Empfang
11.06.2017 00:00 15,7 C 24,4 C 72 % 1020,4 hPa 0,0 l/m 1,8 km/h (1 Bft) SW 227 0 min 0,000 mm 0,0 UV-I 0 W/m 10,7 C 15,7 C 4,8 km/h (1 Bft) 98,11 %
11.06.2017 00:02 15,6 C 24,4 C 73 % 1020,5 hPa 0,0 l/m 2,9 km/h (1 Bft) SW 226 0 min 0,000 mm 0,0 UV-I 0 W/m 10,8 C 15,6 C 4,8 km/h (1 Bft) 97,83 %
11.06.2017 00:04 15,6 C 24,4 C 73 % 1020,5 hPa 0,0 l/m 2,3 km/h (1 Bft) SW 225 0 min 0,000 mm 0,0 UV-I 0 W/m 10,8 C 15,6 C 4,8 km/h (1 Bft) 97,44 %
11.06.2017 00:06 15,6 C 24,4 C 73 % 1020,5 hPa 0,0 l/m 1,2 km/h (1 Bft) SW 225 0 min 0,000 mm 0,0 UV-I 0 W/m 10,8 C 15,6 C 3,2 km/h (1 Bft) 97,87 %
11.06.2017 00:08 15,6 C 24,4 C 73 % 1020,6 hPa 0,0 l/m 1,7 km/h (1 Bft) SW 225 0 min 0,000 mm 0,0 UV-I 0 W/m 10,8 C 15,6 C 3,2 km/h (1 Bft) 98,00 %
11.06.2017 00:10 15,5 C 24,4 C 74 % 1020,6 hPa 0,0 l/m 1,6 km/h (1 Bft) SW 225 0 min 0,000 mm 0,0 UV-I 0 W/m 10,9 C 15,5 C 4,8 km/h (1 Bft) 100,00 %
11.06.2017 00:12 15,5 C 24,4 C 75 % 1020,6 hPa 0,0 l/m 1,3 km/h (1 Bft) SW 225 0 min 0,000 mm 0,0 UV-I 0 W/m 11,1 C 15,5 C 3,2 km/h (1 Bft) 91,49 %
11.06.2017 00:14 15,4 C 24,4 C 75 % 1020,5 hPa 0,0 l/m 1,4 km/h (1 Bft) SW 225 0 min 0,000 mm 0,0 UV-I 0 W/m 11,0 C 15,4 C 3,2 km/h (1 Bft) 97,37 %
11.06.2017 00:16 15,3 C 24,4 C 76 % 1020,5 hPa 0,0 l/m 1,2 km/h (1 Bft) SW 225 0 min 0,000 mm 0,0 UV-I 0 W/m 11,1 C 15,3 C 3,2 km/h (1 Bft) 100,00 %
11.06.2017 00:18 15,3 C 24,4 C 76 % 1020,5 hPa 0,0 l/m 1,5 km/h (1 Bft) SW 225 0 min 0,000 mm 0,0 UV-I 0 W/m 11,1 C 15,3 C 4,8 km/h (1 Bft) 98,11 %
11.06.2017 00:20 15,3 C 24,4 C 76 % 1020,5 hPa 0,0 l/m 1,7 km/h (1 Bft) S-SW 196 0 min 0,000 mm 0,0 UV-I 0 W/m 11,1 C 15,3 C 4,8 km/h (1 Bft) 100,00 %
11.06.2017 00:22 15,3 C 24,4 C 76 % 1020,4 hPa 0,0 l/m 1,8 km/h (1 Bft) S-SW 196 0 min 0,000 mm 0,0 UV-I 0 W/m 11,1 C 15,3 C 3,2 km/h (1 Bft) 97,56 %
11.06.2017 00:24 15,3 C 24,4 C 76 % 1020,5 hPa 0,0 l/m 1,2 km/h (1 Bft) S-SW 196 0 min 0,000 mm 0,0 UV-I 0 W/m 11,1 C 15,3 C 3,2 km/h (1 Bft) 96,00 %
11.06.2017 00:26 15,2 C 24,4 C 76 % 1020,5 hPa 0,0 l/m 2,7 km/h (1 Bft) S-SW 196 0 min 0,000 mm 0,0 UV-I 0 W/m 11,0 C 15,2 C 4,8 km/h (1 Bft) 100,00 %
11.06.2017 00:28 15,3 C 24,4 C 76 % 1020,5 hPa 0,0 l/m 2,1 km/h (1 Bft) S-SW 196 0 min 0,000 mm 0,0 UV-I 0 W/m 11,1 C 15,3 C 4,8 km/h (1 Bft) 97,56 %
11.06.2017 00:30 15,3 C 24,4 C 76 % 1020,5 hPa 0,0 l/m 0,6 km/h (0 Bft) S-SW 196 0 min 0,000 mm 0,0 UV-I 0 W/m 11,1 C 15,3 C 1,6 km/h (1 Bft) 100,00 %
11.06.2017 00:32 15,2 C 24,4 C 76 % 1020,5 hPa 0,0 l/m 0,6 km/h (0 Bft) S-SW 196 0 min 0,000 mm 0,0 UV-I 0 W/m 11,0 C 15,2 C 1,6 km/h (1 Bft) 97,87 %
11.06.2017 00:34 15,2 C 24,4 C 77 % 1020,5 hPa 0,0 l/m 2,5 km/h (1 Bft) S-SW 196 0 min 0,000 mm 0,0 UV-I 0 W/m 11,2 C 15,2 C 4,8 km/h (1 Bft) 100,00 %
11.06.2017 00:36 15,1 C 24,4 C 77 % 1020,5 hPa 0,0 l/m 3,1 km/h (1 Bft) S-SW 196 0 min 0,000 mm 0,0 UV-I 0 W/m 11,1 C 15,1 C 4,8 km/h (1 Bft) 100,00 %
11.06.2017 00:38 15,1 C 24,4 C 77 % 1020,5 hPa 0,0 l/m 2,1 km/h (1 Bft) S-SW 196 0 min 0,000 mm 0,0 UV-I 0 W/m 11,1 C 15,1 C 4,8 km/h (1 Bft) 98,00 %
11.06.2017 00:40 15,1 C 24,4 C 77 % 1020,5 hPa 0,0 l/m 0,8 km/h (0 Bft) S-SW 196 0 min 0,000 mm 0,0 UV-I 0 W/m 11,1 C 15,1 C 3,2 km/h (1 Bft) 100,00 %
11.06.2017 00:42 15,0 C 24,4 C 78 % 1020,5 hPa 0,0 l/m 1,9 km/h (1 Bft) S-SW 196 0 min 0,000 mm 0,0 UV-I 0 W/m 11,2 C 15,0 C 4,8 km/h (1 Bft) 100,00 %
11.06.2017 00:44 15,0 C 24,4 C 78 % 1020,5 hPa 0,0 l/m 1,7 km/h (1 Bft) S-SW 195 0 min 0,000 mm 0,0 UV-I 0 W/m 11,2 C 15,0 C 3,2 km/h (1 Bft) 98,08 %
11.06.2017 00:46 14,9 C 24,4 C 78 % 1020,6 hPa 0,0 l/m 2,1 km/h (1 Bft) S 187 0 min 0,000 mm 0,0 UV-I 0 W/m 11,1 C 14,9 C 6,4 km/h (2 Bft) 100,00 %
11.06.2017 00:48 14,9 C 24,4 C 78 % 1020,6 hPa 0,0 l/m 1,9 km/h (1 Bft) S 182 0 min 0,000 mm 0,0 UV-I 0 W/m 11,1 C 14,9 C 4,8 km/h (1 Bft) 97,87 %
11.06.2017 00:50 14,9 C 24,4 C 78 % 1020,5 hPa 0,0 l/m 2,1 km/h (1 Bft) S 182 0 min 0,000 mm 0,0 UV-I 0 W/m 11,1 C 14,9 C 4,8 km/h (1 Bft) 97,37 %
11.06.2017 00:52 14,9 C 24,4 C 78 % 1020,5 hPa 0,0 l/m 4,1 km/h (1 Bft) S 182 0 min 0,000 mm 0,0 UV-I 0 W/m 11,1 C 14,9 C 6,4 km/h (2 Bft) 97,87 %
11.06.2017 00:54 14,9 C 24,4 C 78 % 1020,5 hPa 0,0 l/m 3,3 km/h (1 Bft) S 182 0 min 0,000 mm 0,0 UV-I 0 W/m 11,1 C 14,9 C 6,4 km/h (2 Bft) 93,62 %
11.06.2017 00:56 14,8 C 24,4 C 78 % 1020,5 hPa 0,0 l/m 1,2 km/h (1 Bft) S 182 0 min 0,000 mm 0,0 UV-I 0 W/m 11,0 C 14,8 C 3,2 km/h (1 Bft) 98,00 %
11.06.2017 00:58 14,8 C 24,4 C 78 % 1020,4 hPa 0,0 l/m 4,0 km/h (1 Bft) S 182 0 min 0,000 mm 0,0 UV-I 0 W/m 11,0 C 14,8 C 6,4 km/h (2 Bft) 92,00 %
11.06.2017 01:00 14,8 C 24,4 C 78 % 1020,4 hPa 0,0 l/m 4,6 km/h (1 Bft) S 183 0 min 0,000 mm 0,0 UV-I 0 W/m 11,0 C 14,8 C 6,4 km/h (2 Bft) 96,00 %
11.06.2017 01:02 14,8 C 24,4 C 78 % 1020,4 hPa 0,0 l/m 3,2 km/h (1 Bft) S 183 0 min 0,000 mm 0,0 UV-I 0 W/m 11,0 C 14,8 C 4,8 km/h (1 Bft) 96,15 %
11.06.2017 01:04 14,8 C 24,4 C 78 % 1020,4 hPa 0,0 l/m 3,7 km/h (1 Bft) S 184 0 min 0,000 mm 0,0 UV-I 0 W/m 11,0 C 14,8 C 6,4 km/h (2 Bft) 96,77 %
11.06.2017 01:06 14,8 C 24,4 C 78 % 1020,4 hPa 0,0 l/m 2,6 km/h (1 Bft) S 184 0 min 0,000 mm 0,0 UV-I 0 W/m 11,0 C 14,8 C 4,8 km/h (1 Bft) 98,00 %
11.06.2017 01:08 14,8 C 24,4 C 78 % 1020,4 hPa 0,0 l/m 2,2 km/h (1 Bft) S 184 0 min 0,000 mm 0,0 UV-I 0 W/m 11,0 C 14,8 C 3,2 km/h (1 Bft) 95,45 %
11.06.2017 01:10 14,7 C 24,4 C 78 % 1020,3 hPa 0,0 l/m 2,5 km/h (1 Bft) S 184 0 min 0,000 mm 0,0 UV-I 0 W/m 10,9 C 14,7 C 4,8 km/h (1 Bft) 94,00 %
11.06.2017 01:12 14,7 C 24,4 C 78 % 1020,3 hPa 0,0 l/m 3,0 km/h (1 Bft) S 184 0 min 0,000 mm 0,0 UV-I 0 W/m 10,9 C 14,7 C 4,8 km/h (1 Bft) 93,18 %
11.06.2017 01:14 14,7 C 24,4 C 79 % 1020,3 hPa 0,0 l/m 2,3 km/h (1 Bft) S 184 0 min 0,000 mm 0,0 UV-I 0 W/m 11,1 C 14,7 C 3,2 km/h (1 Bft) 92,68 %
11.06.2017 01:16 14,7 C 24,4 C 79 % 1020,3 hPa 0,0 l/m 4,9 km/h (1 Bft) S 185 0 min 0,000 mm 0,0 UV-I 0 W/m 11,1 C 14,7 C 6,4 km/h (2 Bft) 96,00 %
11.06.2017 01:18 14,7 C 24,4 C 79 % 1020,3 hPa 0,0 l/m 4,9 km/h (1 Bft) S 188 0 min 0,000 mm 0,0 UV-I 0 W/m 11,1 C 14,7 C 8,0 km/h (2 Bft) 96,00 %
11.06.2017 01:20 14,6 C 24,4 C 79 % 1020,4 hPa 0,0 l/m 3,5 km/h (1 Bft) S 188 0 min 0,000 mm 0,0 UV-I 0 W/m 11,0 C 14,6 C 4,8 km/h (1 Bft) 97,87 %
11.06.2017 01:22 14,6 C 24,4 C 79 % 1020,4 hPa 0,0 l/m 2,9 km/h (1 Bft) S 188 0 min 0,000 mm 0,0 UV-I 0 W/m 11,0 C 14,6 C 6,4 km/h (2 Bft) 97,87 %
11.06.2017 01:24 14,6 C 24,4 C 79 % 1020,4 hPa 0,0 l/m 3,4 km/h (1 Bft) S 188 0 min 0,000 mm 0,0 UV-I 0 W/m 11,0 C 14,6 C 6,4 km/h (2 Bft) 98,00 %
11.06.2017 01:26 14,6 C 24,4 C 79 % 1020,4 hPa 0,0 l/m 3,8 km/h (1 Bft) S 188 0 min 0,000 mm 0,0 UV-I 0 W/m 11,0 C 14,6 C 6,4 km/h (2 Bft) 97,44 %
11.06.2017 01:28 14,5 C 24,4 C 79 % 1020,4 hPa 0,0 l/m 3,0 km/h (1 Bft) S 188 0 min 0,000 mm 0,0 UV-I 0 W/m 10,9 C 14,5 C 4,8 km/h (1 Bft) 95,74 %
11.06.2017 01:30 14,4 C 24,4 C 80 % 1020,4 hPa 0,0 l/m 3,8 km/h (1 Bft) S 188 0 min 0,000 mm 0,0 UV-I 0 W/m 11,0 C 14,4 C 6,4 km/h (2 Bft) 97,37 %
11.06.2017 01:32 14,4 C 24,4 C 80 % 1020,4 hPa 0,0 l/m 3,1 km/h (1 Bft) S 188 0 min 0,000 mm 0,0 UV-I 0 W/m 11,0 C 14,4 C 6,4 km/h (2 Bft) 100,00 %
11.06.2017 01:34 14,3 C 24,4 C 80 % 1020,4 hPa 0,0 l/m 3,7 km/h (1 Bft) S 188 0 min 0,000 mm 0,0 UV-I 0 W/m 10,9 C 14,3 C 6,4 km/h (2 Bft) 97,14 %
11.06.2017 01:36 14,3 C 24,4 C 80 % 1020,4 hPa 0,0 l/m 2,1 km/h (1 Bft) S 188 0 min 0,000 mm 0,0 UV-I 0 W/m 10,9 C 14,3 C 3,2 km/h (1 Bft) 100,00 %
11.06.2017 01:38 14,2 C 24,4 C 80 % 1020,4 hPa 0,0 l/m 2,7 km/h (1 Bft) S 188 0 min 0,000 mm 0,0 UV-I 0 W/m 10,8 C 14,2 C 4,8 km/h (1 Bft) 98,00 %
11.06.2017 01:40 14,2 C 24,4 C 81 % 1020,4 hPa 0,0 l/m 3,0 km/h (1 Bft) S 188 0 min 0,000 mm 0,0 UV-I 0 W/m 11,0 C 14,2 C 6,4 km/h (2 Bft) 100,00 %
11.06.2017 01:42 14,2 C 24,4 C 81 % 1020,4 hPa 0,0 l/m 2,0 km/h (1 Bft) S 188 0 min 0,000 mm 0,0 UV-I 0 W/m 11,0 C 14,2 C 4,8 km/h (1 Bft) 96,92 %
11.06.2017 01:44 14,2 C 24,4 C 81 % 1020,4 hPa 0,0 l/m 2,4 km/h (1 Bft) S 188 0 min 0,000 mm 0,0 UV-I 0 W/m 11,0 C 14,2 C 4,8 km/h (1 Bft) 98,11 %
11.06.2017 01:46 14,1 C 24,4 C 81 % 1020,5 hPa 0,0 l/m 3,0 km/h (1 Bft) S 188 0 min 0,000 mm 0,0 UV-I 0 W/m 10,9 C 14,1 C 6,4 km/h (2 Bft) 95,74 %
11.06.2017 01:48 14,1 C 24,4 C 80 % 1020,5 hPa 0,0 l/m 2,5 km/h (1 Bft) S 188 0 min 0,000 mm 0,0 UV-I 0 W/m 10,7 C 14,1 C 4,8 km/h (1 Bft) 100,00 %
11.06.2017 01:50 14,1 C 24,4 C 80 % 1020,4 hPa 0,0 l/m 2,5 km/h (1 Bft) S 188 0 min 0,000 mm 0,0 UV-I 0 W/m 10,7 C 14,1 C 4,8 km/h (1 Bft) 100,00 %
11.06.2017 01:52 14,2 C 24,4 C 80 % 1020,5 hPa 0,0 l/m 3,3 km/h (1 Bft) S 188 0 min 0,000 mm 0,0 UV-I 0 W/m 10,8 C 14,2 C 6,4 km/h (2 Bft) 95,74 %
11.06.2017 01:54 14,2 C 24,4 C 80 % 1020,5 hPa 0,0 l/m 4,1 km/h (1 Bft) S 188 0 min 0,000 mm 0,0 UV-I 0 W/m 10,8 C 14,2 C 6,4 km/h (2 Bft) 97,87 %
11.06.2017 01:56 14,2 C 24,4 C 80 % 1020,5 hPa 0,0 l/m 4,1 km/h (1 Bft) S 188 0 min 0,000 mm 0,0 UV-I 0 W/m 10,8 C 14,2 C 4,8 km/h (1 Bft) 95,12 %
11.06.2017 01:58 14,2 C 24,4 C 80 % 1020,5 hPa 0,0 l/m 3,3 km/h (1 Bft) S-SW 205 0 min 0,000 mm 0,0 UV-I 0 W/m 10,8 C 14,2 C 6,4 km/h (2 Bft) 97,78 %
11.06.2017 02:00 14,1 C 24,4 C 80 % 1020,4 hPa 0,0 l/m 4,8 km/h (1 Bft) S-SW 193 0 min 0,025 mm 0,0 UV-I 0 W/m 10,7 C 14,1 C 6,4 km/h (2 Bft) 96,55 %
11.06.2017 02:02 14,1 C 24,4 C 80 % 1020,4 hPa 0,0 l/m 6,1 km/h (2 Bft) S-SW 196 0 min 0,000 mm 0,0 UV-I 0 W/m 10,7 C 14,1 C 8,0 km/h (2 Bft) 95,77 %
11.06.2017 02:04 14,1 C 24,4 C 80 % 1020,4 hPa 0,0 l/m 4,8 km/h (1 Bft) S-SW 194 0 min 0,000 mm 0,0 UV-I 0 W/m 10,7 C 14,1 C 6,4 km/h (2 Bft) 97,87 %
11.06.2017 02:06 14,1 C 24,4 C 80 % 1020,4 hPa 0,0 l/m 5,3 km/h (1 Bft) S-SW 205 0 min 0,000 mm 0,0 UV-I 0 W/m 10,7 C 14,1 C 8,0 km/h (2 Bft) 98,00 %
11.06.2017 02:08 14,0 C 24,4 C 80 % 1020,4 hPa 0,0 l/m 5,5 km/h (1 Bft) S-SW 205 0 min 0,000 mm 0,0 UV-I 0 W/m 10,6 C 14,0 C 8,0 km/h (2 Bft) 94,74 %
11.06.2017 02:10 14,0 C 24,4 C 80 % 1020,4 hPa 0,0 l/m 4,4 km/h (1 Bft) S-SW 205 0 min 0,000 mm 0,0 UV-I 0 W/m 10,6 C 14,0 C 8,0 km/h (2 Bft) 96,00 %
11.06.2017 02:12 13,9 C 24,4 C 80 % 1020,4 hPa 0,0 l/m 5,2 km/h (1 Bft) S-SW 202 0 min 0,000 mm 0,0 UV-I 0 W/m 10,5 C 13,9 C 8,0 km/h (2 Bft) 92,45 %
11.06.2017 02:14 13,9 C 24,4 C 80 % 1020,4 hPa 0,0 l/m 4,4 km/h (1 Bft) S-SW 199 0 min 0,000 mm 0,0 UV-I 0 W/m 10,5 C 13,9 C 6,4 km/h (2 Bft) 100,00 %
11.06.2017 02:16 13,9 C 24,4 C 81 % 1020,4 hPa 0,0 l/m 4,7 km/h (1 Bft) S-SW 200 0 min 0,000 mm 0,0 UV-I 0 W/m 10,7 C 13,9 C 8,0 km/h (2 Bft) 93,62 %
11.06.2017 02:18 13,8 C 24,4 C 81 % 1020,5 hPa 0,0 l/m 5,9 km/h (2 Bft) S-SW 200 0 min 0,000 mm 0,0 UV-I 0 W/m 10,6 C 13,8 C 8,0 km/h (2 Bft) 98,21 %
11.06.2017 02:20 13,8 C 24,4 C 81 % 1020,4 hPa 0,0 l/m 5,4 km/h (1 Bft) S 174 0 min 0,000 mm 0,0 UV-I 0 W/m 10,6 C 13,8 C 9,7 km/h (2 Bft) 95,12 %
11.06.2017 02:22 13,8 C 24,4 C 81 % 1020,5 hPa 0,0 l/m 4,9 km/h (1 Bft) S 182 0 min 0,000 mm 0,0 UV-I 0 W/m 10,6 C 13,8 C 6,4 km/h (2 Bft) 98,11 %
11.06.2017 02:24 13,8 C 24,4 C 81 % 1020,5 hPa 0,0 l/m 5,6 km/h (1 Bft) S-SW 201 0 min 0,000 mm 0,0 UV-I 0 W/m 10,6 C 13,8 C 8,0 km/h (2 Bft) 91,43 %
11.06.2017 02:26 13,7 C 24,4 C 81 % 1020,5 hPa 0,0 l/m 4,1 km/h (1 Bft) S-SW 202 0 min 0,000 mm 0,0 UV-I 0 W/m 10,5 C 13,7 C 6,4 km/h (2 Bft) 98,00 %
11.06.2017 02:28 13,7 C 24,4 C 82 % 1020,5 hPa 0,0 l/m 5,4 km/h (1 Bft) S 190 0 min 0,000 mm 0,0 UV-I 0 W/m 10,7 C 13,7 C 8,0 km/h (2 Bft) 96,00 %
11.06.2017 02:30 13,6 C 24,4 C 82 % 1020,5 hPa 0,0 l/m 4,7 km/h (1 Bft) S 190 0 min 0,000 mm 0,0 UV-I 0 W/m 10,6 C 13,6 C 6,4 km/h (2 Bft) 97,56 %
11.06.2017 02:32 13,6 C 24,4 C 82 % 1020,5 hPa 0,0 l/m 5,1 km/h (1 Bft) S-SW 196 0 min 0,000 mm 0,0 UV-I 0 W/m 10,6 C 13,6 C 8,0 km/h (2 Bft) 96,00 %
11.06.2017 02:34 13,5 C 24,4 C 82 % 1020,5 hPa 0,0 l/m 5,1 km/h (1 Bft) S-SW 196 0 min 0,000 mm 0,0 UV-I 0 W/m 10,5 C 13,5 C 8,0 km/h (2 Bft) 93,62 %
11.06.2017 02:36 13,4 C 24,4 C 83 % 1020,4 hPa 0,0 l/m 4,8 km/h (1 Bft) S-SW 197 0 min 0,000 mm 0,0 UV-I 0 W/m 10,6 C 13,4 C 8,0 km/h (2 Bft) 98,11 %
11.06.2017 02:38 13,4 C 24,4 C 83 % 1020,5 hPa 0,0 l/m 5,0 km/h (1 Bft) S-SW 200 0 min 0,000 mm 0,0 UV-I 0 W/m 10,6 C 13,4 C 8,0 km/h (2 Bft) 95,00 %
11.06.2017 02:40 13,4 C 24,4 C 83 % 1020,5 hPa 0,0 l/m 5,5 km/h (1 Bft) S-SW 202 0 min 0,000 mm 0,0 UV-I 0 W/m 10,6 C 13,4 C 11,3 km/h (2 Bft) 97,87 %
11.06.2017 02:42 13,4 C 24,4 C 83 % 1020,5 hPa 0,0 l/m 6,1 km/h (2 Bft) S-SW 202 0 min 0,000 mm 0,0 UV-I 0 W/m 10,6 C 13,4 C 11,3 km/h (2 Bft) 96,00 %
11.06.2017 02:44 13,4 C 24,4 C 83 % 1020,5 hPa 0,0 l/m 7,4 km/h (2 Bft) S-SW 204 0 min 0,000 mm 0,0 UV-I 0 W/m 10,6 C 12,8 C 9,7 km/h (2 Bft) 96,00 %
11.06.2017 02:46 13,4 C 24,4 C 83 % 1020,5 hPa 0,0 l/m 6,5 km/h (2 Bft) S-SW 205 0 min 0,000 mm 0,0 UV-I 0 W/m 10,6 C 13,4 C 9,7 km/h (2 Bft) 97,87 %
11.06.2017 02:48 13,4 C 24,4 C 83 % 1020,5 hPa 0,0 l/m 6,0 km/h (2 Bft) S-SW 192 0 min 0,000 mm 0,0 UV-I 0 W/m 10,6 C 13,4 C 8,0 km/h (2 Bft) 92,11 %
11.06.2017 02:50 13,4 C 24,4 C 83 % 1020,6 hPa 0,0 l/m 6,6 km/h (2 Bft) S-SW 206 0 min 0,000 mm 0,0 UV-I 0 W/m 10,6 C 13,3 C 8,0 km/h (2 Bft) 98,11 %
11.06.2017 02:52 13,3 C 24,4 C 83 % 1020,6 hPa 0,0 l/m 6,8 km/h (2 Bft) S-SW 207 0 min 0,000 mm 0,0 UV-I 0 W/m 10,5 C 13,1 C 9,7 km/h (2 Bft) 94,00 %
11.06.2017 02:54 13,3 C 24,4 C 83 % 1020,6 hPa 0,0 l/m 4,8 km/h (1 Bft) S-SW 209 0 min 0,000 mm 0,0 UV-I 0 W/m 10,5 C 13,3 C 9,7 km/h (2 Bft) 97,56 %
11.06.2017 02:56 13,2 C 24,4 C 83 % 1020,5 hPa 0,0 l/m 5,0 km/h (1 Bft) S 189 0 min 0,000 mm 0,0 UV-I 0 W/m 10,4 C 13,2 C 9,7 km/h (2 Bft) 96,00 %
11.06.2017 02:58 13,2 C 24,4 C 83 % 1020,4 hPa 0,0 l/m 5,0 km/h (1 Bft) S-SW 196 0 min 0,000 mm 0,0 UV-I 0 W/m 10,4 C 13,2 C 6,4 km/h (2 Bft) 95,12 %
11.06.2017 03:00 13,2 C 24,4 C 84 % 1020,5 hPa 0,0 l/m 6,0 km/h (2 Bft) S-SW 200 0 min 0,026 mm 0,0 UV-I 0 W/m 10,6 C 13,2 C 9,7 km/h (2 Bft) 98,00 %
11.06.2017 03:02 13,2 C 24,4 C 84 % 1020,5 hPa 0,0 l/m 5,6 km/h (1 Bft) S-SW 195 0 min 0,000 mm 0,0 UV-I 0 W/m 10,6 C 13,2 C 8,0 km/h (2 Bft) 96,00 %
11.06.2017 03:04 13,2 C 24,4 C 84 % 1020,5 hPa 0,0 l/m 5,4 km/h (1 Bft) S-SW 196 0 min 0,000 mm 0,0 UV-I 0 W/m 10,6 C 13,2 C 6,4 km/h (2 Bft) 97,87 %
11.06.2017 03:06 13,1 C 24,4 C 84 % 1020,4 hPa 0,0 l/m 4,7 km/h (1 Bft) S-SW 197 0 min 0,000 mm 0,0 UV-I 0 W/m 10,5 C 13,1 C 8,0 km/h (2 Bft) 97,37 %
11.06.2017 03:08 13,1 C 24,4 C 84 % 1020,4 hPa 0,0 l/m 5,0 km/h (1 Bft) S-SW 197 0 min 0,000 mm 0,0 UV-I 0 W/m 10,5 C 13,1 C 8,0 km/h (2 Bft) 98,11 %
11.06.2017 03:10 13,1 C 24,4 C 84 % 1020,4 hPa 0,0 l/m 5,1 km/h (1 Bft) S-SW 193 0 min 0,000 mm 0,0 UV-I 0 W/m 10,5 C 13,1 C 8,0 km/h (2 Bft) 94,00 %
11.06.2017 03:12 13,0 C 24,4 C 84 % 1020,5 hPa 0,0 l/m 5,3 km/h (1 Bft) S 178 0 min 0,000 mm 0,0 UV-I 0 W/m 10,4 C 13,0 C 8,0 km/h (2 Bft) 97,56 %
11.06.2017 03:14 13,0 C 24,4 C 84 % 1020,4 hPa 0,0 l/m 5,3 km/h (1 Bft) S-SW 204 0 min 0,000 mm 0,0 UV-I 0 W/m 10,4 C 13,0 C 8,0 km/h (2 Bft) 95,74 %
11.06.2017 03:16 12,9 C 24,4 C 84 % 1020,4 hPa 0,0 l/m 5,4 km/h (1 Bft) S-SW 196 0 min 0,000 mm 0,0 UV-I 0 W/m 10,3 C 12,9 C 8,0 km/h (2 Bft) 97,87 %
11.06.2017 03:18 12,9 C 24,4 C 84 % 1020,4 hPa 0,0 l/m 5,3 km/h (1 Bft) S-SW 198 0 min 0,000 mm 0,0 UV-I 0 W/m 10,3 C 12,9 C 8,0 km/h (2 Bft) 96,23 %
11.06.2017 03:20 12,9 C 24,4 C 84 % 1020,4 hPa 0,0 l/m 5,5 km/h (1 Bft) S-SW 205 0 min 0,000 mm 0,0 UV-I 0 W/m 10,3 C 12,9 C 9,7 km/h (2 Bft) 95,24 %
11.06.2017 03:22 12,9 C 24,4 C 84 % 1020,4 hPa 0,0 l/m 4,8 km/h (1 Bft) S-SW 196 0 min 0,000 mm 0,0 UV-I 0 W/m 10,3 C 12,9 C 6,4 km/h (2 Bft) 90,91 %
11.06.2017 03:24 12,9 C 24,4 C 84 % 1020,4 hPa 0,0 l/m 3,8 km/h (1 Bft) S-SW 195 0 min 0,000 mm 0,0 UV-I 0 W/m 10,3 C 12,9 C 6,4 km/h (2 Bft) 96,43 %
11.06.2017 03:26 13,0 C 24,4 C 84 % 1020,4 hPa 0,0 l/m 5,6 km/h (1 Bft) S 173 0 min 0,000 mm 0,0 UV-I 0 W/m 10,4 C 13,0 C 9,7 km/h (2 Bft) 97,56 %
11.06.2017 03:28 12,9 C 24,4 C 84 % 1020,4 hPa 0,0 l/m 3,8 km/h (1 Bft) S 191 0 min 0,000 mm 0,0 UV-I 0 W/m 10,3 C 12,9 C 8,0 km/h (2 Bft) 91,49 %
11.06.2017 03:30 12,9 C 24,4 C 84 % 1020,4 hPa 0,0 l/m 4,2 km/h (1 Bft) S 188 0 min 0,000 mm 0,0 UV-I 0 W/m 10,3 C 12,9 C 6,4 km/h (2 Bft) 97,87 %
11.06.2017 03:32 12,9 C 24,4 C 84 % 1020,4 hPa 0,0 l/m 3,3 km/h (1 Bft) S 184 0 min 0,000 mm 0,0 UV-I 0 W/m 10,3 C 12,9 C 6,4 km/h (2 Bft) 95,12 %
11.06.2017 03:34 12,9 C 24,4 C 84 % 1020,4 hPa 0,0 l/m 3,4 km/h (1 Bft) S 186 0 min 0,000 mm 0,0 UV-I 0 W/m 10,3 C 12,9 C 6,4 km/h (2 Bft) 100,00 %
11.06.2017 03:36 12,9 C 24,4 C 84 % 1020,4 hPa 0,0 l/m 4,4 km/h (1 Bft) S 186 0 min 0,000 mm 0,0 UV-I 0 W/m 10,3 C 12,9 C 6,4 km/h (2 Bft) 98,11 %
11.06.2017 03:38 12,8 C 24,4 C 84 % 1020,4 hPa 0,0 l/m 3,8 km/h (1 Bft) S 180 0 min 0,000 mm 0,0 UV-I 0 W/m 10,2 C 12,8 C 8,0 km/h (2 Bft) 98,00 %
11.06.2017 03:40 12,8 C 24,4 C 84 % 1020,4 hPa 0,0 l/m 4,6 km/h (1 Bft) S 190 0 min 0,000 mm 0,0 UV-I 0 W/m 10,2 C 12,8 C 6,4 km/h (2 Bft) 94,74 %
11.06.2017 03:42 12,8 C 24,4 C 85 % 1020,4 hPa 0,0 l/m 3,7 km/h (1 Bft) S 190 0 min 0,000 mm 0,0 UV-I 0 W/m 10,3 C 12,8 C 6,4 km/h (2 Bft) 96,23 %
11.06.2017 03:44 12,8 C 24,4 C 84 % 1020,4 hPa 0,0 l/m 5,2 km/h (1 Bft) S 191 0 min 0,000 mm 0,0 UV-I 0 W/m 10,2 C 12,8 C 9,7 km/h (2 Bft) 97,37 %
11.06.2017 03:46 12,8 C 24,4 C 84 % 1020,4 hPa 0,0 l/m 4,3 km/h (1 Bft) S 191 0 min 0,000 mm 0,0 UV-I 0 W/m 10,2 C 12,8 C 8,0 km/h (2 Bft) 100,00 %
11.06.2017 03:48 12,8 C 24,4 C 84 % 1020,4 hPa 0,0 l/m 2,4 km/h (1 Bft) S 191 0 min 0,000 mm 0,0 UV-I 0 W/m 10,2 C 12,8 C 4,8 km/h (1 Bft) 98,00 %
11.06.2017 03:50 12,8 C 24,4 C 84 % 1020,4 hPa 0,0 l/m 3,9 km/h (1 Bft) S 189 0 min 0,000 mm 0,0 UV-I 0 W/m 10,2 C 12,8 C 6,4 km/h (2 Bft) 98,00 %
11.06.2017 03:52 12,8 C 24,4 C 84 % 1020,4 hPa 0,0 l/m 3,9 km/h (1 Bft) S 189 0 min 0,000 mm 0,0 UV-I 0 W/m 10,2 C 12,8 C 6,4 km/h (2 Bft) 100,00 %
11.06.2017 03:54 12,8 C 24,4 C 84 % 1020,4 hPa 0,0 l/m 4,7 km/h (1 Bft) S-SW 205 0 min 0,000 mm 0,0 UV-I 0 W/m 10,2 C 12,8 C 8,0 km/h (2 Bft) 98,11 %
11.06.2017 03:56 12,8 C 24,4 C 84 % 1020,4 hPa 0,0 l/m 4,1 km/h (1 Bft) S-SW 192 0 min 0,000 mm 0,0 UV-I 0 W/m 10,2 C 12,8 C 6,4 km/h (2 Bft) 100,00 %
11.06.2017 03:58 12,8 C 24,4 C 84 % 1020,5 hPa 0,0 l/m 3,9 km/h (1 Bft) S-SW 196 0 min 0,000 mm 0,0 UV-I 0 W/m 10,2 C 12,8 C 8,0 km/h (2 Bft) 98,08 %
11.06.2017 04:00 12,8 C 24,4 C 84 % 1020,5 hPa 0,0 l/m 4,4 km/h (1 Bft) S-SW 196 0 min 0,025 mm 0,0 UV-I 0 W/m 10,2 C 12,8 C 6,4 km/h (2 Bft) 96,00 %
11.06.2017 04:02 12,7 C 24,4 C 84 % 1020,5 hPa 0,0 l/m 4,1 km/h (1 Bft) S-SW 196 0 min 0,000 mm 0,0 UV-I 0 W/m 10,1 C 12,7 C 6,4 km/h (2 Bft) 100,00 %
11.06.2017 04:04 12,7 C 24,4 C 84 % 1020,4 hPa 0,0 l/m 3,0 km/h (1 Bft) S-SW 196 0 min 0,000 mm 0,0 UV-I 0 W/m 10,1 C 12,7 C 6,4 km/h (2 Bft) 97,14 %
11.06.2017 04:06 12,7 C 24,4 C 85 % 1020,4 hPa 0,0 l/m 4,1 km/h (1 Bft) S-SW 196 0 min 0,000 mm 0,0 UV-I 0 W/m 10,2 C 12,7 C 6,4 km/h (2 Bft) 93,62 %
11.06.2017 04:08 12,7 C 24,4 C 85 % 1020,4 hPa 0,0 l/m 4,9 km/h (1 Bft) S-SW 196 0 min 0,000 mm 0,0 UV-I 0 W/m 10,2 C 12,7 C 6,4 km/h (2 Bft) 97,87 %
11.06.2017 04:10 12,6 C 24,4 C 85 % 1020,4 hPa 0,0 l/m 4,9 km/h (1 Bft) S-SW 196 0 min 0,000 mm 0,0 UV-I 0 W/m 10,1 C 12,6 C 6,4 km/h (2 Bft) 100,00 %
11.06.2017 04:12 12,6 C 24,4 C 85 % 1020,4 hPa 0,0 l/m 4,5 km/h (1 Bft) S-SW 196 0 min 0,000 mm 0,0 UV-I 0 W/m 10,1 C 12,6 C 6,4 km/h (2 Bft) 98,11 %
11.06.2017 04:14 12,6 C 24,4 C 85 % 1020,4 hPa 0,0 l/m 4,4 km/h (1 Bft) S 181 0 min 0,000 mm 0,0 UV-I 0 W/m 10,1 C 12,6 C 6,4 km/h (2 Bft) 100,00 %
11.06.2017 04:16 12,5 C 24,4 C 85 % 1020,4 hPa 0,0 l/m 5,0 km/h (1 Bft) S 191 0 min 0,000 mm 0,0 UV-I 0 W/m 10,0 C 12,5 C 8,0 km/h (2 Bft) 100,00 %
11.06.2017 04:18 12,4 C 24,4 C 85 % 1020,4 hPa 0,0 l/m 4,8 km/h (1 Bft) S-SW 192 0 min 0,000 mm 0,0 UV-I 0 W/m 9,9 C 12,4 C 8,0 km/h (2 Bft) 93,62 %
11.06.2017 04:20 12,4 C 24,4 C 85 % 1020,4 hPa 0,0 l/m 5,3 km/h (1 Bft) S-SW 192 0 min 0,000 mm 0,0 UV-I 0 W/m 9,9 C 12,4 C 8,0 km/h (2 Bft) 98,00 %
11.06.2017 04:22 12,4 C 24,4 C 85 % 1020,4 hPa 0,0 l/m 4,8 km/h (1 Bft) S-SW 194 0 min 0,000 mm 0,0 UV-I 0 W/m 9,9 C 12,4 C 8,0 km/h (2 Bft) 97,37 %
11.06.2017 04:24 12,4 C 24,4 C 85 % 1020,4 hPa 0,0 l/m 6,3 km/h (2 Bft) S 180 0 min 0,000 mm 0,0 UV-I 0 W/m 9,9 C 12,4 C 8,0 km/h (2 Bft) 100,00 %
11.06.2017 04:26 12,4 C 24,4 C 85 % 1020,4 hPa 0,0 l/m 6,0 km/h (2 Bft) S-SW 211 0 min 0,000 mm 0,0 UV-I 0 W/m 9,9 C 12,4 C 8,0 km/h (2 Bft) 96,00 %
11.06.2017 04:28 12,4 C 24,4 C 85 % 1020,5 hPa 0,0 l/m 7,1 km/h (2 Bft) S-SW 197 0 min 0,000 mm 0,0 UV-I 0 W/m 9,9 C 11,9 C 9,7 km/h (2 Bft) 95,74 %
11.06.2017 04:30 12,4 C 24,4 C 85 % 1020,4 hPa 0,0 l/m 6,7 km/h (2 Bft) S-SW 209 0 min 0,000 mm 0,0 UV-I 0 W/m 9,9 C 12,2 C 11,3 km/h (2 Bft) 98,00 %
11.06.2017 04:32 12,5 C 24,4 C 85 % 1020,4 hPa 0,0 l/m 5,2 km/h (1 Bft) S-SW 204 0 min 0,000 mm 0,0 UV-I 0 W/m 10,0 C 12,5 C 9,7 km/h (2 Bft) 100,00 %
11.06.2017 04:34 12,5 C 24,4 C 85 % 1020,4 hPa 0,0 l/m 5,2 km/h (1 Bft) S-SW 192 0 min 0,000 mm 0,0 UV-I 0 W/m 10,0 C 12,5 C 8,0 km/h (2 Bft) 98,21 %
11.06.2017 04:36 12,5 C 23,9 C 85 % 1020,4 hPa 0,0 l/m 4,6 km/h (1 Bft) S-SW 205 0 min 0,000 mm 0,0 UV-I 0 W/m 10,0 C 12,5 C 8,0 km/h (2 Bft) 96,23 %
11.06.2017 04:38 12,4 C 23,9 C 85 % 1020,4 hPa 0,0 l/m 6,4 km/h (2 Bft) S-SW 203 0 min 0,000 mm 0,0 UV-I 0 W/m 9,9 C 12,4 C 8,0 km/h (2 Bft) 100,00 %
11.06.2017 04:40 12,5 C 23,9 C 85 % 1020,3 hPa 0,0 l/m 5,3 km/h (1 Bft) S-SW 199 0 min 0,000 mm 0,0 UV-I 0 W/m 10,0 C 12,5 C 9,7 km/h (2 Bft) 98,21 %
11.06.2017 04:42 12,5 C 23,9 C 85 % 1020,3 hPa 0,0 l/m 5,7 km/h (1 Bft) S-SW 192 0 min 0,000 mm 0,0 UV-I 0 W/m 10,0 C 12,5 C 8,0 km/h (2 Bft) 97,37 %
11.06.2017 04:44 12,5 C 23,9 C 85 % 1020,4 hPa 0,0 l/m 5,2 km/h (1 Bft) S-SW 198 0 min 0,000 mm 0,0 UV-I 0 W/m 10,0 C 12,5 C 9,7 km/h (2 Bft) 98,00 %
11.06.2017 04:46 12,4 C 23,9 C 85 % 1020,4 hPa 0,0 l/m 5,4 km/h (1 Bft) S-SW 211 0 min 0,000 mm 0,0 UV-I 1 W/m 9,9 C 12,4 C 8,0 km/h (2 Bft) 96,23 %
11.06.2017 04:48 12,4 C 23,9 C 85 % 1020,5 hPa 0,0 l/m 5,1 km/h (1 Bft) SW 217 0 min 0,000 mm 0,0 UV-I 5 W/m 9,9 C 12,4 C 8,0 km/h (2 Bft) 97,56 %
11.06.2017 04:50 12,4 C 23,9 C 85 % 1020,5 hPa 0,0 l/m 5,6 km/h (1 Bft) SW 216 0 min 0,000 mm 0,0 UV-I 5 W/m 9,9 C 12,4 C 8,0 km/h (2 Bft) 98,00 %
11.06.2017 04:52 12,4 C 23,9 C 85 % 1020,5 hPa 0,0 l/m 5,0 km/h (1 Bft) SW 217 0 min 0,000 mm 0,0 UV-I 5 W/m 9,9 C 12,4 C 6,4 km/h (2 Bft) 95,12 %
11.06.2017 04:54 12,4 C 23,9 C 85 % 1020,5 hPa 0,0 l/m 4,8 km/h (1 Bft) S 182 0 min 0,000 mm 0,0 UV-I 5 W/m 9,9 C 12,4 C 8,0 km/h (2 Bft) 98,00 %
11.06.2017 04:56 12,3 C 23,9 C 85 % 1020,5 hPa 0,0 l/m 4,8 km/h (1 Bft) S-SW 206 0 min 0,000 mm 0,0 UV-I 5 W/m 9,9 C 12,3 C 8,0 km/h (2 Bft) 96,00 %
11.06.2017 04:58 12,3 C 23,9 C 85 % 1020,5 hPa 0,0 l/m 5,6 km/h (1 Bft) S 185 0 min 0,000 mm 0,0 UV-I 7 W/m 9,9 C 12,3 C 8,0 km/h (2 Bft) 94,74 %
11.06.2017 05:00 12,3 C 23,9 C 86 % 1020,5 hPa 0,0 l/m 5,2 km/h (1 Bft) S-SW 196 0 min 0,026 mm 0,0 UV-I 7 W/m 10,0 C 12,3 C 8,0 km/h (2 Bft) 93,62 %
11.06.2017 05:02 12,3 C 23,9 C 86 % 1020,5 hPa 0,0 l/m 5,4 km/h (1 Bft) S-SW 196 0 min 0,000 mm 0,0 UV-I 7 W/m 10,0 C 12,3 C 8,0 km/h (2 Bft) 96,23 %
11.06.2017 05:04 12,2 C 23,9 C 86 % 1020,5 hPa 0,0 l/m 5,8 km/h (2 Bft) S-SW 194 0 min 0,000 mm 0,0 UV-I 7 W/m 9,9 C 12,2 C 8,0 km/h (2 Bft) 97,37 %
11.06.2017 05:06 12,2 C 23,9 C 86 % 1020,5 hPa 0,0 l/m 5,9 km/h (2 Bft) S-SW 204 0 min 0,000 mm 0,0 UV-I 9 W/m 9,9 C 12,2 C 9,7 km/h (2 Bft) 96,23 %
11.06.2017 05:08 12,2 C 23,9 C 86 % 1020,5 hPa 0,0 l/m 4,0 km/h (1 Bft) S-SW 203 0 min 0,000 mm 0,0 UV-I 9 W/m 9,9 C 12,2 C 4,8 km/h (1 Bft) 97,73 %
11.06.2017 05:10 12,2 C 23,9 C 86 % 1020,5 hPa 0,0 l/m 5,5 km/h (1 Bft) S 182 0 min 0,000 mm 0,0 UV-I 10 W/m 9,9 C 12,2 C 8,0 km/h (2 Bft) 96,00 %
11.06.2017 05:12 12,2 C 23,9 C 86 % 1020,5 hPa 0,0 l/m 5,5 km/h (1 Bft) S-SW 199 0 min 0,000 mm 0,0 UV-I 11 W/m 9,9 C 12,2 C 8,0 km/h (2 Bft) 94,00 %
11.06.2017 05:14 12,2 C 23,9 C 86 % 1020,5 hPa 0,0 l/m 5,6 km/h (1 Bft) S-SW 203 0 min 0,000 mm 0,0 UV-I 12 W/m 9,9 C 12,2 C 6,4 km/h (2 Bft) 96,00 %
11.06.2017 05:16 12,2 C 23,9 C 86 % 1020,5 hPa 0,0 l/m 4,9 km/h (1 Bft) SW 214 2 min 0,000 mm 0,0 UV-I 13 W/m 9,9 C 12,2 C 8,0 km/h (2 Bft) 95,74 %
11.06.2017 05:18 12,2 C 23,9 C 86 % 1020,5 hPa 0,0 l/m 4,6 km/h (1 Bft) S 188 2 min 0,000 mm 0,0 UV-I 14 W/m 9,9 C 12,2 C 6,4 km/h (2 Bft) 95,24 %
11.06.2017 05:20 12,2 C 23,9 C 86 % 1020,5 hPa 0,0 l/m 4,3 km/h (1 Bft) S 190 2 min 0,000 mm 0,0 UV-I 15 W/m 9,9 C 12,2 C 6,4 km/h (2 Bft) 97,56 %
11.06.2017 05:22 12,2 C 23,9 C 87 % 1020,6 hPa 0,0 l/m 5,9 km/h (2 Bft) S-SW 205 0 min 0,000 mm 0,0 UV-I 16 W/m 10,1 C 12,2 C 8,0 km/h (2 Bft) 98,00 %
11.06.2017 05:24 12,2 C 23,9 C 87 % 1020,6 hPa 0,0 l/m 5,4 km/h (1 Bft) S-SW 207 2 min 0,000 mm 0,0 UV-I 19 W/m 10,1 C 12,2 C 8,0 km/h (2 Bft) 92,00 %
11.06.2017 05:26 12,2 C 23,9 C 87 % 1020,6 hPa 0,0 l/m 4,4 km/h (1 Bft) S-SW 205 2 min 0,000 mm 0,0 UV-I 25 W/m 10,1 C 12,2 C 6,4 km/h (2 Bft) 96,00 %
11.06.2017 05:28 12,2 C 23,9 C 86 % 1020,6 hPa 0,0 l/m 4,7 km/h (1 Bft) S-SW 205 2 min 0,000 mm 0,0 UV-I 29 W/m 9,9 C 12,2 C 8,0 km/h (2 Bft) 89,36 %
11.06.2017 05:30 12,2 C 23,9 C 87 % 1020,6 hPa 0,0 l/m 4,8 km/h (1 Bft) S-SW 205 2 min 0,000 mm 0,0 UV-I 32 W/m 10,1 C 12,2 C 8,0 km/h (2 Bft) 94,74 %
11.06.2017 05:32 12,2 C 23,9 C 87 % 1020,6 hPa 0,0 l/m 4,2 km/h (1 Bft) S-SW 205 2 min 0,000 mm 0,0 UV-I 35 W/m 10,1 C 12,2 C 6,4 km/h (2 Bft) 96,00 %
11.06.2017 05:34 12,2 C 23,9 C 87 % 1020,7 hPa 0,0 l/m 4,7 km/h (1 Bft) S-SW 205 2 min 0,000 mm 0,0 UV-I 39 W/m 10,1 C 12,2 C 6,4 km/h (2 Bft) 98,11 %
11.06.2017 05:36 12,2 C 23,9 C 87 % 1020,7 hPa 0,0 l/m 5,2 km/h (1 Bft) S-SW 205 2 min 0,000 mm 0,0 UV-I 42 W/m 10,1 C 12,2 C 6,4 km/h (2 Bft) 94,29 %
11.06.2017 05:38 12,2 C 23,9 C 87 % 1020,7 hPa 0,0 l/m 4,7 km/h (1 Bft) S-SW 205 2 min 0,000 mm 0,0 UV-I 42 W/m 10,1 C 12,2 C 6,4 km/h (2 Bft) 92,00 %
11.06.2017 05:40 12,2 C 23,9 C 87 % 1020,7 hPa 0,0 l/m 4,6 km/h (1 Bft) S-SW 205 2 min 0,000 mm 0,0 UV-I 45 W/m 10,1 C 12,2 C 6,4 km/h (2 Bft) 98,11 %
11.06.2017 05:42 12,2 C 23,9 C 87 % 1020,8 hPa 0,0 l/m 4,0 km/h (1 Bft) S-SW 205 2 min 0,000 mm 0,0 UV-I 48 W/m 10,1 C 12,2 C 4,8 km/h (1 Bft) 95,74 %
11.06.2017 05:44 12,3 C 23,9 C 87 % 1020,8 hPa 0,0 l/m 3,7 km/h (1 Bft) S-SW 205 2 min 0,000 mm 0,0 UV-I 54 W/m 10,2 C 12,3 C 6,4 km/h (2 Bft) 96,00 %
11.06.2017 05:46 12,3 C 23,9 C 86 % 1020,8 hPa 0,0 l/m 3,3 km/h (1 Bft) S-SW 205 2 min 0,000 mm 0,0 UV-I 56 W/m 10,0 C 12,3 C 6,4 km/h (2 Bft) 97,56 %
11.06.2017 05:48 12,3 C 23,9 C 86 % 1020,8 hPa 0,0 l/m 2,8 km/h (1 Bft) S-SW 205 2 min 0,000 mm 0,0 UV-I 60 W/m 10,0 C 12,3 C 6,4 km/h (2 Bft) 93,62 %
11.06.2017 05:50 12,3 C 23,9 C 86 % 1020,8 hPa 0,0 l/m 2,6 km/h (1 Bft) S-SW 205 2 min 0,000 mm 0,0 UV-I 63 W/m 10,0 C 12,3 C 4,8 km/h (1 Bft) 95,12 %
11.06.2017 05:52 12,3 C 23,9 C 86 % 1020,8 hPa 0,0 l/m 2,5 km/h (1 Bft) S-SW 205 2 min 0,000 mm 0,0 UV-I 67 W/m 10,0 C 12,3 C 4,8 km/h (1 Bft) 98,11 %
11.06.2017 05:54 12,3 C 23,9 C 86 % 1020,8 hPa 0,0 l/m 2,4 km/h (1 Bft) S-SW 205 2 min 0,000 mm 0,0 UV-I 69 W/m 10,0 C 12,3 C 4,8 km/h (1 Bft) 94,87 %
11.06.2017 05:56 12,4 C 23,9 C 86 % 1020,9 hPa 0,0 l/m 2,7 km/h (1 Bft) S-SW 205 2 min 0,000 mm 0,0 UV-I 73 W/m 10,1 C 12,4 C 4,8 km/h (1 Bft) 94,00 %
11.06.2017 05:58 12,4 C 23,9 C 86 % 1020,9 hPa 0,0 l/m 2,7 km/h (1 Bft) S-SW 205 2 min 0,000 mm 0,0 UV-I 77 W/m 10,1 C 12,4 C 4,8 km/h (1 Bft) 96,23 %
11.06.2017 06:00 12,5 C 23,9 C 86 % 1020,9 hPa 0,0 l/m 3,2 km/h (1 Bft) S-SW 205 2 min 0,000 mm 0,0 UV-I 80 W/m 10,2 C 12,5 C 4,8 km/h (1 Bft) 98,00 %
11.06.2017 06:02 12,6 C 23,9 C 86 % 1020,9 hPa 0,0 l/m 3,1 km/h (1 Bft) S-SW 205 2 min 0,025 mm 0,0 UV-I 84 W/m 10,3 C 12,6 C 4,8 km/h (1 Bft) 95,74 %
11.06.2017 06:04 12,6 C 23,9 C 86 % 1020,9 hPa 0,0 l/m 3,6 km/h (1 Bft) S-SW 205 2 min 0,000 mm 0,0 UV-I 88 W/m 10,3 C 12,6 C 4,8 km/h (1 Bft) 95,12 %
11.06.2017 06:06 12,7 C 23,9 C 86 % 1020,9 hPa 0,0 l/m 3,5 km/h (1 Bft) S-SW 205 2 min 0,000 mm 0,0 UV-I 90 W/m 10,4 C 12,7 C 4,8 km/h (1 Bft) 95,12 %
11.06.2017 06:08 12,7 C 23,9 C 85 % 1020,9 hPa 0,0 l/m 3,1 km/h (1 Bft) S-SW 205 2 min 0,000 mm 0,0 UV-I 95 W/m 10,2 C 12,7 C 4,8 km/h (1 Bft) 94,64 %
11.06.2017 06:10 12,7 C 23,9 C 85 % 1020,9 hPa 0,0 l/m 2,8 km/h (1 Bft) S-SW 205 2 min 0,000 mm 0,0 UV-I 99 W/m 10,2 C 12,7 C 4,8 km/h (1 Bft) 94,00 %
11.06.2017 06:12 12,8 C 23,9 C 85 % 1020,9 hPa 0,0 l/m 2,5 km/h (1 Bft) S-SW 205 2 min 0,000 mm 0,0 UV-I 103 W/m 10,3 C 12,8 C 4,8 km/h (1 Bft) 97,87 %
11.06.2017 06:14 12,8 C 23,9 C 86 % 1021,0 hPa 0,0 l/m 0,8 km/h (0 Bft) S-SW 205 2 min 0,000 mm 0,0 UV-I 104 W/m 10,5 C 12,8 C 1,6 km/h (1 Bft) 94,29 %
11.06.2017 06:16 12,9 C 23,9 C 86 % 1021,0 hPa 0,0 l/m 2,3 km/h (1 Bft) S-SW 205 2 min 0,000 mm 0,0 UV-I 107 W/m 10,6 C 12,9 C 4,8 km/h (1 Bft) 98,00 %
11.06.2017 06:18 12,9 C 23,9 C 85 % 1021,0 hPa 0,0 l/m 1,9 km/h (1 Bft) S-SW 205 2 min 0,000 mm 0,0 UV-I 103 W/m 10,4 C 12,9 C 3,2 km/h (1 Bft) 100,00 %
11.06.2017 06:20 13,0 C 23,9 C 85 % 1021,0 hPa 0,0 l/m 1,9 km/h (1 Bft) S-SW 205 0 min 0,000 mm 0,0 UV-I 72 W/m 10,5 C 13,0 C 3,2 km/h (1 Bft) 100,00 %
11.06.2017 06:22 13,0 C 23,9 C 85 % 1021,0 hPa 0,0 l/m 2,0 km/h (1 Bft) S-SW 205 0 min 0,000 mm 0,0 UV-I 55 W/m 10,5 C 13,0 C 3,2 km/h (1 Bft) 96,88 %
11.06.2017 06:24 13,1 C 23,9 C 85 % 1021,0 hPa 0,0 l/m 1,0 km/h (0 Bft) S-SW 205 0 min 0,000 mm 0,0 UV-I 43 W/m 10,6 C 13,1 C 1,6 km/h (1 Bft) 95,74 %
11.06.2017 06:26 13,0 C 23,9 C 85 % 1021,0 hPa 0,0 l/m 1,1 km/h (1 Bft) S-SW 205 0 min 0,000 mm 0,0 UV-I 39 W/m 10,5 C 13,0 C 3,2 km/h (1 Bft) 100,00 %
11.06.2017 06:28 13,1 C 23,9 C 85 % 1021,0 hPa 0,0 l/m 0,4 km/h (0 Bft) S-SW 205 0 min 0,000 mm 0,0 UV-I 54 W/m 10,6 C 13,1 C 3,2 km/h (1 Bft) 98,00 %
11.06.2017 06:30 13,1 C 23,9 C 85 % 1021,0 hPa 0,0 l/m 0,8 km/h (0 Bft) S-SW 205 2 min 0,000 mm 0,0 UV-I 125 W/m 10,6 C 13,1 C 1,6 km/h (1 Bft) 100,00 %
11.06.2017 06:32 13,1 C 23,9 C 85 % 1021,0 hPa 0,0 l/m 0,0 km/h (0 Bft) S-SW 205 2 min 0,000 mm 0,0 UV-I 149 W/m 10,6 C 13,1 C 1,6 km/h (1 Bft) 96,23 %
11.06.2017 06:34 13,2 C 23,9 C 85 % 1021,0 hPa 0,0 l/m 0,0 km/h (0 Bft) S-SW 205 2 min 0,000 mm 0,0 UV-I 153 W/m 10,7 C 13,2 C 0,0 km/h (0 Bft) 97,44 %
11.06.2017 06:36 13,2 C 23,9 C 85 % 1021,0 hPa 0,0 l/m 0,0 km/h (0 Bft) S-SW 205 2 min 0,000 mm 0,0 UV-I 158 W/m 10,7 C 13,2 C 0,0 km/h (0 Bft) 98,00 %
11.06.2017 06:38 13,3 C 23,9 C 84 % 1021,0 hPa 0,0 l/m 0,0 km/h (0 Bft) S-SW 205 2 min 0,000 mm 0,0 UV-I 163 W/m 10,7 C 13,3 C 0,0 km/h (0 Bft) 97,37 %
11.06.2017 06:40 13,4 C 23,9 C 84 % 1021,0 hPa 0,0 l/m 0,7 km/h (0 Bft) S-SW 205 2 min 0,000 mm 0,0 UV-I 169 W/m 10,8 C 13,4 C 1,6 km/h (1 Bft) 98,11 %
11.06.2017 06:42 13,5 C 23,9 C 84 % 1021,0 hPa 0,0 l/m 1,4 km/h (1 Bft) S-SW 205 2 min 0,000 mm 0,0 UV-I 174 W/m 10,8 C 13,5 C 3,2 km/h (1 Bft) 100,00 %
11.06.2017 06:44 13,7 C 23,9 C 84 % 1021,0 hPa 0,0 l/m 0,5 km/h (0 Bft) S-SW 205 2 min 0,000 mm 0,0 UV-I 179 W/m 11,0 C 13,7 C 1,6 km/h (1 Bft) 98,00 %
11.06.2017 06:46 13,8 C 23,9 C 84 % 1020,9 hPa 0,0 l/m 1,4 km/h (1 Bft) S-SW 205 2 min 0,000 mm 0,0 UV-I 185 W/m 11,1 C 13,8 C 3,2 km/h (1 Bft) 100,00 %
11.06.2017 06:48 13,9 C 23,9 C 83 % 1021,0 hPa 0,0 l/m 0,2 km/h (0 Bft) S-SW 205 2 min 0,000 mm 0,0 UV-I 190 W/m 11,1 C 13,9 C 1,6 km/h (1 Bft) 97,87 %
11.06.2017 06:50 14,1 C 23,9 C 83 % 1020,9 hPa 0,0 l/m 1,7 km/h (1 Bft) S-SW 205 2 min 0,000 mm 0,0 UV-I 195 W/m 11,3 C 14,1 C 3,2 km/h (1 Bft) 98,00 %
11.06.2017 06:52 14,2 C 23,9 C 82 % 1021,0 hPa 0,0 l/m 1,0 km/h (0 Bft) S-SW 205 2 min 0,000 mm 0,0 UV-I 200 W/m 11,2 C 14,2 C 3,2 km/h (1 Bft) 98,11 %
11.06.2017 06:54 14,3 C 23,9 C 82 % 1021,0 hPa 0,0 l/m 0,5 km/h (0 Bft) S-SW 205 2 min 0,000 mm 0,0 UV-I 207 W/m 11,3 C 14,3 C 3,2 km/h (1 Bft) 100,00 %
11.06.2017 06:56 14,4 C 23,9 C 82 % 1020,9 hPa 0,0 l/m 1,2 km/h (1 Bft) S-SW 205 2 min 0,000 mm 0,0 UV-I 212 W/m 11,4 C 14,4 C 3,2 km/h (1 Bft) 100,00 %
11.06.2017 06:58 14,5 C 23,9 C 82 % 1020,9 hPa 0,0 l/m 2,2 km/h (1 Bft) S-SW 205 2 min 0,000 mm 0,0 UV-I 217 W/m 11,5 C 14,5 C 3,2 km/h (1 Bft) 98,00 %
11.06.2017 07:00 14,6 C 23,9 C 82 % 1020,9 hPa 0,0 l/m 1,5 km/h (1 Bft) S-SW 205 2 min 0,076 mm 0,0 UV-I 223 W/m 11,6 C 14,6 C 3,2 km/h (1 Bft) 97,87 %
11.06.2017 07:02 14,7 C 23,9 C 81 % 1021,0 hPa 0,0 l/m 2,8 km/h (1 Bft) S-SW 209 2 min 0,000 mm 0,1 UV-I 229 W/m 11,5 C 14,7 C 6,4 km/h (2 Bft) 100,00 %
11.06.2017 07:04 14,7 C 23,9 C 81 % 1020,9 hPa 0,0 l/m 3,7 km/h (1 Bft) S-SW 209 2 min 0,000 mm 0,5 UV-I 236 W/m 11,5 C 14,7 C 6,4 km/h (2 Bft) 100,00 %
11.06.2017 07:06 14,8 C 23,9 C 80 % 1021,0 hPa 0,0 l/m 3,2 km/h (1 Bft) S-SW 211 2 min 0,000 mm 0,5 UV-I 241 W/m 11,4 C 14,8 C 4,8 km/h (1 Bft) 100,00 %
11.06.2017 07:08 14,8 C 23,9 C 80 % 1020,9 hPa 0,0 l/m 2,6 km/h (1 Bft) S-SW 210 2 min 0,000 mm 0,5 UV-I 246 W/m 11,4 C 14,8 C 4,8 km/h (1 Bft) 100,00 %
11.06.2017 07:10 14,9 C 22,8 C 80 % 1020,9 hPa 0,0 l/m 2,4 km/h (1 Bft) S-SW 211 2 min 0,000 mm 0,5 UV-I 251 W/m 11,5 C 14,9 C 4,8 km/h (1 Bft) 94,87 %
11.06.2017 07:12 15,0 C 22,8 C 80 % 1020,9 hPa 0,0 l/m 2,5 km/h (1 Bft) S-SW 211 2 min 0,000 mm 0,5 UV-I 257 W/m 11,6 C 15,0 C 4,8 km/h (1 Bft) 98,21 %
11.06.2017 07:14 15,1 C 22,8 C 80 % 1021,0 hPa 0,0 l/m 3,0 km/h (1 Bft) S-SW 210 2 min 0,000 mm 0,6 UV-I 262 W/m 11,7 C 15,1 C 6,4 km/h (2 Bft) 92,31 %
11.06.2017 07:16 15,2 C 22,8 C 81 % 1021,0 hPa 0,0 l/m 1,9 km/h (1 Bft) S-SW 210 2 min 0,000 mm 0,6 UV-I 268 W/m 12,0 C 15,2 C 4,8 km/h (1 Bft) 97,44 %
11.06.2017 07:18 15,2 C 23,3 C 80 % 1021,0 hPa 0,0 l/m 2,1 km/h (1 Bft) S-SW 210 2 min 0,000 mm 0,6 UV-I 273 W/m 11,8 C 15,2 C 4,8 km/h (1 Bft) 96,43 %
11.06.2017 07:20 15,2 C 23,3 C 79 % 1021,0 hPa 0,0 l/m 2,9 km/h (1 Bft) S-SW 210 2 min 0,000 mm 0,6 UV-I 279 W/m 11,6 C 15,2 C 4,8 km/h (1 Bft) 94,74 %
11.06.2017 07:22 15,3 C 23,3 C 80 % 1021,0 hPa 0,0 l/m 0,6 km/h (0 Bft) S-SW 210 2 min 0,000 mm 0,6 UV-I 285 W/m 11,9 C 15,3 C 1,6 km/h (1 Bft) 96,00 %
11.06.2017 07:24 15,4 C 22,8 C 78 % 1021,0 hPa 0,0 l/m 1,0 km/h (0 Bft) S-SW 210 2 min 0,000 mm 0,7 UV-I 291 W/m 11,6 C 15,4 C 3,2 km/h (1 Bft) 98,00 %
11.06.2017 07:26 15,4 C 23,3 C 78 % 1021,0 hPa 0,0 l/m 2,2 km/h (1 Bft) S-SW 210 2 min 0,000 mm 0,7 UV-I 297 W/m 11,6 C 15,4 C 3,2 km/h (1 Bft) 94,00 %
11.06.2017 07:28 15,6 C 22,8 C 79 % 1021,0 hPa 0,0 l/m 3,2 km/h (1 Bft) SW 227 2 min 0,000 mm 0,7 UV-I 302 W/m 12,0 C 15,6 C 4,8 km/h (1 Bft) 95,74 %
11.06.2017 07:30 15,7 C 22,8 C 77 % 1021,0 hPa 0,0 l/m 4,4 km/h (1 Bft) W-SW 238 2 min 0,000 mm 0,8 UV-I 308 W/m 11,7 C 15,7 C 6,4 km/h (2 Bft) 100,00 %
11.06.2017 07:32 15,7 C 22,8 C 77 % 1021,1 hPa 0,0 l/m 3,2 km/h (1 Bft) W-SW 238 2 min 0,000 mm 0,8 UV-I 315 W/m 11,7 C 15,7 C 6,4 km/h (2 Bft) 97,56 %
11.06.2017 07:34 15,8 C 22,8 C 77 % 1021,1 hPa 0,0 l/m 4,3 km/h (1 Bft) W-SW 238 2 min 0,000 mm 0,8 UV-I 321 W/m 11,8 C 15,8 C 6,4 km/h (2 Bft) 96,00 %
11.06.2017 07:36 15,8 C 22,8 C 76 % 1021,1 hPa 0,0 l/m 2,6 km/h (1 Bft) W-SW 238 2 min 0,000 mm 0,8 UV-I 326 W/m 11,6 C 15,8 C 6,4 km/h (2 Bft) 94,00 %
11.06.2017 07:38 15,9 C 23,3 C 77 % 1021,1 hPa 0,0 l/m 2,3 km/h (1 Bft) W-SW 238 2 min 0,000 mm 0,9 UV-I 331 W/m 11,9 C 15,9 C 4,8 km/h (1 Bft) 97,87 %
11.06.2017 07:40 15,9 C 23,3 C 77 % 1021,1 hPa 0,0 l/m 2,2 km/h (1 Bft) W-SW 238 2 min 0,000 mm 0,9 UV-I 337 W/m 11,9 C 15,9 C 6,4 km/h (2 Bft) 97,87 %
11.06.2017 07:42 15,9 C 23,3 C 77 % 1021,1 hPa 0,0 l/m 3,7 km/h (1 Bft) W-SW 238 2 min 0,000 mm 0,9 UV-I 343 W/m 11,9 C 15,9 C 6,4 km/h (2 Bft) 100,00 %
11.06.2017 07:44 16,1 C 23,3 C 77 % 1021,1 hPa 0,0 l/m 3,5 km/h (1 Bft) W-SW 238 2 min 0,000 mm 0,9 UV-I 348 W/m 12,1 C 16,1 C 6,4 km/h (2 Bft) 100,00 %
11.06.2017 07:46 16,2 C 23,3 C 76 % 1021,1 hPa 0,0 l/m 5,1 km/h (1 Bft) S-SW 209 2 min 0,000 mm 1,0 UV-I 354 W/m 12,0 C 16,2 C 8,0 km/h (2 Bft) 98,31 %
11.06.2017 07:48 16,3 C 23,3 C 75 % 1021,1 hPa 0,0 l/m 4,1 km/h (1 Bft) S-SW 209 2 min 0,000 mm 1,0 UV-I 361 W/m 11,9 C 16,3 C 6,4 km/h (2 Bft) 97,87 %
11.06.2017 07:50 16,4 C 23,3 C 75 % 1021,0 hPa 0,0 l/m 3,7 km/h (1 Bft) S-SW 209 2 min 0,000 mm 1,0 UV-I 367 W/m 12,0 C 16,4 C 4,8 km/h (1 Bft) 100,00 %
11.06.2017 07:52 16,5 C 23,3 C 75 % 1021,0 hPa 0,0 l/m 2,7 km/h (1 Bft) S-SW 209 2 min 0,000 mm 1,1 UV-I 372 W/m 12,1 C 16,5 C 6,4 km/h (2 Bft) 97,87 %
11.06.2017 07:54 16,6 C 23,3 C 74 % 1021,0 hPa 0,0 l/m 4,1 km/h (1 Bft) S-SW 209 2 min 0,000 mm 1,1 UV-I 378 W/m 11,9 C 16,6 C 6,4 km/h (2 Bft) 100,00 %
11.06.2017 07:56 16,6 C 23,3 C 74 % 1021,1 hPa 0,0 l/m 3,1 km/h (1 Bft) S-SW 209 2 min 0,000 mm 1,1 UV-I 383 W/m 11,9 C 16,6 C 6,4 km/h (2 Bft) 98,11 %
11.06.2017 07:58 16,6 C 23,9 C 73 % 1021,1 hPa 0,0 l/m 4,6 km/h (1 Bft) S-SW 209 2 min 0,000 mm 1,2 UV-I 389 W/m 11,7 C 16,6 C 6,4 km/h (2 Bft) 98,00 %
11.06.2017 08:00 16,6 C 23,9 C 73 % 1021,1 hPa 0,0 l/m 2,8 km/h (1 Bft) S-SW 209 2 min 0,178 mm 1,2 UV-I 395 W/m 11,7 C 16,6 C 4,8 km/h (1 Bft) 100,00 %
11.06.2017 08:02 16,7 C 23,9 C 74 % 1021,1 hPa 0,0 l/m 0,9 km/h (0 Bft) S-SW 209 2 min 0,000 mm 1,2 UV-I 401 W/m 12,0 C 16,7 C 3,2 km/h (1 Bft) 100,00 %
11.06.2017 08:04 16,6 C 23,9 C 73 % 1021,1 hPa 0,0 l/m 2,6 km/h (1 Bft) S-SW 209 2 min 0,000 mm 1,3 UV-I 406 W/m 11,7 C 16,6 C 4,8 km/h (1 Bft) 100,00 %
11.06.2017 08:06 16,7 C 23,9 C 73 % 1021,1 hPa 0,0 l/m 2,5 km/h (1 Bft) S-SW 209 2 min 0,000 mm 1,3 UV-I 412 W/m 11,8 C 16,7 C 6,4 km/h (2 Bft) 97,56 %
11.06.2017 08:08 16,9 C 23,9 C 73 % 1021,1 hPa 0,0 l/m 2,3 km/h (1 Bft) S-SW 209 2 min 0,000 mm 1,3 UV-I 417 W/m 12,0 C 16,9 C 4,8 km/h (1 Bft) 100,00 %
11.06.2017 08:10 16,9 C 23,9 C 72 % 1021,0 hPa 0,0 l/m 2,9 km/h (1 Bft) S-SW 209 2 min 0,000 mm 1,4 UV-I 423 W/m 11,8 C 16,9 C 4,8 km/h (1 Bft) 98,00 %
11.06.2017 08:12 16,9 C 23,9 C 72 % 1021,0 hPa 0,0 l/m 3,5 km/h (1 Bft) S-SW 209 2 min 0,000 mm 1,4 UV-I 427 W/m 11,8 C 16,9 C 6,4 km/h (2 Bft) 97,14 %
11.06.2017 08:14 17,1 C 23,9 C 72 % 1021,0 hPa 0,0 l/m 2,1 km/h (1 Bft) S-SW 209 2 min 0,000 mm 1,4 UV-I 433 W/m 12,0 C 17,1 C 4,8 km/h (1 Bft) 100,00 %
11.06.2017 08:16 17,2 C 23,9 C 72 % 1021,0 hPa 0,0 l/m 3,8 km/h (1 Bft) W 272 2 min 0,000 mm 1,5 UV-I 440 W/m 12,1 C 17,2 C 6,4 km/h (2 Bft) 100,00 %
11.06.2017 08:18 17,3 C 23,9 C 71 % 1021,1 hPa 0,0 l/m 4,2 km/h (1 Bft) W-SW 256 2 min 0,000 mm 1,5 UV-I 445 W/m 12,0 C 17,3 C 6,4 km/h (2 Bft) 94,34 %
11.06.2017 08:20 17,4 C 23,9 C 69 % 1021,1 hPa 0,0 l/m 3,1 km/h (1 Bft) SW 233 2 min 0,000 mm 1,5 UV-I 450 W/m 11,7 C 17,4 C 6,4 km/h (2 Bft) 98,00 %
11.06.2017 08:22 17,4 C 23,9 C 68 % 1021,0 hPa 0,0 l/m 4,2 km/h (1 Bft) SW 218 2 min 0,000 mm 1,6 UV-I 457 W/m 11,4 C 17,4 C 6,4 km/h (2 Bft) 95,74 %
11.06.2017 08:24 17,4 C 23,9 C 66 % 1021,0 hPa 0,0 l/m 4,2 km/h (1 Bft) SW 219 2 min 0,000 mm 1,6 UV-I 464 W/m 11,0 C 17,4 C 6,4 km/h (2 Bft) 97,87 %
11.06.2017 08:26 17,4 C 23,9 C 68 % 1021,1 hPa 0,0 l/m 2,8 km/h (1 Bft) SW 219 2 min 0,000 mm 1,7 UV-I 468 W/m 11,4 C 17,4 C 4,8 km/h (1 Bft) 97,87 %
11.06.2017 08:28 17,3 C 23,9 C 67 % 1021,1 hPa 0,0 l/m 0,9 km/h (0 Bft) SW 219 2 min 0,000 mm 1,7 UV-I 474 W/m 11,1 C 17,3 C 3,2 km/h (1 Bft) 95,12 %
11.06.2017 08:30 17,5 C 23,9 C 68 % 1021,0 hPa 0,0 l/m 2,6 km/h (1 Bft) SW 219 2 min 0,000 mm 1,8 UV-I 478 W/m 11,5 C 17,5 C 6,4 km/h (2 Bft) 96,23 %
11.06.2017 08:32 17,6 C 23,9 C 67 % 1021,1 hPa 0,0 l/m 2,9 km/h (1 Bft) SW 227 2 min 0,000 mm 1,8 UV-I 484 W/m 11,4 C 17,6 C 6,4 km/h (2 Bft) 94,87 %
11.06.2017 08:34 17,7 C 23,9 C 67 % 1021,0 hPa 0,0 l/m 1,9 km/h (1 Bft) SW 227 2 min 0,000 mm 1,9 UV-I 491 W/m 11,5 C 17,7 C 4,8 km/h (1 Bft) 98,11 %
11.06.2017 08:36 17,6 C 23,9 C 67 % 1021,0 hPa 0,0 l/m 0,3 km/h (0 Bft) SW 227 2 min 0,000 mm 1,9 UV-I 496 W/m 11,4 C 17,6 C 1,6 km/h (1 Bft) 94,00 %
11.06.2017 08:38 17,6 C 23,9 C 68 % 1021,0 hPa 0,0 l/m 0,5 km/h (0 Bft) SW 227 2 min 0,000 mm 1,9 UV-I 502 W/m 11,6 C 17,6 C 1,6 km/h (1 Bft) 97,14 %
11.06.2017 08:40 17,8 C 23,9 C 68 % 1021,0 hPa 0,0 l/m 1,6 km/h (1 Bft) SW 227 2 min 0,000 mm 2,0 UV-I 508 W/m 11,8 C 17,8 C 3,2 km/h (1 Bft) 94,34 %
11.06.2017 08:42 17,9 C 23,9 C 68 % 1021,0 hPa 0,0 l/m 0,1 km/h (0 Bft) SW 227 2 min 0,000 mm 2,0 UV-I 513 W/m 11,9 C 17,9 C 1,6 km/h (1 Bft) 95,12 %
11.06.2017 08:44 18,0 C 23,9 C 66 % 1021,0 hPa 0,0 l/m 1,7 km/h (1 Bft) W 267 2 min 0,000 mm 2,1 UV-I 520 W/m 11,6 C 18,0 C 3,2 km/h (1 Bft) 98,11 %
11.06.2017 08:46 18,1 C 23,9 C 66 % 1021,0 hPa 0,0 l/m 1,6 km/h (1 Bft) W 267 2 min 0,000 mm 2,1 UV-I 523 W/m 11,6 C 18,1 C 4,8 km/h (1 Bft) 95,12 %
11.06.2017 08:48 18,1 C 22,8 C 66 % 1021,0 hPa 0,0 l/m 0,1 km/h (0 Bft) W 267 2 min 0,000 mm 2,2 UV-I 529 W/m 11,6 C 18,1 C 1,6 km/h (1 Bft) 98,11 %
11.06.2017 08:50 18,3 C 22,8 C 68 % 1021,0 hPa 0,0 l/m 2,2 km/h (1 Bft) W 267 2 min 0,000 mm 2,2 UV-I 534 W/m 12,3 C 18,3 C 6,4 km/h (2 Bft) 98,00 %
11.06.2017 08:52 18,5 C 22,8 C 66 % 1021,0 hPa 0,0 l/m 4,7 km/h (1 Bft) S 182 2 min 0,000 mm 2,3 UV-I 539 W/m 12,0 C 18,5 C 6,4 km/h (2 Bft) 96,00 %
11.06.2017 08:54 18,6 C 22,8 C 66 % 1021,0 hPa 0,0 l/m 5,2 km/h (1 Bft) SW 234 2 min 0,000 mm 2,3 UV-I 545 W/m 12,1 C 18,6 C 8,0 km/h (2 Bft) 97,37 %
11.06.2017 08:56 18,6 C 22,8 C 65 % 1021,0 hPa 0,0 l/m 3,5 km/h (1 Bft) W-SW 237 2 min 0,000 mm 2,3 UV-I 551 W/m 11,9 C 18,6 C 6,4 km/h (2 Bft) 98,11 %
11.06.2017 08:58 18,5 C 22,8 C 63 % 1021,0 hPa 0,0 l/m 1,2 km/h (1 Bft) SW 235 2 min 0,000 mm 2,4 UV-I 554 W/m 11,3 C 18,5 C 4,8 km/h (1 Bft) 100,00 %
11.06.2017 09:00 18,4 C 22,8 C 65 % 1021,1 hPa 0,0 l/m 0,2 km/h (0 Bft) SW 236 2 min 0,279 mm 2,4 UV-I 560 W/m 11,7 C 18,4 C 1,6 km/h (1 Bft) 96,23 %
11.06.2017 09:02 18,5 C 22,8 C 65 % 1021,1 hPa 0,0 l/m 1,4 km/h (1 Bft) S-SW 200 2 min 0,000 mm 2,5 UV-I 566 W/m 11,8 C 18,5 C 3,2 km/h (1 Bft) 97,87 %
11.06.2017 09:04 18,5 C 22,8 C 64 % 1021,0 hPa 0,0 l/m 1,9 km/h (1 Bft) S 169 2 min 0,000 mm 2,5 UV-I 572 W/m 11,6 C 18,5 C 3,2 km/h (1 Bft) 95,74 %
11.06.2017 09:06 18,4 C 22,8 C 64 % 1021,1 hPa 0,0 l/m 1,6 km/h (1 Bft) S 169 2 min 0,000 mm 2,6 UV-I 578 W/m 11,5 C 18,4 C 3,2 km/h (1 Bft) 91,67 %
11.06.2017 09:08 18,5 C 22,8 C 66 % 1021,0 hPa 0,0 l/m 2,7 km/h (1 Bft) S-SO 168 2 min 0,000 mm 2,6 UV-I 583 W/m 12,0 C 18,5 C 6,4 km/h (2 Bft) 96,15 %
11.06.2017 09:10 18,7 C 22,8 C 66 % 1021,0 hPa 0,0 l/m 1,3 km/h (1 Bft) SW 235 2 min 0,000 mm 2,7 UV-I 587 W/m 12,2 C 18,7 C 6,4 km/h (2 Bft) 95,83 %
11.06.2017 09:12 18,8 C 22,8 C 63 % 1021,0 hPa 0,0 l/m 3,4 km/h (1 Bft) W-SW 246 2 min 0,000 mm 2,7 UV-I 592 W/m 11,6 C 18,8 C 6,4 km/h (2 Bft) 96,00 %
11.06.2017 09:14 18,8 C 22,8 C 63 % 1021,1 hPa 0,0 l/m 1,2 km/h (1 Bft) W-SW 238 2 min 0,000 mm 2,8 UV-I 597 W/m 11,6 C 18,8 C 3,2 km/h (1 Bft) 92,00 %
11.06.2017 09:16 18,8 C 22,8 C 64 % 1021,1 hPa 0,0 l/m 1,0 km/h (0 Bft) W-SW 238 2 min 0,000 mm 2,8 UV-I 603 W/m 11,8 C 18,8 C 4,8 km/h (1 Bft) 97,14 %
11.06.2017 09:18 18,8 C 22,8 C 61 % 1021,1 hPa 0,0 l/m 3,7 km/h (1 Bft) W 274 2 min 0,000 mm 2,9 UV-I 607 W/m 11,1 C 18,8 C 4,8 km/h (1 Bft) 94,92 %
11.06.2017 09:20 18,7 C 22,8 C 61 % 1021,0 hPa 0,0 l/m 3,3 km/h (1 Bft) W 274 2 min 0,000 mm 2,9 UV-I 611 W/m 11,0 C 18,7 C 4,8 km/h (1 Bft) 97,37 %
11.06.2017 09:22 18,8 C 22,8 C 63 % 1021,0 hPa 0,0 l/m 4,0 km/h (1 Bft) W 274 2 min 0,000 mm 3,0 UV-I 618 W/m 11,6 C 18,8 C 6,4 km/h (2 Bft) 96,00 %
11.06.2017 09:24 18,8 C 22,8 C 62 % 1021,0 hPa 0,0 l/m 2,1 km/h (1 Bft) W 274 2 min 0,000 mm 3,0 UV-I 622 W/m 11,4 C 18,8 C 3,2 km/h (1 Bft) 96,15 %
11.06.2017 09:26 19,1 C 22,8 C 63 % 1020,9 hPa 0,0 l/m 1,7 km/h (1 Bft) W 274 2 min 0,000 mm 3,1 UV-I 626 W/m 11,9 C 19,1 C 3,2 km/h (1 Bft) 95,77 %
11.06.2017 09:28 19,2 C 22,8 C 61 % 1020,9 hPa 0,0 l/m 1,4 km/h (1 Bft) W 274 2 min 0,000 mm 3,1 UV-I 633 W/m 11,5 C 19,2 C 4,8 km/h (1 Bft) 94,74 %
11.06.2017 09:30 19,2 C 22,8 C 61 % 1020,9 hPa 0,0 l/m 4,3 km/h (1 Bft) SW 227 2 min 0,000 mm 3,2 UV-I 636 W/m 11,5 C 19,2 C 6,4 km/h (2 Bft) 98,11 %
11.06.2017 09:32 19,3 C 22,8 C 60 % 1020,9 hPa 0,0 l/m 1,9 km/h (1 Bft) SW 224 2 min 0,000 mm 3,2 UV-I 642 W/m 11,3 C 19,3 C 4,8 km/h (1 Bft) 95,12 %
11.06.2017 09:34 19,2 C 22,8 C 59 % 1020,9 hPa 0,0 l/m 0,3 km/h (0 Bft) SW 224 2 min 0,000 mm 3,3 UV-I 647 W/m 11,0 C 19,2 C 1,6 km/h (1 Bft) 94,00 %
11.06.2017 09:36 19,4 C 22,8 C 61 % 1020,9 hPa 0,0 l/m 4,2 km/h (1 Bft) W-SW 252 2 min 0,000 mm 3,3 UV-I 650 W/m 11,7 C 19,4 C 9,7 km/h (2 Bft) 100,00 %
11.06.2017 09:38 19,4 C 22,8 C 60 % 1020,9 hPa 0,0 l/m 2,4 km/h (1 Bft) W-SW 252 2 min 0,000 mm 3,4 UV-I 656 W/m 11,4 C 19,4 C 4,8 km/h (1 Bft) 95,74 %
11.06.2017 09:40 19,4 C 22,8 C 60 % 1020,9 hPa 0,0 l/m 2,9 km/h (1 Bft) W-SW 252 2 min 0,000 mm 3,4 UV-I 661 W/m 11,4 C 19,4 C 4,8 km/h (1 Bft) 100,00 %
11.06.2017 09:42 19,6 C 22,8 C 63 % 1020,9 hPa 0,0 l/m 1,2 km/h (1 Bft) W-SW 252 2 min 0,000 mm 3,5 UV-I 666 W/m 12,4 C 19,6 C 3,2 km/h (1 Bft) 100,00 %
11.06.2017 09:44 19,7 C 22,8 C 60 % 1020,9 hPa 0,0 l/m 2,5 km/h (1 Bft) S 184 2 min 0,000 mm 3,5 UV-I 671 W/m 11,7 C 19,7 C 6,4 km/h (2 Bft) 97,73 %
11.06.2017 09:46 19,8 C 22,8 C 60 % 1020,8 hPa 0,0 l/m 3,2 km/h (1 Bft) S 184 2 min 0,000 mm 3,6 UV-I 677 W/m 11,8 C 19,8 C 4,8 km/h (1 Bft) 100,00 %
11.06.2017 09:48 19,8 C 22,8 C 60 % 1020,8 hPa 0,0 l/m 4,7 km/h (1 Bft) W-SW 238 2 min 0,000 mm 3,6 UV-I 681 W/m 11,8 C 19,8 C 8,0 km/h (2 Bft) 98,00 %
11.06.2017 09:50 19,8 C 22,8 C 60 % 1020,8 hPa 0,0 l/m 3,1 km/h (1 Bft) W-SW 238 2 min 0,000 mm 3,7 UV-I 685 W/m 11,8 C 19,8 C 4,8 km/h (1 Bft) 100,00 %
11.06.2017 09:52 19,8 C 22,8 C 61 % 1020,8 hPa 0,0 l/m 3,9 km/h (1 Bft) W-SW 238 2 min 0,000 mm 3,7 UV-I 688 W/m 12,1 C 19,8 C 6,4 km/h (2 Bft) 100,00 %
11.06.2017 09:54 19,8 C 22,8 C 60 % 1020,8 hPa 0,0 l/m 1,0 km/h (0 Bft) W-SW 238 2 min 0,000 mm 3,8 UV-I 691 W/m 11,8 C 19,8 C 3,2 km/h (1 Bft) 100,00 %
11.06.2017 09:56 19,8 C 22,8 C 60 % 1020,8 hPa 0,0 l/m 0,2 km/h (0 Bft) W-SW 238 2 min 0,000 mm 3,8 UV-I 697 W/m 11,8 C 19,8 C 1,6 km/h (1 Bft) 100,00 %
11.06.2017 09:58 20,1 C 22,8 C 61 % 1020,8 hPa 0,0 l/m 0,6 km/h (0 Bft) W-SW 238 2 min 0,000 mm 3,9 UV-I 701 W/m 12,3 C 20,1 C 1,6 km/h (1 Bft) 100,00 %
11.06.2017 10:00 20,2 C 22,8 C 61 % 1020,7 hPa 0,0 l/m 2,1 km/h (1 Bft) O-NO 58 2 min 0,381 mm 4,0 UV-I 704 W/m 12,4 C 20,2 C 6,4 km/h (2 Bft) 98,00 %
11.06.2017 10:02 20,3 C 22,8 C 62 % 1020,7 hPa 0,0 l/m 2,0 km/h (1 Bft) N-NO 33 2 min 0,000 mm 4,0 UV-I 710 W/m 12,8 C 20,3 C 6,4 km/h (2 Bft) 94,74 %
11.06.2017 10:04 20,5 C 22,8 C 64 % 1020,7 hPa 0,0 l/m 3,2 km/h (1 Bft) O-NO 59 2 min 0,000 mm 4,1 UV-I 714 W/m 13,5 C 20,5 C 8,0 km/h (2 Bft) 97,87 %
11.06.2017 10:06 20,6 C 22,8 C 60 % 1020,8 hPa 0,0 l/m 5,6 km/h (1 Bft) O-NO 75 2 min 0,000 mm 4,1 UV-I 719 W/m 12,6 C 20,6 C 8,0 km/h (2 Bft) 100,00 %
11.06.2017 10:08 20,6 C 22,8 C 59 % 1020,7 hPa 0,0 l/m 4,6 km/h (1 Bft) O 82 2 min 0,000 mm 4,1 UV-I 723 W/m 12,3 C 20,6 C 6,4 km/h (2 Bft) 94,34 %
11.06.2017 10:10 20,5 C 22,8 C 60 % 1020,8 hPa 0,0 l/m 3,1 km/h (1 Bft) O-SO 111 2 min 0,000 mm 4,2 UV-I 728 W/m 12,5 C 20,5 C 6,4 km/h (2 Bft) 97,56 %
11.06.2017 10:12 20,6 C 22,8 C 61 % 1020,8 hPa 0,0 l/m 2,1 km/h (1 Bft) O-SO 111 2 min 0,000 mm 4,2 UV-I 734 W/m 12,8 C 20,6 C 4,8 km/h (1 Bft) 97,87 %
11.06.2017 10:14 20,8 C 22,8 C 61 % 1020,7 hPa 0,0 l/m 1,4 km/h (1 Bft) O-SO 111 2 min 0,000 mm 4,3 UV-I 737 W/m 13,0 C 20,8 C 3,2 km/h (1 Bft) 98,00 %
11.06.2017 10:16 21,0 C 22,8 C 60 % 1020,7 hPa 0,0 l/m 0,4 km/h (0 Bft) O-SO 108 2 min 0,000 mm 4,4 UV-I 740 W/m 12,9 C 21,0 C 1,6 km/h (1 Bft) 100,00 %
11.06.2017 10:18 21,1 C 22,8 C 58 % 1020,8 hPa 0,0 l/m 2,9 km/h (1 Bft) S-SW 202 2 min 0,000 mm 4,4 UV-I 743 W/m 12,5 C 21,1 C 4,8 km/h (1 Bft) 97,87 %
11.06.2017 10:20 21,1 C 22,8 C 59 % 1020,7 hPa 0,0 l/m 2,9 km/h (1 Bft) S-SW 198 2 min 0,000 mm 4,5 UV-I 749 W/m 12,8 C 21,1 C 4,8 km/h (1 Bft) 100,00 %
11.06.2017 10:22 21,0 C 23,3 C 60 % 1020,7 hPa 0,0 l/m 0,6 km/h (0 Bft) S-SW 198 2 min 0,000 mm 4,5 UV-I 753 W/m 12,9 C 21,0 C 1,6 km/h (1 Bft) 100,00 %
11.06.2017 10:24 21,1 C 22,8 C 61 % 1020,7 hPa 0,0 l/m 2,9 km/h (1 Bft) S 191 2 min 0,000 mm 4,6 UV-I 757 W/m 13,3 C 21,1 C 4,8 km/h (1 Bft) 97,87 %
11.06.2017 10:26 21,2 C 22,8 C 61 % 1020,7 hPa 0,0 l/m 2,4 km/h (1 Bft) O-NO 69 2 min 0,000 mm 4,6 UV-I 759 W/m 13,4 C 21,2 C 4,8 km/h (1 Bft) 98,21 %
11.06.2017 10:28 21,3 C 22,8 C 60 % 1020,7 hPa 0,0 l/m 0,8 km/h (0 Bft) O-NO 69 2 min 0,000 mm 4,7 UV-I 764 W/m 13,2 C 21,3 C 3,2 km/h (1 Bft) 100,00 %
11.06.2017 10:30 21,4 C 22,8 C 58 % 1020,7 hPa 0,0 l/m 1,5 km/h (1 Bft) O-NO 69 2 min 0,000 mm 4,8 UV-I 770 W/m 12,8 C 21,4 C 3,2 km/h (1 Bft) 96,00 %
11.06.2017 10:32 21,7 C 22,8 C 62 % 1020,7 hPa 0,0 l/m 1,3 km/h (1 Bft) O-NO 69 2 min 0,000 mm 4,8 UV-I 773 W/m 14,1 C 21,7 C 3,2 km/h (1 Bft) 100,00 %
11.06.2017 10:34 21,8 C 23,3 C 63 % 1020,7 hPa 0,0 l/m 2,0 km/h (1 Bft) NO 47 2 min 0,000 mm 4,8 UV-I 775 W/m 14,4 C 21,8 C 4,8 km/h (1 Bft) 98,11 %
11.06.2017 10:36 21,7 C 22,8 C 59 % 1020,7 hPa 0,0 l/m 2,5 km/h (1 Bft) NO 44 2 min 0,000 mm 4,9 UV-I 780 W/m 13,3 C 21,7 C 6,4 km/h (2 Bft) 100,00 %
11.06.2017 10:38 21,6 C 23,3 C 55 % 1020,7 hPa 0,0 l/m 2,6 km/h (1 Bft) NO 44 2 min 0,000 mm 5,0 UV-I 782 W/m 12,2 C 21,6 C 4,8 km/h (1 Bft) 100,00 %
11.06.2017 10:40 21,5 C 23,3 C 55 % 1020,7 hPa 0,0 l/m 4,1 km/h (1 Bft) O-NO 78 2 min 0,000 mm 5,0 UV-I 786 W/m 12,1 C 21,5 C 6,4 km/h (2 Bft) 100,00 %
11.06.2017 10:42 21,4 C 22,8 C 55 % 1020,7 hPa 0,0 l/m 5,8 km/h (2 Bft) O 96 2 min 0,000 mm 5,1 UV-I 791 W/m 12,0 C 21,4 C 8,0 km/h (2 Bft) 98,00 %
11.06.2017 10:44 21,3 C 23,3 C 55 % 1020,7 hPa 0,0 l/m 2,3 km/h (1 Bft) O-NO 62 2 min 0,000 mm 5,1 UV-I 796 W/m 11,9 C 21,3 C 4,8 km/h (1 Bft) 100,00 %
11.06.2017 10:46 21,5 C 23,3 C 59 % 1020,7 hPa 0,0 l/m 3,1 km/h (1 Bft) O-NO 59 2 min 0,000 mm 5,1 UV-I 798 W/m 13,1 C 21,5 C 6,4 km/h (2 Bft) 100,00 %
11.06.2017 10:48 21,7 C 23,3 C 56 % 1020,7 hPa 0,0 l/m 4,4 km/h (1 Bft) O-NO 59 2 min 0,000 mm 5,2 UV-I 803 W/m 12,5 C 21,7 C 8,0 km/h (2 Bft) 98,00 %
11.06.2017 10:50 21,7 C 23,3 C 55 % 1020,6 hPa 0,0 l/m 2,9 km/h (1 Bft) O-NO 58 2 min 0,000 mm 5,3 UV-I 806 W/m 12,3 C 21,7 C 4,8 km/h (1 Bft) 97,37 %
11.06.2017 10:52 21,8 C 23,3 C 59 % 1020,6 hPa 0,0 l/m 2,7 km/h (1 Bft) NO 36 2 min 0,000 mm 5,3 UV-I 810 W/m 13,4 C 21,8 C 6,4 km/h (2 Bft) 98,21 %
11.06.2017 10:54 21,8 C 23,3 C 58 % 1020,6 hPa 0,0 l/m 5,4 km/h (1 Bft) N-NO 28 2 min 0,000 mm 5,4 UV-I 811 W/m 13,2 C 21,8 C 9,7 km/h (2 Bft) 100,00 %
11.06.2017 10:56 22,0 C 23,3 C 60 % 1020,6 hPa 0,0 l/m 5,9 km/h (2 Bft) O-NO 61 2 min 0,000 mm 5,4 UV-I 816 W/m 13,9 C 22,0 C 9,7 km/h (2 Bft) 97,73 %
11.06.2017 10:58 21,8 C 23,3 C 53 % 1020,6 hPa 0,0 l/m 1,7 km/h (1 Bft) N-NW 341 2 min 0,000 mm 5,5 UV-I 819 W/m 11,8 C 21,8 C 3,2 km/h (1 Bft) 100,00 %
11.06.2017 11:00 21,9 C 23,3 C 57 % 1020,5 hPa 0,0 l/m 0,8 km/h (0 Bft) NO 39 2 min 0,000 mm 5,5 UV-I 821 W/m 13,0 C 21,9 C 3,2 km/h (1 Bft) 98,11 %
11.06.2017 11:02 22,1 C 23,3 C 57 % 1020,5 hPa 0,0 l/m 1,6 km/h (1 Bft) NO 39 2 min 0,458 mm 5,6 UV-I 825 W/m 13,2 C 22,1 C 3,2 km/h (1 Bft) 97,87 %
11.06.2017 11:04 22,0 C 23,3 C 53 % 1020,5 hPa 0,0 l/m 1,6 km/h (1 Bft) N-NO 33 2 min 0,000 mm 5,6 UV-I 826 W/m 12,0 C 22,0 C 3,2 km/h (1 Bft) 91,49 %
11.06.2017 11:06 22,1 C 23,3 C 56 % 1020,5 hPa 0,0 l/m 0,7 km/h (0 Bft) N-NO 20 2 min 0,000 mm 5,6 UV-I 829 W/m 12,9 C 22,1 C 3,2 km/h (1 Bft) 96,23 %
11.06.2017 11:08 22,1 C 23,3 C 54 % 1020,5 hPa 0,0 l/m 1,0 km/h (0 Bft) N-NW 340 2 min 0,000 mm 5,7 UV-I 833 W/m 12,3 C 22,1 C 3,2 km/h (1 Bft) 94,44 %
11.06.2017 11:10 22,1 C 23,3 C 54 % 1020,5 hPa 0,0 l/m 0,9 km/h (0 Bft) NW 322 2 min 0,000 mm 5,8 UV-I 838 W/m 12,3 C 22,1 C 3,2 km/h (1 Bft) 98,11 %
11.06.2017 11:12 22,1 C 23,3 C 53 % 1020,5 hPa 0,0 l/m 1,5 km/h (1 Bft) N-NO 24 2 min 0,000 mm 5,8 UV-I 840 W/m 12,1 C 22,1 C 8,0 km/h (2 Bft) 95,12 %
11.06.2017 11:14 22,1 C 23,3 C 53 % 1020,5 hPa 0,0 l/m 3,1 km/h (1 Bft) NW 312 2 min 0,000 mm 5,9 UV-I 845 W/m 12,1 C 22,1 C 6,4 km/h (2 Bft) 93,62 %
11.06.2017 11:16 22,1 C 23,3 C 55 % 1020,5 hPa 0,0 l/m 2,1 km/h (1 Bft) N-NO 18 2 min 0,000 mm 5,9 UV-I 848 W/m 12,6 C 22,1 C 4,8 km/h (1 Bft) 98,00 %
11.06.2017 11:18 22,4 C 23,3 C 57 % 1020,5 hPa 0,0 l/m 0,6 km/h (0 Bft) N 9 2 min 0,000 mm 5,9 UV-I 852 W/m 13,5 C 22,4 C 3,2 km/h (1 Bft) 94,00 %
11.06.2017 11:20 22,6 C 23,3 C 48 % 1020,5 hPa 0,0 l/m 1,7 km/h (1 Bft) N 9 2 min 0,000 mm 6,0 UV-I 853 W/m 11,0 C 22,6 C 4,8 km/h (1 Bft) 94,74 %
11.06.2017 11:22 22,6 C 23,3 C 53 % 1020,5 hPa 0,0 l/m 0,8 km/h (0 Bft) N 351 2 min 0,000 mm 6,1 UV-I 856 W/m 12,5 C 22,6 C 3,2 km/h (1 Bft) 96,00 %
11.06.2017 11:24 22,7 C 23,3 C 52 % 1020,4 hPa 0,0 l/m 1,1 km/h (1 Bft) NW 322 2 min 0,000 mm 6,1 UV-I 861 W/m 12,3 C 22,7 C 3,2 km/h (1 Bft) 98,00 %
11.06.2017 11:26 22,7 C 23,3 C 49 % 1020,4 hPa 0,0 l/m 2,1 km/h (1 Bft) W-NW 298 2 min 0,000 mm 6,1 UV-I 862 W/m 11,4 C 22,7 C 3,2 km/h (1 Bft) 98,00 %
11.06.2017 11:28 22,4 C 23,3 C 47 % 1020,4 hPa 0,0 l/m 0,8 km/h (0 Bft) W-NW 299 2 min 0,000 mm 6,2 UV-I 870 W/m 10,5 C 22,4 C 3,2 km/h (1 Bft) 93,62 %
11.06.2017 11:30 22,3 C 23,3 C 46 % 1020,4 hPa 0,0 l/m 3,6 km/h (1 Bft) O-NO 68 2 min 0,000 mm 6,3 UV-I 874 W/m 10,1 C 22,3 C 6,4 km/h (2 Bft) 97,87 %
11.06.2017 11:32 22,5 C 23,3 C 49 % 1020,4 hPa 0,0 l/m 7,2 km/h (2 Bft) O-NO 69 2 min 0,000 mm 6,3 UV-I 872 W/m 11,2 C 22,2 C 12,9 km/h (3 Bft) 98,00 %
11.06.2017 11:34 22,6 C 23,3 C 46 % 1020,3 hPa 0,0 l/m 4,7 km/h (1 Bft) O 81 2 min 0,000 mm 6,3 UV-I 874 W/m 10,4 C 22,6 C 9,7 km/h (2 Bft) 97,56 %
11.06.2017 11:36 22,6 C 23,3 C 46 % 1020,4 hPa 0,0 l/m 2,2 km/h (1 Bft) SW 230 2 min 0,000 mm 6,4 UV-I 876 W/m 10,4 C 22,6 C 6,4 km/h (2 Bft) 95,74 %
11.06.2017 11:38 22,5 C 23,3 C 44 % 1020,4 hPa 0,0 l/m 4,7 km/h (1 Bft) SW 220 2 min 0,000 mm 6,4 UV-I 878 W/m 9,6 C 22,5 C 8,0 km/h (2 Bft) 97,56 %
11.06.2017 11:40 22,3 C 23,3 C 45 % 1020,3 hPa 0,0 l/m 2,5 km/h (1 Bft) NO 53 2 min 0,000 mm 6,5 UV-I 881 W/m 9,8 C 22,3 C 6,4 km/h (2 Bft) 98,00 %
11.06.2017 11:42 22,7 C 23,3 C 48 % 1020,2 hPa 0,0 l/m 6,0 km/h (2 Bft) N-NO 31 2 min 0,000 mm 6,5 UV-I 881 W/m 11,1 C 22,7 C 9,7 km/h (2 Bft) 97,87 %
11.06.2017 11:44 22,9 C 23,3 C 47 % 1020,3 hPa 0,0 l/m 7,4 km/h (2 Bft) N-NO 26 2 min 0,000 mm 6,5 UV-I 884 W/m 11,0 C 22,6 C 12,9 km/h (3 Bft) 100,00 %
11.06.2017 11:46 22,9 C 23,3 C 50 % 1020,2 hPa 0,0 l/m 3,0 km/h (1 Bft) N-NO 33 2 min 0,000 mm 6,6 UV-I 887 W/m 11,9 C 22,9 C 12,9 km/h (3 Bft) 98,36 %
11.06.2017 11:48 23,1 C 23,3 C 50 % 1020,2 hPa 0,0 l/m 6,1 km/h (2 Bft) N-NO 13 2 min 0,000 mm 6,6 UV-I 889 W/m 12,1 C 23,1 C 12,9 km/h (3 Bft) 100,00 %
11.06.2017 11:50 23,0 C 23,3 C 50 % 1020,1 hPa 0,0 l/m 1,1 km/h (1 Bft) NO 34 2 min 0,000 mm 6,6 UV-I 889 W/m 12,0 C 23,0 C 4,8 km/h (1 Bft) 97,37 %
11.06.2017 11:52 23,1 C 23,3 C 46 % 1020,1 hPa 0,0 l/m 7,1 km/h (2 Bft) O-NO 57 2 min 0,000 mm 6,7 UV-I 894 W/m 10,8 C 22,9 C 11,3 km/h (2 Bft) 100,00 %
11.06.2017 11:54 23,1 C 23,3 C 45 % 1020,1 hPa 0,0 l/m 7,7 km/h (2 Bft) O-NO 76 2 min 0,000 mm 6,7 UV-I 896 W/m 10,5 C 22,7 C 11,3 km/h (2 Bft) 100,00 %
11.06.2017 11:56 22,9 C 23,3 C 44 % 1020,1 hPa 0,0 l/m 4,1 km/h (1 Bft) O-NO 65 2 min 0,000 mm 6,7 UV-I 897 W/m 10,0 C 22,9 C 9,7 km/h (2 Bft) 100,00 %
11.06.2017 11:58 22,9 C 23,3 C 45 % 1020,1 hPa 0,0 l/m 5,3 km/h (1 Bft) O-NO 68 2 min 0,000 mm 6,8 UV-I 901 W/m 10,3 C 22,9 C 11,3 km/h (2 Bft) 98,00 %
11.06.2017 12:00 22,8 C 23,3 C 45 % 1020,0 hPa 0,0 l/m 6,6 km/h (2 Bft) O-NO 62 2 min 0,558 mm 6,8 UV-I 903 W/m 10,2 C 22,7 C 9,7 km/h (2 Bft) 97,37 %
11.06.2017 12:02 22,8 C 23,3 C 45 % 1020,0 hPa 0,0 l/m 5,4 km/h (1 Bft) O-NO 65 2 min 0,000 mm 6,8 UV-I 906 W/m 10,2 C 22,8 C 8,0 km/h (2 Bft) 100,00 %
11.06.2017 12:04 23,0 C 23,3 C 48 % 1020,0 hPa 0,0 l/m 5,7 km/h (1 Bft) O-NO 65 2 min 0,000 mm 6,9 UV-I 905 W/m 11,4 C 23,0 C 12,9 km/h (3 Bft) 100,00 %
11.06.2017 12:06 23,2 C 23,3 C 46 % 1020,0 hPa 0,0 l/m 7,4 km/h (2 Bft) O-NO 67 2 min 0,000 mm 6,9 UV-I 908 W/m 10,9 C 22,9 C 11,3 km/h (2 Bft) 100,00 %
11.06.2017 12:08 23,2 C 23,3 C 46 % 1019,9 hPa 0,0 l/m 6,7 km/h (2 Bft) O 99 2 min 0,000 mm 6,9 UV-I 907 W/m 10,9 C 23,1 C 9,7 km/h (2 Bft) 100,00 %
11.06.2017 12:10 23,2 C 23,3 C 45 % 1019,9 hPa 0,0 l/m 6,2 km/h (2 Bft) O-NO 76 2 min 0,000 mm 6,8 UV-I 906 W/m 10,6 C 23,2 C 11,3 km/h (2 Bft) 100,00 %
11.06.2017 12:12 23,0 C 23,3 C 44 % 1019,9 hPa 0,0 l/m 4,7 km/h (1 Bft) O-SO 103 2 min 0,000 mm 6,9 UV-I 909 W/m 10,1 C 23,0 C 9,7 km/h (2 Bft) 97,73 %
11.06.2017 12:14 23,0 C 23,3 C 48 % 1019,9 hPa 0,0 l/m 3,4 km/h (1 Bft) O 91 2 min 0,000 mm 6,9 UV-I 912 W/m 11,4 C 23,0 C 11,3 km/h (2 Bft) 95,74 %
11.06.2017 12:16 23,1 C 23,3 C 44 % 1019,9 hPa 0,0 l/m 1,9 km/h (1 Bft) O-SO 103 2 min 0,000 mm 6,9 UV-I 911 W/m 10,2 C 23,1 C 4,8 km/h (1 Bft) 97,87 %
11.06.2017 12:18 23,2 C 23,3 C 47 % 1019,8 hPa 0,0 l/m 4,9 km/h (1 Bft) N 9 2 min 0,000 mm 6,9 UV-I 910 W/m 11,3 C 23,2 C 11,3 km/h (2 Bft) 98,00 %
11.06.2017 12:20 23,3 C 23,3 C 52 % 1019,8 hPa 0,0 l/m 6,9 km/h (2 Bft) N-NO 15 2 min 0,000 mm 7,0 UV-I 910 W/m 12,9 C 23,1 C 14,5 km/h (3 Bft) 97,56 %
11.06.2017 12:22 23,2 C 23,3 C 46 % 1019,8 hPa 0,0 l/m 1,8 km/h (1 Bft) N 350 2 min 0,000 mm 6,9 UV-I 909 W/m 10,9 C 23,2 C 4,8 km/h (1 Bft) 98,00 %
11.06.2017 12:24 23,2 C 23,3 C 46 % 1019,7 hPa 0,0 l/m 2,7 km/h (1 Bft) NO 42 2 min 0,000 mm 7,0 UV-I 911 W/m 10,9 C 23,2 C 8,0 km/h (2 Bft) 98,11 %
11.06.2017 12:26 23,3 C 23,3 C 53 % 1019,7 hPa 0,0 l/m 2,7 km/h (1 Bft) N-NW 340 2 min 0,000 mm 7,0 UV-I 914 W/m 13,2 C 23,3 C 6,4 km/h (2 Bft) 97,44 %
11.06.2017 12:28 23,6 C 23,3 C 54 % 1019,7 hPa 0,0 l/m 6,3 km/h (2 Bft) N-NO 24 2 min 0,000 mm 7,1 UV-I 916 W/m 13,7 C 23,6 C 16,1 km/h (3 Bft) 94,55 %
11.06.2017 12:30 23,8 C 23,3 C 49 % 1019,6 hPa 0,0 l/m 8,8 km/h (2 Bft) N-NO 21 2 min 0,000 mm 7,1 UV-I 920 W/m 12,4 C 23,1 C 12,9 km/h (3 Bft) 94,44 %
11.06.2017 12:32 23,7 C 23,3 C 47 % 1019,7 hPa 0,0 l/m 4,3 km/h (1 Bft) NO 36 2 min 0,000 mm 7,1 UV-I 921 W/m 11,7 C 23,7 C 6,4 km/h (2 Bft) 96,23 %
11.06.2017 12:34 23,4 C 23,3 C 45 % 1019,6 hPa 0,0 l/m 4,8 km/h (1 Bft) SO 126 2 min 0,000 mm 7,2 UV-I 924 W/m 10,8 C 23,4 C 8,0 km/h (2 Bft) 98,00 %
11.06.2017 12:36 23,4 C 23,3 C 50 % 1019,6 hPa 0,0 l/m 6,8 km/h (2 Bft) O-NO 57 2 min 0,000 mm 7,2 UV-I 923 W/m 12,4 C 23,3 C 11,3 km/h (2 Bft) 97,56 %
11.06.2017 12:38 23,6 C 23,3 C 46 % 1019,6 hPa 0,0 l/m 6,2 km/h (2 Bft) N-NO 29 2 min 0,000 mm 7,2 UV-I 924 W/m 11,3 C 23,6 C 9,7 km/h (2 Bft) 97,73 %
11.06.2017 12:40 23,8 C 23,3 C 47 % 1019,6 hPa 0,0 l/m 4,4 km/h (1 Bft) O-NO 65 2 min 0,000 mm 7,2 UV-I 925 W/m 11,8 C 23,8 C 6,4 km/h (2 Bft) 98,11 %
11.06.2017 12:42 23,9 C 23,3 C 41 % 1019,5 hPa 0,0 l/m 4,1 km/h (1 Bft) O-NO 70 2 min 0,000 mm 7,2 UV-I 926 W/m 9,8 C 23,9 C 9,7 km/h (2 Bft) 97,56 %
11.06.2017 12:44 23,8 C 23,3 C 42 % 1019,5 hPa 0,0 l/m 7,6 km/h (2 Bft) O-SO 108 2 min 0,000 mm 7,2 UV-I 928 W/m 10,1 C 23,5 C 14,5 km/h (3 Bft) 98,00 %
11.06.2017 12:46 23,8 C 23,3 C 40 % 1019,5 hPa 0,0 l/m 8,0 km/h (2 Bft) O 85 2 min 0,000 mm 7,2 UV-I 930 W/m 9,4 C 23,3 C 14,5 km/h (3 Bft) 97,73 %
11.06.2017 12:48 23,7 C 23,3 C 43 % 1019,5 hPa 0,0 l/m 6,1 km/h (2 Bft) NO 42 2 min 0,000 mm 7,2 UV-I 930 W/m 10,4 C 23,7 C 9,7 km/h (2 Bft) 98,11 %
11.06.2017 12:50 23,6 C 23,9 C 43 % 1019,5 hPa 0,0 l/m 1,2 km/h (1 Bft) NO 42 2 min 0,000 mm 7,3 UV-I 931 W/m 10,3 C 23,6 C 3,2 km/h (1 Bft) 97,56 %
11.06.2017 12:52 23,6 C 23,9 C 45 % 1019,4 hPa 0,0 l/m 4,0 km/h (1 Bft) O-NO 75 2 min 0,000 mm 7,3 UV-I 930 W/m 11,0 C 23,6 C 8,0 km/h (2 Bft) 96,23 %
11.06.2017 12:54 23,8 C 23,9 C 45 % 1019,5 hPa 0,0 l/m 5,6 km/h (1 Bft) O-NO 71 2 min 0,000 mm 7,3 UV-I 930 W/m 11,1 C 23,8 C 9,7 km/h (2 Bft) 94,74 %
11.06.2017 12:56 24,0 C 23,9 C 45 % 1019,4 hPa 0,0 l/m 4,8 km/h (1 Bft) NO 34 2 min 0,000 mm 7,3 UV-I 930 W/m 11,3 C 24,0 C 9,7 km/h (2 Bft) 94,00 %
11.06.2017 12:58 24,2 C 23,9 C 49 % 1019,4 hPa 0,0 l/m 6,5 km/h (2 Bft) N-NO 22 2 min 0,000 mm 7,3 UV-I 927 W/m 12,8 C 24,2 C 12,9 km/h (3 Bft) 93,62 %
11.06.2017 13:00 24,0 C 23,9 C 45 % 1019,4 hPa 0,0 l/m 9,8 km/h (2 Bft) NO 42 2 min 0,610 mm 7,3 UV-I 927 W/m 11,3 C 23,1 C 14,5 km/h (3 Bft) 94,34 %
11.06.2017 13:02 23,9 C 23,9 C 49 % 1019,3 hPa 0,0 l/m 7,6 km/h (2 Bft) NO 55 2 min 0,000 mm 7,2 UV-I 926 W/m 12,5 C 23,6 C 11,3 km/h (2 Bft) 89,74 %
11.06.2017 13:04 24,0 C 23,9 C 44 % 1019,3 hPa 0,0 l/m 7,7 km/h (2 Bft) N 11 2 min 0,000 mm 7,2 UV-I 921 W/m 11,0 C 23,6 C 11,3 km/h (2 Bft) 94,00 %
11.06.2017 13:06 23,8 C 23,9 C 44 % 1019,4 hPa 0,0 l/m 4,2 km/h (1 Bft) N-NO 19 2 min 0,000 mm 7,2 UV-I 925 W/m 10,8 C 23,8 C 8,0 km/h (2 Bft) 94,00 %
11.06.2017 13:08 23,8 C 23,9 C 47 % 1019,3 hPa 0,0 l/m 1,2 km/h (1 Bft) N-NO 12 2 min 0,000 mm 7,2 UV-I 923 W/m 11,8 C 23,8 C 4,8 km/h (1 Bft) 96,00 %
11.06.2017 13:10 23,8 C 23,9 C 49 % 1019,3 hPa 0,0 l/m 1,5 km/h (1 Bft) N 355 2 min 0,000 mm 7,3 UV-I 927 W/m 12,4 C 23,8 C 4,8 km/h (1 Bft) 94,74 %
11.06.2017 13:12 23,8 C 23,9 C 44 % 1019,3 hPa 0,0 l/m 3,0 km/h (1 Bft) W-NW 288 2 min 0,000 mm 7,2 UV-I 927 W/m 10,8 C 23,8 C 11,3 km/h (2 Bft) 96,00 %
11.06.2017 13:14 23,8 C 23,9 C 43 % 1019,3 hPa 0,0 l/m 3,2 km/h (1 Bft) N 10 2 min 0,000 mm 7,3 UV-I 927 W/m 10,5 C 23,8 C 6,4 km/h (2 Bft) 96,00 %
11.06.2017 13:16 23,6 C 23,9 C 40 % 1019,2 hPa 0,0 l/m 1,7 km/h (1 Bft) N 5 2 min 0,000 mm 7,3 UV-I 929 W/m 9,2 C 23,6 C 4,8 km/h (1 Bft) 91,49 %
11.06.2017 13:18 23,8 C 23,9 C 49 % 1019,3 hPa 0,0 l/m 5,6 km/h (1 Bft) N-NO 12 2 min 0,000 mm 7,3 UV-I 930 W/m 12,4 C 23,8 C 9,7 km/h (2 Bft) 97,87 %
11.06.2017 13:20 24,2 C 23,9 C 46 % 1019,2 hPa 0,0 l/m 6,9 km/h (2 Bft) N 11 2 min 0,000 mm 7,3 UV-I 932 W/m 11,8 C 24,1 C 14,5 km/h (3 Bft) 100,00 %
11.06.2017 13:22 24,3 C 23,9 C 45 % 1019,1 hPa 0,0 l/m 7,3 km/h (2 Bft) O-NO 58 2 min 0,000 mm 7,3 UV-I 930 W/m 11,6 C 24,1 C 14,5 km/h (3 Bft) 97,73 %
11.06.2017 13:24 24,3 C 23,9 C 40 % 1019,1 hPa 0,0 l/m 7,8 km/h (2 Bft) O-NO 58 2 min 0,000 mm 7,2 UV-I 921 W/m 9,8 C 23,9 C 9,7 km/h (2 Bft) 97,73 %
11.06.2017 13:26 24,2 C 23,9 C 41 % 1019,1 hPa 0,0 l/m 6,1 km/h (2 Bft) N-NO 24 2 min 0,000 mm 7,2 UV-I 916 W/m 10,1 C 24,2 C 11,3 km/h (2 Bft) 96,23 %
11.06.2017 13:28 24,3 C 23,9 C 46 % 1019,1 hPa 0,0 l/m 5,8 km/h (2 Bft) NO 38 2 min 0,000 mm 7,2 UV-I 927 W/m 11,9 C 24,3 C 12,9 km/h (3 Bft) 100,00 %
11.06.2017 13:30 24,3 C 23,9 C 43 % 1019,1 hPa 0,0 l/m 5,6 km/h (1 Bft) NO 38 2 min 0,000 mm 7,2 UV-I 925 W/m 10,9 C 24,3 C 9,7 km/h (2 Bft) 100,00 %
11.06.2017 13:32 24,4 C 23,9 C 42 % 1019,1 hPa 0,0 l/m 9,3 km/h (2 Bft) NO 42 2 min 0,000 mm 7,2 UV-I 922 W/m 10,6 C 23,7 C 12,9 km/h (3 Bft) 96,43 %
11.06.2017 13:34 24,4 C 23,9 C 41 % 1019,1 hPa 0,0 l/m 9,8 km/h (2 Bft) N-NO 19 2 min 0,000 mm 7,1 UV-I 920 W/m 10,3 C 23,5 C 16,1 km/h (3 Bft) 97,14 %
11.06.2017 13:36 24,2 C 23,9 C 40 % 1019,0 hPa 0,0 l/m 4,8 km/h (1 Bft) N-NO 26 2 min 0,000 mm 7,1 UV-I 928 W/m 9,7 C 24,2 C 9,7 km/h (2 Bft) 100,00 %
11.06.2017 13:38 24,2 C 23,9 C 46 % 1019,0 hPa 0,0 l/m 3,5 km/h (1 Bft) N 355 2 min 0,000 mm 7,1 UV-I 907 W/m 11,8 C 24,2 C 9,7 km/h (2 Bft) 100,00 %
11.06.2017 13:40 24,1 C 23,9 C 39 % 1018,9 hPa 0,0 l/m 3,7 km/h (1 Bft) N 5 2 min 0,000 mm 7,2 UV-I 924 W/m 9,3 C 24,1 C 8,0 km/h (2 Bft) 100,00 %
11.06.2017 13:42 24,1 C 23,9 C 44 % 1019,0 hPa 0,0 l/m 4,1 km/h (1 Bft) N-NO 26 2 min 0,000 mm 7,1 UV-I 928 W/m 11,1 C 24,1 C 9,7 km/h (2 Bft) 98,18 %
11.06.2017 13:44 24,2 C 23,9 C 41 % 1018,9 hPa 0,0 l/m 6,4 km/h (2 Bft) N-NO 23 2 min 0,000 mm 7,1 UV-I 927 W/m 10,1 C 24,2 C 9,7 km/h (2 Bft) 98,00 %
11.06.2017 13:46 24,1 C 23,9 C 40 % 1018,9 hPa 0,0 l/m 4,9 km/h (1 Bft) N-NO 17 2 min 0,000 mm 7,1 UV-I 926 W/m 9,6 C 24,1 C 11,3 km/h (2 Bft) 100,00 %
11.06.2017 13:48 23,9 C 23,9 C 38 % 1018,8 hPa 0,0 l/m 1,2 km/h (1 Bft) NO 37 2 min 0,000 mm 7,0 UV-I 919 W/m 8,7 C 23,9 C 3,2 km/h (1 Bft) 97,87 %
11.06.2017 13:50 23,8 C 23,9 C 42 % 1018,8 hPa 0,0 l/m 4,4 km/h (1 Bft) N 10 2 min 0,000 mm 7,0 UV-I 922 W/m 10,1 C 23,8 C 8,0 km/h (2 Bft) 100,00 %
11.06.2017 13:52 23,9 C 23,9 C 38 % 1018,9 hPa 0,0 l/m 2,6 km/h (1 Bft) N-NO 14 2 min 0,000 mm 7,0 UV-I 916 W/m 8,7 C 23,9 C 4,8 km/h (1 Bft) 96,43 %
11.06.2017 13:54 24,0 C 23,9 C 37 % 1018,8 hPa 0,0 l/m 2,2 km/h (1 Bft) N-NW 328 2 min 0,000 mm 7,0 UV-I 911 W/m 8,4 C 24,0 C 4,8 km/h (1 Bft) 97,56 %
11.06.2017 13:56 24,1 C 23,9 C 40 % 1018,8 hPa 0,0 l/m 2,7 km/h (1 Bft) N-NW 337 2 min 0,000 mm 6,7 UV-I 860 W/m 9,6 C 24,1 C 4,8 km/h (1 Bft) 100,00 %
11.06.2017 13:58 24,1 C 23,9 C 42 % 1018,7 hPa 0,0 l/m 4,1 km/h (1 Bft) NW 311 2 min 0,000 mm 6,8 UV-I 899 W/m 10,4 C 24,1 C 11,3 km/h (2 Bft) 97,73 %
11.06.2017 14:00 24,2 C 23,9 C 42 % 1018,7 hPa 0,0 l/m 5,5 km/h (1 Bft) N-NO 26 2 min 0,000 mm 6,8 UV-I 887 W/m 10,5 C 24,2 C 11,3 km/h (2 Bft) 97,92 %
11.06.2017 14:02 24,2 C 23,9 C 45 % 1018,7 hPa 0,0 l/m 3,1 km/h (1 Bft) N-NW 347 2 min 0,610 mm 6,6 UV-I 851 W/m 11,5 C 24,2 C 6,4 km/h (2 Bft) 96,23 %
11.06.2017 14:04 24,3 C 23,9 C 46 % 1018,7 hPa 0,0 l/m 1,7 km/h (1 Bft) N-NW 328 2 min 0,000 mm 6,7 UV-I 882 W/m 11,9 C 24,3 C 3,2 km/h (1 Bft) 100,00 %
11.06.2017 14:06 24,4 C 23,9 C 42 % 1018,7 hPa 0,0 l/m 2,1 km/h (1 Bft) N-NO 22 2 min 0,000 mm 6,8 UV-I 919 W/m 10,6 C 24,4 C 4,8 km/h (1 Bft) 100,00 %
11.06.2017 14:08 24,4 C 23,9 C 37 % 1018,6 hPa 0,0 l/m 2,5 km/h (1 Bft) NW 317 2 min 0,000 mm 6,8 UV-I 906 W/m 8,8 C 24,4 C 8,0 km/h (2 Bft) 100,00 %
11.06.2017 14:10 24,5 C 23,9 C 39 % 1018,7 hPa 0,0 l/m 1,9 km/h (1 Bft) NW 311 2 min 0,000 mm 6,6 UV-I 875 W/m 9,6 C 24,5 C 4,8 km/h (1 Bft) 100,00 %
11.06.2017 14:12 24,5 C 23,9 C 40 % 1018,7 hPa 0,0 l/m 2,4 km/h (1 Bft) W-NW 303 2 min 0,000 mm 6,1 UV-I 821 W/m 10,0 C 24,5 C 4,8 km/h (1 Bft) 100,00 %
11.06.2017 14:14 24,4 C 23,9 C 42 % 1018,6 hPa 0,0 l/m 3,2 km/h (1 Bft) N-NW 346 2 min 0,000 mm 6,1 UV-I 846 W/m 10,6 C 24,4 C 8,0 km/h (2 Bft) 100,00 %
11.06.2017 14:16 24,3 C 23,9 C 39 % 1018,6 hPa 0,0 l/m 1,7 km/h (1 Bft) W-NW 294 2 min 0,000 mm 6,5 UV-I 899 W/m 9,4 C 24,3 C 4,8 km/h (1 Bft) 100,00 %
11.06.2017 14:18 24,4 C 23,9 C 37 % 1018,5 hPa 0,0 l/m 3,8 km/h (1 Bft) W-NW 282 2 min 0,000 mm 6,7 UV-I 907 W/m 8,8 C 24,4 C 6,4 km/h (2 Bft) 100,00 %
11.06.2017 14:20 24,4 C 23,9 C 39 % 1018,5 hPa 0,0 l/m 3,1 km/h (1 Bft) W 263 2 min 0,000 mm 6,5 UV-I 890 W/m 9,5 C 24,4 C 6,4 km/h (2 Bft) 98,08 %
11.06.2017 14:22 24,6 C 23,9 C 41 % 1018,5 hPa 0,0 l/m 2,1 km/h (1 Bft) N 5 2 min 0,000 mm 6,4 UV-I 860 W/m 10,5 C 24,6 C 4,8 km/h (1 Bft) 100,00 %
11.06.2017 14:24 24,9 C 23,9 C 36 % 1018,5 hPa 0,0 l/m 0,6 km/h (0 Bft) N 5 2 min 0,000 mm 6,4 UV-I 868 W/m 8,8 C 24,9 C 1,6 km/h (1 Bft) 100,00 %
11.06.2017 14:26 24,8 C 24,4 C 38 % 1018,4 hPa 0,0 l/m 0,6 km/h (0 Bft) N 11 2 min 0,000 mm 6,4 UV-I 876 W/m 9,5 C 24,8 C 3,2 km/h (1 Bft) 100,00 %
11.06.2017 14:28 24,9 C 24,4 C 43 % 1018,4 hPa 0,0 l/m 1,6 km/h (1 Bft) O-NO 69 2 min 0,000 mm 6,4 UV-I 893 W/m 11,4 C 24,9 C 8,0 km/h (2 Bft) 100,00 %
11.06.2017 14:30 25,1 C 24,4 C 37 % 1018,4 hPa 0,0 l/m 6,8 km/h (2 Bft) O-NO 75 2 min 0,000 mm 6,1 UV-I 744 W/m 9,4 C 25,0 C 11,3 km/h (2 Bft) 100,00 %
11.06.2017 14:32 25,1 C 24,4 C 38 % 1018,3 hPa 0,0 l/m 8,0 km/h (2 Bft) NO 39 2 min 0,000 mm 6,4 UV-I 881 W/m 9,8 C 24,7 C 11,3 km/h (2 Bft) 100,00 %
11.06.2017 14:34 25,2 C 24,4 C 41 % 1018,3 hPa 0,0 l/m 2,3 km/h (1 Bft) N 9 2 min 0,000 mm 6,4 UV-I 881 W/m 11,0 C 25,2 C 9,7 km/h (2 Bft) 100,00 %
11.06.2017 14:36 25,2 C 24,4 C 42 % 1018,3 hPa 0,0 l/m 2,2 km/h (1 Bft) N-NO 17 2 min 0,000 mm 6,3 UV-I 878 W/m 11,4 C 25,2 C 8,0 km/h (2 Bft) 96,23 %
11.06.2017 14:38 25,1 C 24,4 C 39 % 1018,3 hPa 0,0 l/m 6,7 km/h (2 Bft) N 5 2 min 0,000 mm 6,3 UV-I 873 W/m 10,2 C 25,0 C 12,9 km/h (3 Bft) 100,00 %
11.06.2017 14:40 24,7 C 24,4 C 37 % 1018,2 hPa 0,0 l/m 2,6 km/h (1 Bft) NW 325 2 min 0,000 mm 6,2 UV-I 860 W/m 9,0 C 24,7 C 6,4 km/h (2 Bft) 100,00 %
11.06.2017 14:42 24,7 C 24,4 C 38 % 1018,3 hPa 0,0 l/m 2,3 km/h (1 Bft) NW 324 2 min 0,000 mm 6,2 UV-I 859 W/m 9,4 C 24,7 C 6,4 km/h (2 Bft) 98,00 %
11.06.2017 14:44 24,7 C 24,4 C 42 % 1018,2 hPa 0,0 l/m 2,1 km/h (1 Bft) NW 321 2 min 0,000 mm 6,1 UV-I 859 W/m 10,9 C 24,7 C 4,8 km/h (1 Bft) 100,00 %
11.06.2017 14:46 24,6 C 24,4 C 44 % 1018,2 hPa 0,0 l/m 0,3 km/h (0 Bft) NW 322 2 min 0,000 mm 6,1 UV-I 858 W/m 11,5 C 24,6 C 3,2 km/h (1 Bft) 94,00 %
11.06.2017 14:48 24,8 C 24,4 C 41 % 1018,2 hPa 0,0 l/m 4,6 km/h (1 Bft) N-NW 329 2 min 0,000 mm 6,1 UV-I 844 W/m 10,6 C 24,8 C 9,7 km/h (2 Bft) 98,00 %
11.06.2017 14:50 24,8 C 24,4 C 37 % 1018,2 hPa 0,0 l/m 2,8 km/h (1 Bft) N-NO 14 2 min 0,000 mm 6,0 UV-I 850 W/m 9,1 C 24,8 C 4,8 km/h (1 Bft) 97,56 %
11.06.2017 14:52 24,9 C 24,4 C 40 % 1018,1 hPa 0,0 l/m 3,0 km/h (1 Bft) NW 320 2 min 0,000 mm 6,0 UV-I 848 W/m 10,4 C 24,9 C 9,7 km/h (2 Bft) 94,34 %
11.06.2017 14:54 24,8 C 24,4 C 42 % 1018,1 hPa 0,0 l/m 0,7 km/h (0 Bft) W-NW 294 2 min 0,000 mm 5,9 UV-I 846 W/m 11,0 C 24,8 C 4,8 km/h (1 Bft) 97,56 %
11.06.2017 14:56 25,1 C 24,4 C 42 % 1018,1 hPa 0,0 l/m 3,2 km/h (1 Bft) N-NW 329 2 min 0,000 mm 5,9 UV-I 845 W/m 11,3 C 25,1 C 6,4 km/h (2 Bft) 96,00 %
11.06.2017 14:58 25,1 C 24,4 C 38 % 1018,0 hPa 0,0 l/m 1,9 km/h (1 Bft) NW 326 2 min 0,000 mm 5,9 UV-I 843 W/m 9,8 C 25,1 C 4,8 km/h (1 Bft) 97,62 %
11.06.2017 15:00 25,1 C 24,4 C 39 % 1017,9 hPa 0,0 l/m 3,1 km/h (1 Bft) NW 319 2 min 0,558 mm 5,8 UV-I 831 W/m 10,2 C 25,1 C 8,0 km/h (2 Bft) 96,15 %
11.06.2017 15:02 25,1 C 24,4 C 39 % 1017,9 hPa 0,0 l/m 2,4 km/h (1 Bft) N-NW 343 2 min 0,000 mm 5,8 UV-I 820 W/m 10,2 C 25,1 C 6,4 km/h (2 Bft) 97,44 %
11.06.2017 15:04 25,1 C 24,4 C 42 % 1017,9 hPa 0,0 l/m 2,9 km/h (1 Bft) N-NO 17 2 min 0,000 mm 5,8 UV-I 837 W/m 11,3 C 25,1 C 6,4 km/h (2 Bft) 94,34 %
11.06.2017 15:06 25,1 C 24,4 C 39 % 1017,9 hPa 0,0 l/m 4,7 km/h (1 Bft) NO 44 2 min 0,000 mm 5,7 UV-I 834 W/m 10,2 C 25,1 C 6,4 km/h (2 Bft) 96,00 %
11.06.2017 15:08 25,2 C 24,4 C 43 % 1017,8 hPa 0,0 l/m 6,1 km/h (2 Bft) N-NO 26 2 min 0,000 mm 5,7 UV-I 830 W/m 11,7 C 25,2 C 9,7 km/h (2 Bft) 95,74 %
11.06.2017 15:10 25,4 C 24,4 C 40 % 1017,8 hPa 0,0 l/m 6,1 km/h (2 Bft) NO 55 2 min 0,000 mm 5,6 UV-I 826 W/m 10,8 C 25,4 C 11,3 km/h (2 Bft) 100,00 %
11.06.2017 15:12 25,3 C 24,4 C 38 % 1017,8 hPa 0,0 l/m 5,2 km/h (1 Bft) N-NO 28 2 min 0,000 mm 5,5 UV-I 797 W/m 9,9 C 25,3 C 8,0 km/h (2 Bft) 100,00 %
11.06.2017 15:14 25,3 C 24,4 C 40 % 1017,8 hPa 0,0 l/m 3,4 km/h (1 Bft) N-NO 25 2 min 0,000 mm 5,4 UV-I 793 W/m 10,7 C 25,3 C 8,0 km/h (2 Bft) 100,00 %
11.06.2017 15:16 25,2 C 24,4 C 37 % 1017,8 hPa 0,0 l/m 7,2 km/h (2 Bft) NO 51 2 min 0,000 mm 5,4 UV-I 809 W/m 9,5 C 25,0 C 9,7 km/h (2 Bft) 100,00 %
11.06.2017 15:18 25,4 C 24,4 C 40 % 1017,8 hPa 0,0 l/m 4,4 km/h (1 Bft) N 5 2 min 0,000 mm 5,4 UV-I 814 W/m 10,8 C 25,4 C 8,0 km/h (2 Bft) 97,56 %
11.06.2017 15:20 25,3 C 24,4 C 37 % 1017,7 hPa 0,0 l/m 4,9 km/h (1 Bft) NW 323 2 min 0,000 mm 5,3 UV-I 803 W/m 9,6 C 25,3 C 12,9 km/h (3 Bft) 100,00 %
11.06.2017 15:22 25,3 C 24,4 C 41 % 1017,7 hPa 0,0 l/m 7,2 km/h (2 Bft) N-NW 340 2 min 0,000 mm 5,2 UV-I 788 W/m 11,1 C 25,1 C 11,3 km/h (2 Bft) 96,00 %
11.06.2017 15:24 25,2 C 24,4 C 38 % 1017,7 hPa 0,0 l/m 7,2 km/h (2 Bft) NO 37 2 min 0,000 mm 5,2 UV-I 794 W/m 9,9 C 25,0 C 14,5 km/h (3 Bft) 98,00 %
11.06.2017 15:26 25,1 C 24,4 C 40 % 1017,6 hPa 0,0 l/m 6,7 km/h (2 Bft) N-NO 26 2 min 0,000 mm 5,2 UV-I 793 W/m 10,5 C 25,0 C 11,3 km/h (2 Bft) 97,73 %
11.06.2017 15:28 25,2 C 24,4 C 43 % 1017,6 hPa 0,0 l/m 8,9 km/h (2 Bft) N-NO 22 2 min 0,000 mm 5,1 UV-I 788 W/m 11,7 C 24,6 C 12,9 km/h (3 Bft) 97,14 %
11.06.2017 15:30 25,3 C 24,4 C 41 % 1017,6 hPa 0,0 l/m 1,8 km/h (1 Bft) N-NO 30 2 min 0,000 mm 5,1 UV-I 786 W/m 11,1 C 25,3 C 4,8 km/h (1 Bft) 98,36 %
11.06.2017 15:32 25,4 C 24,4 C 38 % 1017,6 hPa 0,0 l/m 4,1 km/h (1 Bft) O-NO 63 2 min 0,000 mm 5,0 UV-I 781 W/m 10,0 C 25,4 C 8,0 km/h (2 Bft) 100,00 %
11.06.2017 15:34 25,6 C 24,4 C 40 % 1017,5 hPa 0,0 l/m 8,6 km/h (2 Bft) NO 40 2 min 0,000 mm 5,0 UV-I 776 W/m 11,0 C 25,1 C 14,5 km/h (3 Bft) 100,00 %
11.06.2017 15:36 25,7 C 24,4 C 38 % 1017,4 hPa 0,0 l/m 6,5 km/h (2 Bft) NO 40 2 min 0,000 mm 4,9 UV-I 771 W/m 10,3 C 25,7 C 9,7 km/h (2 Bft) 100,00 %
11.06.2017 15:38 25,7 C 24,4 C 37 % 1017,5 hPa 0,0 l/m 5,0 km/h (1 Bft) O-NO 69 2 min 0,000 mm 4,9 UV-I 765 W/m 9,9 C 25,7 C 8,0 km/h (2 Bft) 97,87 %
11.06.2017 15:40 25,6 C 24,4 C 37 % 1017,4 hPa 0,0 l/m 2,3 km/h (1 Bft) NO 51 2 min 0,000 mm 4,8 UV-I 760 W/m 9,8 C 25,6 C 6,4 km/h (2 Bft) 100,00 %
11.06.2017 15:42 25,7 C 24,4 C 39 % 1017,4 hPa 0,0 l/m 9,2 km/h (2 Bft) O-NO 61 2 min 0,000 mm 4,7 UV-I 754 W/m 10,7 C 25,1 C 14,5 km/h (3 Bft) 100,00 %
11.06.2017 15:44 25,7 C 24,4 C 36 % 1017,4 hPa 0,0 l/m 7,4 km/h (2 Bft) NO 54 2 min 0,000 mm 4,7 UV-I 751 W/m 9,5 C 25,5 C 14,5 km/h (3 Bft) 100,00 %
11.06.2017 15:46 25,8 C 24,4 C 39 % 1017,3 hPa 0,0 l/m 8,4 km/h (2 Bft) NO 51 2 min 0,000 mm 4,6 UV-I 746 W/m 10,8 C 25,4 C 16,1 km/h (3 Bft) 100,00 %
11.06.2017 15:48 25,7 C 24,4 C 42 % 1017,3 hPa 0,0 l/m 7,0 km/h (2 Bft) N 11 2 min 0,000 mm 4,5 UV-I 743 W/m 11,8 C 25,6 C 14,5 km/h (3 Bft) 100,00 %
11.06.2017 15:50 25,6 C 24,4 C 44 % 1017,3 hPa 0,0 l/m 2,3 km/h (1 Bft) NO 41 2 min 0,000 mm 4,5 UV-I 739 W/m 12,4 C 25,6 C 8,0 km/h (2 Bft) 97,73 %
11.06.2017 15:52 25,9 C 24,4 C 39 % 1017,3 hPa 0,0 l/m 4,8 km/h (1 Bft) O-SO 115 2 min 0,000 mm 4,5 UV-I 733 W/m 10,9 C 25,9 C 8,0 km/h (2 Bft) 98,00 %
11.06.2017 15:54 25,9 C 24,4 C 36 % 1017,3 hPa 0,0 l/m 5,1 km/h (1 Bft) NO 41 2 min 0,000 mm 4,4 UV-I 729 W/m 9,7 C 25,9 C 9,7 km/h (2 Bft) 96,23 %
11.06.2017 15:56 25,9 C 24,4 C 38 % 1017,3 hPa 0,0 l/m 7,2 km/h (2 Bft) NO 51 2 min 0,000 mm 4,3 UV-I 724 W/m 10,5 C 25,7 C 11,3 km/h (2 Bft) 97,37 %
11.06.2017 15:58 25,9 C 24,4 C 39 % 1017,3 hPa 0,0 l/m 3,9 km/h (1 Bft) O 96 2 min 0,000 mm 4,3 UV-I 722 W/m 10,9 C 25,9 C 4,8 km/h (1 Bft) 98,11 %
11.06.2017 16:00 25,9 C 24,4 C 36 % 1017,2 hPa 0,0 l/m 9,0 km/h (2 Bft) O 101 2 min 0,000 mm 4,2 UV-I 719 W/m 9,7 C 25,3 C 14,5 km/h (3 Bft) 97,78 %
11.06.2017 16:02 25,7 C 24,4 C 35 % 1017,2 hPa 0,0 l/m 2,1 km/h (1 Bft) SO 129 2 min 0,534 mm 4,2 UV-I 714 W/m 9,1 C 25,7 C 4,8 km/h (1 Bft) 100,00 %
11.06.2017 16:04 25,5 C 24,4 C 36 % 1017,2 hPa 0,0 l/m 0,7 km/h (0 Bft) O-SO 103 2 min 0,000 mm 4,1 UV-I 709 W/m 9,3 C 25,5 C 3,2 km/h (1 Bft) 98,11 %
11.06.2017 16:06 25,4 C 24,4 C 40 % 1017,1 hPa 0,0 l/m 0,3 km/h (0 Bft) O-SO 103 2 min 0,000 mm 4,1 UV-I 703 W/m 10,8 C 25,4 C 1,6 km/h (1 Bft) 96,00 %
11.06.2017 16:08 25,4 C 25,0 C 36 % 1017,1 hPa 0,0 l/m 1,3 km/h (1 Bft) N 11 2 min 0,000 mm 4,0 UV-I 701 W/m 9,2 C 25,4 C 3,2 km/h (1 Bft) 96,00 %
11.06.2017 16:10 25,4 C 25,0 C 36 % 1017,1 hPa 0,0 l/m 4,4 km/h (1 Bft) O 86 2 min 0,000 mm 4,0 UV-I 697 W/m 9,2 C 25,4 C 9,7 km/h (2 Bft) 97,37 %
11.06.2017 16:12 25,7 C 25,0 C 36 % 1017,1 hPa 0,0 l/m 7,1 km/h (2 Bft) O-NO 61 2 min 0,000 mm 3,9 UV-I 693 W/m 9,5 C 25,5 C 12,9 km/h (3 Bft) 98,11 %
11.06.2017 16:14 25,7 C 25,0 C 35 % 1017,1 hPa 0,0 l/m 5,1 km/h (1 Bft) O 83 2 min 0,000 mm 3,9 UV-I 689 W/m 9,1 C 25,7 C 8,0 km/h (2 Bft) 97,87 %
11.06.2017 16:16 25,9 C 25,0 C 37 % 1017,0 hPa 0,0 l/m 6,9 km/h (2 Bft) N-NO 12 2 min 0,000 mm 3,9 UV-I 685 W/m 10,1 C 25,8 C 9,7 km/h (2 Bft) 97,62 %
11.06.2017 16:18 25,9 C 25,0 C 41 % 1017,0 hPa 0,0 l/m 4,2 km/h (1 Bft) N-NO 22 2 min 0,000 mm 3,8 UV-I 679 W/m 11,6 C 25,9 C 9,7 km/h (2 Bft) 97,87 %
11.06.2017 16:20 25,8 C 25,0 C 40 % 1017,0 hPa 0,0 l/m 2,7 km/h (1 Bft) N 355 2 min 0,000 mm 3,7 UV-I 674 W/m 11,2 C 25,8 C 4,8 km/h (1 Bft) 98,18 %
11.06.2017 16:22 25,6 C 25,0 C 36 % 1017,0 hPa 0,0 l/m 1,2 km/h (1 Bft) N 5 2 min 0,000 mm 3,7 UV-I 670 W/m 9,4 C 25,6 C 3,2 km/h (1 Bft) 94,87 %
11.06.2017 16:24 25,7 C 25,0 C 38 % 1017,0 hPa 0,0 l/m 2,0 km/h (1 Bft) N 5 2 min 0,000 mm 3,6 UV-I 665 W/m 10,3 C 25,7 C 4,8 km/h (1 Bft) 95,74 %
11.06.2017 16:26 25,8 C 25,0 C 41 % 1017,0 hPa 0,0 l/m 6,8 km/h (2 Bft) N-NO 25 2 min 0,000 mm 3,6 UV-I 663 W/m 11,5 C 25,7 C 12,9 km/h (3 Bft) 96,23 %
11.06.2017 16:28 25,8 C 25,0 C 39 % 1016,9 hPa 0,0 l/m 4,1 km/h (1 Bft) O-NO 65 2 min 0,000 mm 3,5 UV-I 659 W/m 10,8 C 25,8 C 9,7 km/h (2 Bft) 100,00 %
11.06.2017 16:30 25,8 C 25,0 C 36 % 1016,9 hPa 0,0 l/m 7,2 km/h (2 Bft) NO 50 2 min 0,000 mm 3,5 UV-I 655 W/m 9,6 C 25,6 C 11,3 km/h (2 Bft) 93,18 %
11.06.2017 16:32 25,8 C 25,0 C 37 % 1016,8 hPa 0,0 l/m 5,9 km/h (2 Bft) O 99 2 min 0,000 mm 3,4 UV-I 650 W/m 10,0 C 25,8 C 9,7 km/h (2 Bft) 95,74 %
11.06.2017 16:34 25,8 C 25,0 C 35 % 1016,8 hPa 0,0 l/m 4,1 km/h (1 Bft) O-NO 63 2 min 0,000 mm 3,3 UV-I 645 W/m 9,2 C 25,8 C 6,4 km/h (2 Bft) 95,45 %
11.06.2017 16:36 25,8 C 25,0 C 34 % 1016,8 hPa 0,0 l/m 6,6 km/h (2 Bft) NO 53 2 min 0,000 mm 3,3 UV-I 643 W/m 8,7 C 25,8 C 11,3 km/h (2 Bft) 96,00 %
11.06.2017 16:38 25,9 C 25,0 C 34 % 1016,7 hPa 0,0 l/m 8,7 km/h (2 Bft) O-NO 57 2 min 0,000 mm 3,3 UV-I 639 W/m 8,8 C 25,4 C 14,5 km/h (3 Bft) 95,74 %
11.06.2017 16:40 25,8 C 25,0 C 35 % 1016,7 hPa 0,0 l/m 3,4 km/h (1 Bft) NO 44 2 min 0,000 mm 3,2 UV-I 639 W/m 9,2 C 25,8 C 6,4 km/h (2 Bft) 96,23 %
11.06.2017 16:42 25,8 C 25,0 C 38 % 1016,7 hPa 0,0 l/m 6,3 km/h (2 Bft) O-NO 61 2 min 0,000 mm 3,0 UV-I 628 W/m 10,4 C 25,8 C 9,7 km/h (2 Bft) 94,74 %
11.06.2017 16:44 25,7 C 25,0 C 35 % 1016,7 hPa 0,0 l/m 6,2 km/h (2 Bft) O-NO 70 2 min 0,000 mm 3,0 UV-I 601 W/m 9,1 C 25,7 C 12,9 km/h (3 Bft) 94,34 %
11.06.2017 16:46 25,7 C 25,0 C 33 % 1016,6 hPa 0,0 l/m 6,1 km/h (2 Bft) O-SO 115 2 min 0,000 mm 2,7 UV-I 509 W/m 8,2 C 25,7 C 11,3 km/h (2 Bft) 96,00 %
11.06.2017 16:48 25,8 C 25,0 C 36 % 1016,6 hPa 0,0 l/m 5,5 km/h (1 Bft) O-NO 61 2 min 0,000 mm 2,7 UV-I 499 W/m 9,6 C 25,8 C 11,3 km/h (2 Bft) 94,29 %
11.06.2017 16:50 25,9 C 25,0 C 37 % 1016,6 hPa 0,0 l/m 7,7 km/h (2 Bft) NO 39 2 min 0,000 mm 2,8 UV-I 606 W/m 10,1 C 25,6 C 12,9 km/h (3 Bft) 95,92 %
11.06.2017 16:52 26,0 C 25,0 C 42 % 1016,5 hPa 0,0 l/m 8,5 km/h (2 Bft) NO 36 2 min 0,000 mm 2,9 UV-I 629 W/m 12,1 C 25,5 C 11,3 km/h (2 Bft) 98,00 %
11.06.2017 16:54 26,0 C 25,0 C 38 % 1016,5 hPa 0,0 l/m 9,0 km/h (2 Bft) NO 40 2 min 0,000 mm 2,9 UV-I 631 W/m 10,6 C 25,5 C 14,5 km/h (3 Bft) 97,62 %
11.06.2017 16:56 25,9 C 25,0 C 37 % 1016,5 hPa 0,0 l/m 7,7 km/h (2 Bft) O-NO 75 2 min 0,000 mm 2,8 UV-I 624 W/m 10,1 C 25,6 C 12,9 km/h (3 Bft) 98,18 %
11.06.2017 16:58 25,9 C 25,0 C 35 % 1016,5 hPa 0,0 l/m 7,1 km/h (2 Bft) O 97 2 min 0,000 mm 2,7 UV-I 592 W/m 9,3 C 25,7 C 12,9 km/h (3 Bft) 97,87 %
11.06.2017 17:00 25,8 C 25,0 C 38 % 1016,4 hPa 0,0 l/m 3,4 km/h (1 Bft) O-NO 67 2 min 0,000 mm 2,6 UV-I 541 W/m 10,4 C 25,8 C 6,4 km/h (2 Bft) 100,00 %
11.06.2017 17:02 25,9 C 25,0 C 35 % 1016,4 hPa 0,0 l/m 9,1 km/h (2 Bft) NO 49 2 min 0,457 mm 2,6 UV-I 563 W/m 9,3 C 25,3 C 12,9 km/h (3 Bft) 100,00 %
11.06.2017 17:04 26,1 C 25,0 C 39 % 1016,4 hPa 0,0 l/m 5,8 km/h (2 Bft) NO 53 2 min 0,000 mm 2,6 UV-I 582 W/m 11,0 C 26,1 C 12,9 km/h (3 Bft) 100,00 %
11.06.2017 17:06 26,1 C 25,0 C 37 % 1016,3 hPa 0,0 l/m 8,0 km/h (2 Bft) O-NO 71 2 min 0,000 mm 2,5 UV-I 529 W/m 10,3 C 25,8 C 12,9 km/h (3 Bft) 100,00 %
11.06.2017 17:08 26,1 C 25,0 C 37 % 1016,3 hPa 0,0 l/m 9,8 km/h (2 Bft) NO 38 2 min 0,000 mm 2,2 UV-I 486 W/m 10,3 C 25,4 C 16,1 km/h (3 Bft) 100,00 %
11.06.2017 17:10 25,8 C 25,0 C 38 % 1016,2 hPa 0,0 l/m 6,9 km/h (2 Bft) NO 35 2 min 0,000 mm 2,2 UV-I 445 W/m 10,4 C 25,7 C 14,5 km/h (3 Bft) 100,00 %
11.06.2017 17:12 25,7 C 25,0 C 37 % 1016,2 hPa 0,0 l/m 7,1 km/h (2 Bft) O-NO 65 2 min 0,000 mm 2,2 UV-I 473 W/m 9,9 C 25,5 C 12,9 km/h (3 Bft) 100,00 %
11.06.2017 17:14 25,7 C 25,0 C 36 % 1016,2 hPa 0,0 l/m 9,3 km/h (2 Bft) NO 52 2 min 0,000 mm 2,3 UV-I 527 W/m 9,5 C 25,1 C 14,5 km/h (3 Bft) 100,00 %
11.06.2017 17:16 25,8 C 25,0 C 36 % 1016,2 hPa 0,0 l/m 9,9 km/h (2 Bft) NO 50 2 min 0,000 mm 2,2 UV-I 526 W/m 9,6 C 25,1 C 17,7 km/h (3 Bft) 98,00 %
11.06.2017 17:19 25,9 C 25,0 C 40 % 1016,0 hPa 0,0 l/m 5,9 km/h (2 Bft) O-NO 78 3 min 0,000 mm 2,2 UV-I 545 W/m 11,3 C 25,9 C 9,7 km/h (2 Bft) 98,39 %
11.06.2017 17:20 25,9 C 25,0 C 37 % 1016,1 hPa 0,0 l/m 7,5 km/h (2 Bft) O-NO 67 1 min 0,000 mm 2,2 UV-I 521 W/m 10,1 C 25,7 C 9,7 km/h (2 Bft) 100,00 %
11.06.2017 17:22 25,9 C 25,0 C 34 % 1016,2 hPa 0,0 l/m 3,6 km/h (1 Bft) O-NO 68 2 min 0,000 mm 2,2 UV-I 551 W/m 8,8 C 25,9 C 8,0 km/h (2 Bft) 100,00 %
11.06.2017 17:24 25,7 C 25,0 C 38 % 1016,1 hPa 0,0 l/m 0,8 km/h (0 Bft) NO 51 2 min 0,000 mm 2,2 UV-I 550 W/m 10,3 C 25,7 C 3,2 km/h (1 Bft) 98,00 %
11.06.2017 17:26 25,8 C 25,0 C 36 % 1016,1 hPa 0,0 l/m 5,9 km/h (2 Bft) O 90 2 min 0,000 mm 2,1 UV-I 524 W/m 9,6 C 25,8 C 11,3 km/h (2 Bft) 100,00 %
11.06.2017 17:28 25,8 C 25,0 C 34 % 1016,1 hPa 0,0 l/m 3,3 km/h (1 Bft) NO 51 2 min 0,000 mm 2,1 UV-I 525 W/m 8,7 C 25,8 C 4,8 km/h (1 Bft) 100,00 %
11.06.2017 17:30 25,9 C 25,0 C 38 % 1016,0 hPa 0,0 l/m 5,0 km/h (1 Bft) N-NO 32 2 min 0,000 mm 2,0 UV-I 496 W/m 10,5 C 25,9 C 11,3 km/h (2 Bft) 100,00 %
11.06.2017 17:32 25,7 C 25,0 C 36 % 1016,0 hPa 0,0 l/m 4,8 km/h (1 Bft) NO 46 2 min 0,000 mm 1,9 UV-I 480 W/m 9,5 C 25,7 C 8,0 km/h (2 Bft) 100,00 %
11.06.2017 17:34 25,7 C 25,0 C 38 % 1016,0 hPa 0,0 l/m 6,9 km/h (2 Bft) O 82 2 min 0,000 mm 1,9 UV-I 472 W/m 10,3 C 25,6 C 11,3 km/h (2 Bft) 98,18 %
11.06.2017 17:36 25,8 C 25,0 C 34 % 1015,9 hPa 0,0 l/m 8,6 km/h (2 Bft) O 88 2 min 0,000 mm 1,9 UV-I 463 W/m 8,7 C 25,3 C 12,9 km/h (3 Bft) 100,00 %
11.06.2017 17:38 25,8 C 25,0 C 36 % 1015,9 hPa 0,0 l/m 7,1 km/h (2 Bft) O-NO 75 2 min 0,000 mm 1,9 UV-I 470 W/m 9,6 C 25,6 C 11,3 km/h (2 Bft) 100,00 %
11.06.2017 17:40 25,8 C 25,0 C 35 % 1015,9 hPa 0,0 l/m 6,1 km/h (2 Bft) O-NO 74 2 min 0,000 mm 1,8 UV-I 458 W/m 9,2 C 25,8 C 9,7 km/h (2 Bft) 100,00 %
11.06.2017 17:42 25,9 C 25,0 C 35 % 1015,8 hPa 0,0 l/m 4,4 km/h (1 Bft) O-NO 78 2 min 0,000 mm 1,8 UV-I 470 W/m 9,3 C 25,9 C 9,7 km/h (2 Bft) 97,73 %
11.06.2017 17:44 25,9 C 25,0 C 34 % 1015,8 hPa 0,0 l/m 9,3 km/h (2 Bft) O-NO 67 2 min 0,000 mm 1,7 UV-I 445 W/m 8,8 C 25,3 C 14,5 km/h (3 Bft) 100,00 %
11.06.2017 17:46 25,9 C 25,0 C 37 % 1015,8 hPa 0,0 l/m 9,0 km/h (2 Bft) O-NO 58 2 min 0,000 mm 1,7 UV-I 460 W/m 10,1 C 25,3 C 12,9 km/h (3 Bft) 97,87 %
11.06.2017 17:48 25,9 C 25,0 C 35 % 1015,8 hPa 0,0 l/m 7,6 km/h (2 Bft) O-NO 74 2 min 0,000 mm 1,6 UV-I 455 W/m 9,3 C 25,6 C 12,9 km/h (3 Bft) 98,00 %
11.06.2017 17:50 25,8 C 25,0 C 34 % 1015,7 hPa 0,0 l/m 8,9 km/h (2 Bft) O-NO 69 2 min 0,000 mm 1,6 UV-I 449 W/m 8,7 C 25,3 C 12,9 km/h (3 Bft) 100,00 %
11.06.2017 17:52 25,8 C 25,0 C 40 % 1015,7 hPa 0,0 l/m 7,2 km/h (2 Bft) O-NO 69 2 min 0,000 mm 1,5 UV-I 433 W/m 11,2 C 25,6 C 12,9 km/h (3 Bft) 95,74 %
11.06.2017 17:54 25,7 C 25,0 C 36 % 1015,7 hPa 0,0 l/m 6,9 km/h (2 Bft) O-NO 61 2 min 0,000 mm 1,5 UV-I 430 W/m 9,5 C 25,6 C 9,7 km/h (2 Bft) 100,00 %
11.06.2017 17:56 25,7 C 25,0 C 35 % 1015,7 hPa 0,0 l/m 4,5 km/h (1 Bft) O-NO 65 2 min 0,000 mm 1,5 UV-I 365 W/m 9,1 C 25,7 C 8,0 km/h (2 Bft) 97,56 %
11.06.2017 17:58 25,7 C 25,0 C 36 % 1015,7 hPa 0,0 l/m 6,5 km/h (2 Bft) NO 47 2 min 0,000 mm 1,4 UV-I 376 W/m 9,5 C 25,7 C 9,7 km/h (2 Bft) 100,00 %
11.06.2017 18:00 25,8 C 25,0 C 37 % 1015,7 hPa 0,0 l/m 9,5 km/h (2 Bft) O-NO 67 2 min 0,000 mm 1,4 UV-I 406 W/m 10,0 C 25,1 C 12,9 km/h (3 Bft) 96,00 %
11.06.2017 18:02 25,8 C 25,0 C 34 % 1015,6 hPa 0,0 l/m 10,5 km/h (2 Bft) O-NO 69 2 min 0,381 mm 1,4 UV-I 407 W/m 8,7 C 25,0 C 16,1 km/h (3 Bft) 100,00 %
11.06.2017 18:04 25,7 C 25,0 C 37 % 1015,6 hPa 0,0 l/m 7,7 km/h (2 Bft) O-NO 61 2 min 0,000 mm 1,3 UV-I 370 W/m 9,9 C 25,4 C 9,7 km/h (2 Bft) 100,00 %
11.06.2017 18:06 25,7 C 25,0 C 35 % 1015,7 hPa 0,0 l/m 8,9 km/h (2 Bft) O-NO 61 2 min 0,000 mm 1,2 UV-I 338 W/m 9,1 C 25,1 C 11,3 km/h (2 Bft) 100,00 %
11.06.2017 18:08 25,6 C 25,0 C 36 % 1015,6 hPa 0,0 l/m 8,2 km/h (2 Bft) O-NO 66 2 min 0,000 mm 1,3 UV-I 383 W/m 9,4 C 25,2 C 11,3 km/h (2 Bft) 98,11 %
11.06.2017 18:10 25,6 C 25,0 C 37 % 1015,6 hPa 0,0 l/m 7,5 km/h (2 Bft) O 81 2 min 0,000 mm 1,2 UV-I 315 W/m 9,8 C 25,3 C 12,9 km/h (3 Bft) 95,24 %
11.06.2017 18:12 25,6 C 25,0 C 33 % 1015,6 hPa 0,0 l/m 8,6 km/h (2 Bft) O-NO 68 2 min 0,000 mm 1,1 UV-I 267 W/m 8,1 C 25,1 C 12,9 km/h (3 Bft) 100,00 %
11.06.2017 18:14 25,4 C 25,0 C 34 % 1015,6 hPa 0,0 l/m 5,6 km/h (1 Bft) O-NO 70 2 min 0,000 mm 1,1 UV-I 292 W/m 8,4 C 25,4 C 8,0 km/h (2 Bft) 100,00 %
11.06.2017 18:16 25,4 C 25,0 C 35 % 1015,5 hPa 0,0 l/m 6,5 km/h (2 Bft) NO 53 2 min 0,000 mm 1,1 UV-I 339 W/m 8,8 C 25,4 C 9,7 km/h (2 Bft) 97,87 %
11.06.2017 18:18 25,3 C 25,0 C 36 % 1015,5 hPa 0,0 l/m 4,9 km/h (1 Bft) O-NO 64 2 min 0,000 mm 1,1 UV-I 364 W/m 9,1 C 25,3 C 8,0 km/h (2 Bft) 96,00 %
11.06.2017 18:20 25,4 C 25,0 C 34 % 1015,4 hPa 0,0 l/m 9,0 km/h (2 Bft) O-NO 65 2 min 0,000 mm 1,1 UV-I 339 W/m 8,4 C 24,8 C 14,5 km/h (3 Bft) 95,74 %
11.06.2017 18:22 25,4 C 25,0 C 34 % 1015,4 hPa 0,0 l/m 6,9 km/h (2 Bft) O 82 2 min 0,000 mm 1,0 UV-I 319 W/m 8,4 C 25,3 C 9,7 km/h (2 Bft) 97,73 %
11.06.2017 18:24 25,6 C 25,0 C 34 % 1015,4 hPa 0,0 l/m 4,0 km/h (1 Bft) O 84 2 min 0,000 mm 1,0 UV-I 315 W/m 8,6 C 25,6 C 6,4 km/h (2 Bft) 96,00 %
11.06.2017 18:26 25,7 C 25,0 C 37 % 1015,3 hPa 0,0 l/m 4,6 km/h (1 Bft) O-NO 69 2 min 0,000 mm 1,0 UV-I 305 W/m 9,9 C 25,7 C 9,7 km/h (2 Bft) 94,00 %
11.06.2017 18:28 25,7 C 25,0 C 36 % 1015,3 hPa 0,0 l/m 7,0 km/h (2 Bft) O 80 2 min 0,000 mm 1,0 UV-I 343 W/m 9,5 C 25,6 C 9,7 km/h (2 Bft) 95,12 %
11.06.2017 18:30 25,7 C 25,0 C 35 % 1015,3 hPa 0,0 l/m 7,9 km/h (2 Bft) O-NO 58 2 min 0,000 mm 0,9 UV-I 311 W/m 9,1 C 25,4 C 12,9 km/h (3 Bft) 96,00 %
11.06.2017 18:32 25,7 C 25,0 C 37 % 1015,3 hPa 0,0 l/m 4,6 km/h (1 Bft) O-NO 57 2 min 0,000 mm 0,9 UV-I 319 W/m 9,9 C 25,7 C 6,4 km/h (2 Bft) 97,87 %
11.06.2017 18:34 25,7 C 25,0 C 36 % 1015,2 hPa 0,0 l/m 5,6 km/h (1 Bft) NO 53 2 min 0,000 mm 0,9 UV-I 327 W/m 9,5 C 25,7 C 8,0 km/h (2 Bft) 92,00 %
11.06.2017 18:36 25,7 C 25,0 C 35 % 1015,3 hPa 0,0 l/m 5,6 km/h (1 Bft) O-NO 71 2 min 0,000 mm 0,9 UV-I 325 W/m 9,1 C 25,7 C 8,0 km/h (2 Bft) 95,74 %
11.06.2017 18:38 25,7 C 25,0 C 36 % 1015,3 hPa 0,0 l/m 6,8 km/h (2 Bft) O-NO 69 2 min 0,000 mm 0,8 UV-I 315 W/m 9,5 C 25,6 C 12,9 km/h (3 Bft) 93,62 %
11.06.2017 18:40 25,6 C 25,0 C 34 % 1015,3 hPa 0,0 l/m 5,7 km/h (1 Bft) O-NO 61 2 min 0,000 mm 0,8 UV-I 307 W/m 8,6 C 25,6 C 9,7 km/h (2 Bft) 97,87 %
11.06.2017 18:42 25,7 C 25,0 C 34 % 1015,3 hPa 0,0 l/m 5,8 km/h (2 Bft) O-NO 74 2 min 0,000 mm 0,8 UV-I 300 W/m 8,6 C 25,7 C 9,7 km/h (2 Bft) 97,37 %
11.06.2017 18:44 25,7 C 25,0 C 34 % 1015,2 hPa 0,0 l/m 7,8 km/h (2 Bft) O-NO 71 2 min 0,000 mm 0,7 UV-I 292 W/m 8,6 C 25,4 C 12,9 km/h (3 Bft) 96,23 %
11.06.2017 18:46 25,7 C 25,0 C 33 % 1015,2 hPa 0,0 l/m 7,7 km/h (2 Bft) O 86 2 min 0,000 mm 0,7 UV-I 286 W/m 8,2 C 25,4 C 11,3 km/h (2 Bft) 95,12 %
11.06.2017 18:48 25,6 C 25,0 C 36 % 1015,2 hPa 0,0 l/m 6,3 km/h (2 Bft) NO 50 2 min 0,000 mm 0,7 UV-I 277 W/m 9,4 C 25,6 C 11,3 km/h (2 Bft) 95,74 %
11.06.2017 18:50 25,6 C 25,0 C 36 % 1015,2 hPa 0,0 l/m 5,0 km/h (1 Bft) O-NO 61 2 min 0,000 mm 0,7 UV-I 271 W/m 9,4 C 25,6 C 9,7 km/h (2 Bft) 96,00 %
11.06.2017 18:52 25,5 C 25,0 C 33 % 1015,2 hPa 0,0 l/m 8,7 km/h (2 Bft) O-NO 69 2 min 0,000 mm 0,6 UV-I 264 W/m 8,0 C 25,0 C 11,3 km/h (2 Bft) 100,00 %
11.06.2017 18:54 25,5 C 25,0 C 33 % 1015,1 hPa 0,0 l/m 6,5 km/h (2 Bft) O-NO 71 2 min 0,000 mm 0,6 UV-I 256 W/m 8,0 C 25,5 C 12,9 km/h (3 Bft) 98,21 %
11.06.2017 18:56 25,5 C 25,0 C 36 % 1015,1 hPa 0,0 l/m 6,3 km/h (2 Bft) O-NO 63 2 min 0,000 mm 0,6 UV-I 249 W/m 9,3 C 25,5 C 8,0 km/h (2 Bft) 96,15 %
11.06.2017 18:58 25,4 C 25,0 C 34 % 1015,1 hPa 0,0 l/m 7,7 km/h (2 Bft) O-NO 60 2 min 0,000 mm 0,6 UV-I 242 W/m 8,4 C 25,1 C 12,9 km/h (3 Bft) 100,00 %
11.06.2017 19:00 25,4 C 25,0 C 35 % 1015,2 hPa 0,0 l/m 5,0 km/h (1 Bft) O-NO 57 2 min 0,000 mm 0,5 UV-I 235 W/m 8,8 C 25,4 C 8,0 km/h (2 Bft) 100,00 %
11.06.2017 19:02 25,4 C 25,0 C 37 % 1015,2 hPa 0,0 l/m 5,3 km/h (1 Bft) NO 48 2 min 0,279 mm 0,5 UV-I 229 W/m 9,6 C 25,4 C 8,0 km/h (2 Bft) 100,00 %
11.06.2017 19:04 25,4 C 25,0 C 37 % 1015,2 hPa 0,0 l/m 3,3 km/h (1 Bft) NO 49 2 min 0,000 mm 0,5 UV-I 222 W/m 9,6 C 25,4 C 4,8 km/h (1 Bft) 98,00 %
11.06.2017 19:06 25,4 C 25,0 C 40 % 1015,2 hPa 0,0 l/m 4,3 km/h (1 Bft) O-NO 67 2 min 0,000 mm 0,5 UV-I 216 W/m 10,8 C 25,4 C 6,4 km/h (2 Bft) 100,00 %
11.06.2017 19:08 25,4 C 25,0 C 36 % 1015,2 hPa 0,0 l/m 5,1 km/h (1 Bft) O-NO 59 2 min 0,000 mm 0,5 UV-I 210 W/m 9,2 C 25,4 C 8,0 km/h (2 Bft) 98,21 %
11.06.2017 19:10 25,3 C 25,0 C 35 % 1015,2 hPa 0,0 l/m 4,9 km/h (1 Bft) O-NO 58 2 min 0,000 mm 0,4 UV-I 205 W/m 8,7 C 25,3 C 6,4 km/h (2 Bft) 100,00 %
11.06.2017 19:12 25,3 C 25,0 C 34 % 1015,0 hPa 0,0 l/m 5,4 km/h (1 Bft) O-NO 60 2 min 0,000 mm 0,0 UV-I 199 W/m 8,3 C 25,3 C 8,0 km/h (2 Bft) 98,21 %
11.06.2017 19:14 25,3 C 25,0 C 35 % 1015,1 hPa 0,0 l/m 6,0 km/h (2 Bft) NO 46 2 min 0,000 mm 0,0 UV-I 194 W/m 8,7 C 25,3 C 9,7 km/h (2 Bft) 97,37 %
11.06.2017 19:16 25,3 C 25,0 C 36 % 1015,0 hPa 0,0 l/m 6,4 km/h (2 Bft) NO 55 2 min 0,000 mm 0,0 UV-I 188 W/m 9,1 C 25,3 C 8,0 km/h (2 Bft) 100,00 %
11.06.2017 19:18 25,2 C 25,0 C 34 % 1015,0 hPa 0,0 l/m 5,8 km/h (2 Bft) NO 55 2 min 0,000 mm 0,0 UV-I 183 W/m 8,2 C 25,2 C 8,0 km/h (2 Bft) 97,56 %
11.06.2017 19:20 25,2 C 25,0 C 35 % 1015,0 hPa 0,0 l/m 6,5 km/h (2 Bft) O-NO 66 2 min 0,000 mm 0,0 UV-I 178 W/m 8,6 C 25,2 C 8,0 km/h (2 Bft) 100,00 %
11.06.2017 19:22 25,2 C 25,0 C 34 % 1015,0 hPa 0,0 l/m 5,6 km/h (1 Bft) O-NO 61 2 min 0,000 mm 0,0 UV-I 173 W/m 8,2 C 25,2 C 8,0 km/h (2 Bft) 100,00 %
11.06.2017 19:24 25,2 C 25,0 C 37 % 1015,0 hPa 0,0 l/m 5,5 km/h (1 Bft) O-NO 72 2 min 0,000 mm 0,0 UV-I 167 W/m 9,5 C 25,2 C 8,0 km/h (2 Bft) 100,00 %
11.06.2017 19:26 25,1 C 25,0 C 38 % 1015,0 hPa 0,0 l/m 6,8 km/h (2 Bft) O-NO 68 2 min 0,000 mm 0,0 UV-I 161 W/m 9,8 C 25,0 C 9,7 km/h (2 Bft) 97,73 %
11.06.2017 19:28 25,0 C 25,0 C 40 % 1015,0 hPa 0,0 l/m 4,4 km/h (1 Bft) O 79 2 min 0,000 mm 0,0 UV-I 157 W/m 10,4 C 25,0 C 6,4 km/h (2 Bft) 100,00 %
11.06.2017 19:30 24,9 C 25,0 C 37 % 1015,0 hPa 0,0 l/m 5,9 km/h (2 Bft) O-NO 71 2 min 0,000 mm 0,0 UV-I 151 W/m 9,2 C 24,9 C 8,0 km/h (2 Bft) 94,87 %
11.06.2017 19:32 24,9 C 25,0 C 36 % 1014,9 hPa 0,0 l/m 6,3 km/h (2 Bft) O-NO 71 2 min 0,000 mm 0,0 UV-I 146 W/m 8,8 C 24,9 C 9,7 km/h (2 Bft) 100,00 %
11.06.2017 19:34 24,9 C 25,0 C 38 % 1014,9 hPa 0,0 l/m 6,1 km/h (2 Bft) O-NO 73 2 min 0,000 mm 0,0 UV-I 142 W/m 9,6 C 24,9 C 8,0 km/h (2 Bft) 97,44 %
11.06.2017 19:36 24,9 C 25,0 C 40 % 1015,0 hPa 0,0 l/m 6,5 km/h (2 Bft) O-NO 73 2 min 0,000 mm 0,0 UV-I 137 W/m 10,4 C 24,9 C 8,0 km/h (2 Bft) 100,00 %
11.06.2017 19:38 24,8 C 25,0 C 39 % 1014,8 hPa 0,0 l/m 4,9 km/h (1 Bft) O-NO 75 2 min 0,000 mm 0,0 UV-I 132 W/m 9,9 C 24,8 C 8,0 km/h (2 Bft) 97,87 %
11.06.2017 19:40 24,8 C 25,0 C 41 % 1014,8 hPa 0,0 l/m 4,5 km/h (1 Bft) O 80 2 min 0,000 mm 0,0 UV-I 127 W/m 10,6 C 24,8 C 8,0 km/h (2 Bft) 100,00 %
11.06.2017 19:42 24,8 C 25,0 C 39 % 1014,8 hPa 0,0 l/m 5,7 km/h (1 Bft) O-NO 72 2 min 0,000 mm 0,0 UV-I 123 W/m 9,9 C 24,8 C 8,0 km/h (2 Bft) 96,23 %
11.06.2017 19:44 24,7 C 25,0 C 40 % 1014,8 hPa 0,0 l/m 5,0 km/h (1 Bft) O-NO 66 2 min 0,000 mm 0,0 UV-I 120 W/m 10,2 C 24,7 C 6,4 km/h (2 Bft) 95,74 %
11.06.2017 19:46 24,7 C 25,0 C 38 % 1014,8 hPa 0,0 l/m 4,0 km/h (1 Bft) O-NO 66 2 min 0,000 mm 0,0 UV-I 114 W/m 9,4 C 24,7 C 4,8 km/h (1 Bft) 96,00 %
11.06.2017 19:48 24,6 C 25,0 C 39 % 1014,8 hPa 0,0 l/m 3,6 km/h (1 Bft) O-NO 66 2 min 0,000 mm 0,0 UV-I 110 W/m 9,7 C 24,6 C 4,8 km/h (1 Bft) 95,74 %
11.06.2017 19:50 24,6 C 25,0 C 41 % 1014,8 hPa 0,0 l/m 4,4 km/h (1 Bft) NO 53 2 min 0,000 mm 0,0 UV-I 106 W/m 10,5 C 24,6 C 6,4 km/h (2 Bft) 97,87 %
11.06.2017 19:52 24,5 C 25,0 C 40 % 1014,8 hPa 0,0 l/m 4,3 km/h (1 Bft) O-NO 58 2 min 0,000 mm 0,0 UV-I 103 W/m 10,0 C 24,5 C 6,4 km/h (2 Bft) 97,56 %
11.06.2017 19:54 24,5 C 25,0 C 41 % 1014,8 hPa 0,0 l/m 3,1 km/h (1 Bft) O-NO 58 2 min 0,000 mm 0,0 UV-I 98 W/m 10,4 C 24,5 C 4,8 km/h (1 Bft) 97,87 %
11.06.2017 19:56 24,4 C 25,0 C 42 % 1014,8 hPa 0,0 l/m 3,3 km/h (1 Bft) O-NO 58 2 min 0,000 mm 0,0 UV-I 95 W/m 10,6 C 24,4 C 4,8 km/h (1 Bft) 98,00 %
11.06.2017 19:58 24,3 C 25,0 C 41 % 1014,7 hPa 0,0 l/m 3,8 km/h (1 Bft) O-NO 67 2 min 0,000 mm 0,0 UV-I 91 W/m 10,2 C 24,3 C 6,4 km/h (2 Bft) 94,00 %
11.06.2017 20:00 24,3 C 25,0 C 42 % 1014,7 hPa 0,0 l/m 4,1 km/h (1 Bft) O-NO 76 2 min 0,153 mm 0,0 UV-I 88 W/m 10,6 C 24,3 C 4,8 km/h (1 Bft) 91,43 %
11.06.2017 20:02 24,3 C 25,0 C 41 % 1014,7 hPa 0,0 l/m 2,9 km/h (1 Bft) O-NO 77 2 min 0,000 mm 0,0 UV-I 84 W/m 10,2 C 24,3 C 4,8 km/h (1 Bft) 94,34 %
11.06.2017 20:04 24,2 C 25,0 C 41 % 1014,7 hPa 0,0 l/m 4,4 km/h (1 Bft) O-NO 65 2 min 0,000 mm 0,0 UV-I 80 W/m 10,1 C 24,2 C 6,4 km/h (2 Bft) 96,00 %
11.06.2017 20:06 24,2 C 25,0 C 40 % 1014,7 hPa 0,0 l/m 3,2 km/h (1 Bft) O-NO 66 2 min 0,000 mm 0,0 UV-I 74 W/m 9,7 C 24,2 C 4,8 km/h (1 Bft) 97,62 %
11.06.2017 20:08 24,2 C 25,0 C 38 % 1014,7 hPa 0,0 l/m 5,6 km/h (1 Bft) O-NO 70 0 min 0,000 mm 0,0 UV-I 64 W/m 9,0 C 24,2 C 8,0 km/h (2 Bft) 94,34 %
11.06.2017 20:10 24,1 C 25,0 C 40 % 1014,7 hPa 0,0 l/m 4,0 km/h (1 Bft) O-NO 72 0 min 0,000 mm 0,0 UV-I 58 W/m 9,6 C 24,1 C 6,4 km/h (2 Bft) 94,87 %
11.06.2017 20:12 24,1 C 25,0 C 39 % 1014,7 hPa 0,0 l/m 3,8 km/h (1 Bft) O-NO 72 0 min 0,000 mm 0,0 UV-I 58 W/m 9,3 C 24,1 C 6,4 km/h (2 Bft) 94,00 %
11.06.2017 20:14 23,9 C 25,0 C 40 % 1014,6 hPa 0,0 l/m 3,3 km/h (1 Bft) O-NO 72 0 min 0,000 mm 0,0 UV-I 52 W/m 9,5 C 23,9 C 4,8 km/h (1 Bft) 91,49 %
11.06.2017 20:16 23,9 C 25,0 C 40 % 1014,7 hPa 0,0 l/m 4,1 km/h (1 Bft) O-NO 73 2 min 0,000 mm 0,0 UV-I 57 W/m 9,5 C 23,9 C 6,4 km/h (2 Bft) 93,62 %
11.06.2017 20:18 23,7 C 25,0 C 41 % 1014,7 hPa 0,0 l/m 3,9 km/h (1 Bft) O-NO 73 2 min 0,000 mm 0,0 UV-I 54 W/m 9,7 C 23,7 C 4,8 km/h (1 Bft) 94,00 %
11.06.2017 20:20 23,6 C 25,0 C 42 % 1014,6 hPa 0,0 l/m 4,4 km/h (1 Bft) O-NO 73 2 min 0,000 mm 0,0 UV-I 52 W/m 9,9 C 23,6 C 6,4 km/h (2 Bft) 94,74 %
11.06.2017 20:22 23,4 C 25,0 C 40 % 1014,6 hPa 0,0 l/m 4,6 km/h (1 Bft) O-NO 73 0 min 0,000 mm 0,0 UV-I 42 W/m 9,0 C 23,4 C 6,4 km/h (2 Bft) 94,34 %
11.06.2017 20:24 23,4 C 25,0 C 39 % 1014,6 hPa 0,0 l/m 3,4 km/h (1 Bft) O-NO 73 0 min 0,000 mm 0,0 UV-I 32 W/m 8,6 C 23,4 C 6,4 km/h (2 Bft) 90,00 %
11.06.2017 20:26 23,3 C 25,0 C 40 % 1014,6 hPa 0,0 l/m 2,6 km/h (1 Bft) O-NO 73 0 min 0,000 mm 0,0 UV-I 35 W/m 8,9 C 23,3 C 4,8 km/h (1 Bft) 97,37 %
11.06.2017 20:28 23,3 C 25,0 C 40 % 1014,6 hPa 0,0 l/m 2,5 km/h (1 Bft) O-NO 73 0 min 0,000 mm 0,0 UV-I 38 W/m 8,9 C 23,3 C 4,8 km/h (1 Bft) 92,45 %
11.06.2017 20:30 23,2 C 24,4 C 41 % 1014,6 hPa 0,0 l/m 3,1 km/h (1 Bft) O-NO 73 0 min 0,000 mm 0,0 UV-I 32 W/m 9,2 C 23,2 C 4,8 km/h (1 Bft) 92,00 %
11.06.2017 20:32 23,0 C 24,4 C 43 % 1014,6 hPa 0,0 l/m 3,0 km/h (1 Bft) O-NO 73 0 min 0,000 mm 0,0 UV-I 28 W/m 9,7 C 23,0 C 4,8 km/h (1 Bft) 95,45 %
11.06.2017 20:34 22,8 C 24,4 C 45 % 1014,6 hPa 0,0 l/m 3,2 km/h (1 Bft) O-NO 73 0 min 0,000 mm 0,0 UV-I 30 W/m 10,2 C 22,8 C 4,8 km/h (1 Bft) 94,00 %
11.06.2017 20:36 22,6 C 24,4 C 44 % 1014,6 hPa 0,0 l/m 4,2 km/h (1 Bft) O-NO 73 0 min 0,000 mm 0,0 UV-I 27 W/m 9,7 C 22,6 C 6,4 km/h (2 Bft) 93,62 %
11.06.2017 20:38 22,4 C 24,4 C 45 % 1014,6 hPa 0,0 l/m 3,7 km/h (1 Bft) O-NO 73 2 min 0,000 mm 0,0 UV-I 26 W/m 9,9 C 22,4 C 4,8 km/h (1 Bft) 92,11 %
11.06.2017 20:40 22,3 C 24,4 C 46 % 1014,6 hPa 0,0 l/m 3,2 km/h (1 Bft) O-NO 73 0 min 0,000 mm 0,0 UV-I 22 W/m 10,1 C 22,3 C 4,8 km/h (1 Bft) 97,87 %
11.06.2017 20:42 22,2 C 25,0 C 44 % 1014,5 hPa 0,0 l/m 3,6 km/h (1 Bft) O-NO 73 2 min 0,000 mm 0,0 UV-I 21 W/m 9,4 C 22,2 C 6,4 km/h (2 Bft) 96,23 %
11.06.2017 20:44 22,1 C 25,0 C 44 % 1014,6 hPa 0,0 l/m 3,7 km/h (1 Bft) O-NO 73 2 min 0,000 mm 0,0 UV-I 20 W/m 9,3 C 22,1 C 4,8 km/h (1 Bft) 97,87 %
11.06.2017 20:46 22,1 C 25,0 C 44 % 1014,6 hPa 0,0 l/m 3,7 km/h (1 Bft) O-NO 73 2 min 0,000 mm 0,0 UV-I 19 W/m 9,3 C 22,1 C 6,4 km/h (2 Bft) 91,49 %
11.06.2017 20:48 21,9 C 25,0 C 45 % 1014,6 hPa 0,0 l/m 4,3 km/h (1 Bft) O-NO 73 2 min 0,000 mm 0,0 UV-I 18 W/m 9,4 C 21,9 C 6,4 km/h (2 Bft) 97,87 %
11.06.2017 20:50 21,9 C 25,0 C 45 % 1014,6 hPa 0,0 l/m 3,3 km/h (1 Bft) O-NO 73 2 min 0,000 mm 0,0 UV-I 16 W/m 9,4 C 21,9 C 4,8 km/h (1 Bft) 93,62 %
11.06.2017 20:52 21,8 C 25,0 C 47 % 1014,5 hPa 0,0 l/m 3,1 km/h (1 Bft) O-NO 73 0 min 0,000 mm 0,0 UV-I 13 W/m 10,0 C 21,8 C 4,8 km/h (1 Bft) 94,87 %
11.06.2017 20:54 21,6 C 25,0 C 47 % 1014,5 hPa 0,0 l/m 2,4 km/h (1 Bft) O-NO 73 0 min 0,000 mm 0,0 UV-I 12 W/m 9,8 C 21,6 C 4,8 km/h (1 Bft) 96,00 %
11.06.2017 20:56 21,3 C 25,0 C 53 % 1014,5 hPa 0,0 l/m 2,5 km/h (1 Bft) O-NO 73 0 min 0,000 mm 0,0 UV-I 11 W/m 11,3 C 21,3 C 4,8 km/h (1 Bft) 97,73 %
11.06.2017 20:58 20,9 C 25,0 C 53 % 1014,5 hPa 0,0 l/m 3,1 km/h (1 Bft) O-NO 73 0 min 0,000 mm 0,0 UV-I 10 W/m 11,0 C 20,9 C 4,8 km/h (1 Bft) 100,00 %
11.06.2017 21:00 20,7 C 25,0 C 53 % 1014,4 hPa 0,0 l/m 3,5 km/h (1 Bft) O-NO 73 0 min 0,000 mm 0,0 UV-I 9 W/m 10,8 C 20,7 C 4,8 km/h (1 Bft) 97,87 %
11.06.2017 21:02 20,4 C 25,0 C 54 % 1014,5 hPa 0,0 l/m 3,1 km/h (1 Bft) O-NO 73 0 min 0,076 mm 0,0 UV-I 8 W/m 10,8 C 20,4 C 4,8 km/h (1 Bft) 97,87 %
11.06.2017 21:04 20,3 C 25,0 C 55 % 1014,5 hPa 0,0 l/m 2,6 km/h (1 Bft) O-NO 73 0 min 0,000 mm 0,0 UV-I 7 W/m 11,0 C 20,3 C 4,8 km/h (1 Bft) 96,15 %
11.06.2017 21:06 20,2 C 25,0 C 55 % 1014,4 hPa 0,0 l/m 3,3 km/h (1 Bft) O-NO 73 0 min 0,000 mm 0,0 UV-I 7 W/m 10,9 C 20,2 C 4,8 km/h (1 Bft) 98,00 %
11.06.2017 21:08 19,9 C 25,0 C 57 % 1014,4 hPa 0,0 l/m 3,4 km/h (1 Bft) O-NO 73 0 min 0,000 mm 0,0 UV-I 6 W/m 11,1 C 19,9 C 4,8 km/h (1 Bft) 97,37 %
11.06.2017 21:10 19,7 C 25,0 C 55 % 1014,4 hPa 0,0 l/m 2,5 km/h (1 Bft) O-NO 73 0 min 0,000 mm 0,0 UV-I 5 W/m 10,4 C 19,7 C 3,2 km/h (1 Bft) 98,11 %
11.06.2017 21:13 19,6 C 25,0 C 58 % 1014,4 hPa 0,0 l/m 2,5 km/h (1 Bft) O-NO 73 0 min 0,000 mm 0,0 UV-I 5 W/m 11,1 C 19,6 C 4,8 km/h (1 Bft) 95,89 %
11.06.2017 21:14 19,6 C 25,0 C 57 % 1014,4 hPa 0,0 l/m 1,0 km/h (0 Bft) O-NO 73 0 min 0,000 mm 0,0 UV-I 5 W/m 10,8 C 19,6 C 1,6 km/h (1 Bft) 100,00 %
11.06.2017 21:16 19,7 C 25,0 C 58 % 1014,5 hPa 0,0 l/m 1,5 km/h (1 Bft) O-NO 73 0 min 0,000 mm 0,0 UV-I 5 W/m 11,2 C 19,7 C 3,2 km/h (1 Bft) 100,00 %
11.06.2017 21:18 19,7 C 25,0 C 57 % 1014,5 hPa 0,0 l/m 0,6 km/h (0 Bft) O-NO 73 0 min 0,000 mm 0,0 UV-I 5 W/m 10,9 C 19,7 C 1,6 km/h (1 Bft) 100,00 %
11.06.2017 21:20 19,7 C 25,0 C 57 % 1014,5 hPa 0,0 l/m 0,0 km/h (0 Bft) O-NO 73 0 min 0,000 mm 0,0 UV-I 2 W/m 10,9 C 19,7 C 0,0 km/h (0 Bft) 96,00 %
11.06.2017 21:22 19,6 C 25,0 C 58 % 1014,5 hPa 0,0 l/m 0,0 km/h (0 Bft) O-NO 73 0 min 0,000 mm 0,0 UV-I 0 W/m 11,1 C 19,6 C 0,0 km/h (0 Bft) 100,00 %
11.06.2017 21:24 19,4 C 26,1 C 59 % 1014,5 hPa 0,0 l/m 0,0 km/h (0 Bft) O-NO 73 0 min 0,000 mm 0,0 UV-I 0 W/m 11,2 C 19,4 C 0,0 km/h (0 Bft) 100,00 %
11.06.2017 21:26 19,3 C 26,1 C 61 % 1014,5 hPa 0,0 l/m 1,5 km/h (1 Bft) O-NO 73 0 min 0,000 mm 0,0 UV-I 0 W/m 11,6 C 19,3 C 3,2 km/h (1 Bft) 98,00 %
11.06.2017 21:28 19,2 C 26,1 C 62 % 1014,5 hPa 0,0 l/m 1,7 km/h (1 Bft) O-NO 73 0 min 0,000 mm 0,0 UV-I 0 W/m 11,7 C 19,2 C 3,2 km/h (1 Bft) 98,00 %
11.06.2017 21:30 19,1 C 25,6 C 60 % 1014,6 hPa 0,0 l/m 1,5 km/h (1 Bft) O-NO 73 0 min 0,000 mm 0,0 UV-I 0 W/m 11,1 C 19,1 C 3,2 km/h (1 Bft) 100,00 %
11.06.2017 21:32 19,0 C 25,6 C 60 % 1014,5 hPa 0,0 l/m 1,7 km/h (1 Bft) O-NO 73 0 min 0,000 mm 0,0 UV-I 0 W/m 11,1 C 19,0 C 3,2 km/h (1 Bft) 96,00 %
11.06.2017 21:34 18,9 C 26,1 C 59 % 1014,5 hPa 0,0 l/m 1,2 km/h (1 Bft) O-NO 73 0 min 0,000 mm 0,0 UV-I 0 W/m 10,7 C 18,9 C 1,6 km/h (1 Bft) 98,11 %
11.06.2017 21:36 18,9 C 25,6 C 60 % 1014,5 hPa 0,0 l/m 0,8 km/h (0 Bft) O-NO 73 0 min 0,000 mm 0,0 UV-I 0 W/m 11,0 C 18,9 C 3,2 km/h (1 Bft) 95,12 %
11.06.2017 21:38 18,9 C 25,6 C 61 % 1014,6 hPa 0,0 l/m 0,0 km/h (0 Bft) O-NO 73 0 min 0,000 mm 0,0 UV-I 0 W/m 11,2 C 18,9 C 1,6 km/h (1 Bft) 97,87 %
11.06.2017 21:40 18,8 C 25,6 C 62 % 1014,5 hPa 0,0 l/m 0,0 km/h (0 Bft) O-NO 73 0 min 0,000 mm 0,0 UV-I 0 W/m 11,4 C 18,8 C 0,0 km/h (0 Bft) 95,74 %
11.06.2017 21:42 18,7 C 25,6 C 60 % 1014,5 hPa 0,0 l/m 0,0 km/h (0 Bft) O-NO 73 0 min 0,000 mm 0,0 UV-I 0 W/m 10,8 C 18,7 C 0,0 km/h (0 Bft) 97,87 %
11.06.2017 21:44 18,7 C 25,0 C 62 % 1014,5 hPa 0,0 l/m 0,0 km/h (0 Bft) O-NO 73 0 min 0,000 mm 0,0 UV-I 0 W/m 11,3 C 18,7 C 0,0 km/h (0 Bft) 98,00 %
11.06.2017 21:46 18,7 C 25,6 C 62 % 1014,5 hPa 0,0 l/m 0,0 km/h (0 Bft) O-NO 73 0 min 0,000 mm 0,0 UV-I 0 W/m 11,3 C 18,7 C 1,6 km/h (1 Bft) 94,74 %
11.06.2017 21:48 18,6 C 26,1 C 62 % 1014,5 hPa 0,0 l/m 0,4 km/h (0 Bft) O-NO 73 0 min 0,000 mm 0,0 UV-I 0 W/m 11,2 C 18,6 C 1,6 km/h (1 Bft) 100,00 %
11.06.2017 21:50 18,6 C 25,6 C 63 % 1014,5 hPa 0,0 l/m 2,2 km/h (1 Bft) O-NO 73 0 min 0,000 mm 0,0 UV-I 0 W/m 11,4 C 18,6 C 4,8 km/h (1 Bft) 97,87 %
11.06.2017 21:52 18,4 C 25,6 C 63 % 1014,5 hPa 0,0 l/m 2,6 km/h (1 Bft) O-NO 73 0 min 0,000 mm 0,0 UV-I 0 W/m 11,2 C 18,4 C 3,2 km/h (1 Bft) 100,00 %
11.06.2017 21:54 18,3 C 25,6 C 63 % 1014,5 hPa 0,0 l/m 1,6 km/h (1 Bft) O-NO 73 0 min 0,000 mm 0,0 UV-I 0 W/m 11,1 C 18,3 C 3,2 km/h (1 Bft) 98,00 %
11.06.2017 21:56 18,3 C 26,1 C 64 % 1014,5 hPa 0,0 l/m 0,5 km/h (0 Bft) O-NO 73 0 min 0,000 mm 0,0 UV-I 0 W/m 11,4 C 18,3 C 1,6 km/h (1 Bft) 97,87 %
11.06.2017 21:58 18,2 C 26,1 C 62 % 1014,5 hPa 0,0 l/m 0,1 km/h (0 Bft) O-NO 73 0 min 0,000 mm 0,0 UV-I 0 W/m 10,8 C 18,2 C 1,6 km/h (1 Bft) 97,37 %
11.06.2017 22:00 18,2 C 26,1 C 62 % 1014,6 hPa 0,0 l/m 0,0 km/h (0 Bft) O-NO 73 0 min 0,000 mm 0,0 UV-I 0 W/m 10,8 C 18,2 C 0,0 km/h (0 Bft) 97,87 %
11.06.2017 22:02 18,1 C 25,6 C 61 % 1014,5 hPa 0,0 l/m 0,0 km/h (0 Bft) O-NO 73 0 min 0,025 mm 0,0 UV-I 0 W/m 10,5 C 18,1 C 1,6 km/h (1 Bft) 96,23 %
11.06.2017 22:04 18,2 C 25,6 C 62 % 1014,5 hPa 0,0 l/m 0,0 km/h (0 Bft) O-NO 73 0 min 0,000 mm 0,0 UV-I 0 W/m 10,8 C 18,2 C 0,0 km/h (0 Bft) 100,00 %
11.06.2017 22:06 18,1 C 26,1 C 63 % 1014,5 hPa 0,0 l/m 0,0 km/h (0 Bft) O-NO 73 0 min 0,000 mm 0,0 UV-I 0 W/m 10,9 C 18,1 C 0,0 km/h (0 Bft) 98,00 %
11.06.2017 22:08 18,1 C 25,6 C 64 % 1014,5 hPa 0,0 l/m 0,6 km/h (0 Bft) O-NO 73 0 min 0,000 mm 0,0 UV-I 0 W/m 11,2 C 18,1 C 1,6 km/h (1 Bft) 97,62 %
11.06.2017 22:10 18,0 C 26,1 C 65 % 1014,5 hPa 0,0 l/m 2,0 km/h (1 Bft) O-NO 73 0 min 0,000 mm 0,0 UV-I 0 W/m 11,3 C 18,0 C 3,2 km/h (1 Bft) 100,00 %
11.06.2017 22:12 17,9 C 25,6 C 66 % 1014,5 hPa 0,0 l/m 2,5 km/h (1 Bft) O-NO 73 0 min 0,000 mm 0,0 UV-I 0 W/m 11,5 C 17,9 C 4,8 km/h (1 Bft) 96,15 %
11.06.2017 22:14 17,8 C 25,6 C 65 % 1014,5 hPa 0,0 l/m 2,2 km/h (1 Bft) O-NO 73 0 min 0,000 mm 0,0 UV-I 0 W/m 11,1 C 17,8 C 4,8 km/h (1 Bft) 95,83 %
11.06.2017 22:16 17,8 C 25,0 C 68 % 1014,5 hPa 0,0 l/m 1,0 km/h (0 Bft) O-NO 73 0 min 0,000 mm 0,0 UV-I 0 W/m 11,8 C 17,8 C 1,6 km/h (1 Bft) 94,74 %
11.06.2017 22:18 17,7 C 25,0 C 68 % 1014,6 hPa 0,0 l/m 0,7 km/h (0 Bft) O-NO 73 0 min 0,000 mm 0,0 UV-I 0 W/m 11,7 C 17,7 C 1,6 km/h (1 Bft) 96,43 %
11.06.2017 22:20 17,6 C 25,6 C 66 % 1014,6 hPa 0,0 l/m 0,1 km/h (0 Bft) O-NO 73 0 min 0,000 mm 0,0 UV-I 0 W/m 11,2 C 17,6 C 1,6 km/h (1 Bft) 97,37 %
11.06.2017 22:22 17,5 C 25,6 C 68 % 1014,5 hPa 0,0 l/m 0,7 km/h (0 Bft) O-NO 73 0 min 0,000 mm 0,0 UV-I 0 W/m 11,5 C 17,5 C 3,2 km/h (1 Bft) 96,00 %
11.06.2017 22:24 17,4 C 25,6 C 67 % 1014,5 hPa 0,0 l/m 1,9 km/h (1 Bft) O-NO 73 0 min 0,000 mm 0,0 UV-I 0 W/m 11,2 C 17,4 C 3,2 km/h (1 Bft) 97,87 %
11.06.2017 22:26 17,3 C 25,6 C 67 % 1014,5 hPa 0,0 l/m 2,0 km/h (1 Bft) O-NO 73 0 min 0,000 mm 0,0 UV-I 0 W/m 11,1 C 17,3 C 3,2 km/h (1 Bft) 97,87 %
11.06.2017 22:28 17,3 C 25,0 C 64 % 1014,5 hPa 0,0 l/m 1,9 km/h (1 Bft) O-NO 73 0 min 0,000 mm 0,0 UV-I 0 W/m 10,4 C 17,3 C 3,2 km/h (1 Bft) 96,00 %
11.06.2017 22:30 17,3 C 25,0 C 65 % 1014,5 hPa 0,0 l/m 1,8 km/h (1 Bft) O-NO 73 0 min 0,000 mm 0,0 UV-I 0 W/m 10,7 C 17,3 C 3,2 km/h (1 Bft) 95,74 %
11.06.2017 22:32 17,3 C 25,0 C 66 % 1014,5 hPa 0,0 l/m 2,4 km/h (1 Bft) O-NO 73 0 min 0,000 mm 0,0 UV-I 0 W/m 10,9 C 17,3 C 4,8 km/h (1 Bft) 97,37 %
11.06.2017 22:34 17,3 C 25,0 C 66 % 1014,5 hPa 0,0 l/m 0,6 km/h (0 Bft) O-NO 73 0 min 0,000 mm 0,0 UV-I 0 W/m 10,9 C 17,3 C 1,6 km/h (1 Bft) 96,00 %
11.06.2017 22:36 17,3 C 25,0 C 67 % 1014,5 hPa 0,0 l/m 0,0 km/h (0 Bft) O-NO 73 0 min 0,000 mm 0,0 UV-I 0 W/m 11,1 C 17,3 C 0,0 km/h (0 Bft) 98,00 %
11.06.2017 22:38 17,3 C 25,0 C 69 % 1014,5 hPa 0,0 l/m 0,0 km/h (0 Bft) O-NO 73 0 min 0,000 mm 0,0 UV-I 0 W/m 11,6 C 17,3 C 0,0 km/h (0 Bft) 95,74 %
11.06.2017 22:40 17,2 C 25,0 C 70 % 1014,5 hPa 0,0 l/m 0,0 km/h (0 Bft) O-NO 73 0 min 0,000 mm 0,0 UV-I 0 W/m 11,7 C 17,2 C 1,6 km/h (1 Bft) 97,56 %
11.06.2017 22:42 17,2 C 25,0 C 70 % 1014,5 hPa 0,0 l/m 1,0 km/h (0 Bft) O-NO 73 0 min 0,000 mm 0,0 UV-I 0 W/m 11,7 C 17,2 C 3,2 km/h (1 Bft) 93,62 %
11.06.2017 22:44 17,1 C 25,0 C 70 % 1014,5 hPa 0,0 l/m 0,0 km/h (0 Bft) O-NO 73 0 min 0,000 mm 0,0 UV-I 0 W/m 11,6 C 17,1 C 0,0 km/h (0 Bft) 96,00 %
11.06.2017 22:46 17,1 C 25,0 C 70 % 1014,5 hPa 0,0 l/m 0,6 km/h (0 Bft) O-NO 73 0 min 0,000 mm 0,0 UV-I 0 W/m 11,6 C 17,1 C 3,2 km/h (1 Bft) 96,00 %
11.06.2017 22:48 17,1 C 25,0 C 70 % 1014,4 hPa 0,0 l/m 0,0 km/h (0 Bft) O-NO 73 0 min 0,000 mm 0,0 UV-I 0 W/m 11,6 C 17,1 C 1,6 km/h (1 Bft) 95,74 %
11.06.2017 22:50 17,1 C 25,0 C 70 % 1014,5 hPa 0,0 l/m 0,0 km/h (0 Bft) O-NO 73 0 min 0,000 mm 0,0 UV-I 0 W/m 11,6 C 17,1 C 0,0 km/h (0 Bft) 100,00 %
11.06.2017 22:52 17,0 C 25,0 C 71 % 1014,5 hPa 0,0 l/m 0,0 km/h (0 Bft) O-NO 73 0 min 0,000 mm 0,0 UV-I 0 W/m 11,7 C 17,0 C 1,6 km/h (1 Bft) 98,11 %
11.06.2017 22:54 16,9 C 25,0 C 71 % 1014,4 hPa 0,0 l/m 1,5 km/h (1 Bft) O-NO 73 0 min 0,000 mm 0,0 UV-I 0 W/m 11,6 C 16,9 C 3,2 km/h (1 Bft) 98,00 %
11.06.2017 22:56 16,8 C 25,0 C 70 % 1014,4 hPa 0,0 l/m 2,9 km/h (1 Bft) O-NO 73 0 min 0,000 mm 0,0 UV-I 0 W/m 11,3 C 16,8 C 4,8 km/h (1 Bft) 100,00 %
11.06.2017 22:58 16,7 C 25,0 C 69 % 1014,4 hPa 0,0 l/m 3,1 km/h (1 Bft) O-NO 73 0 min 0,000 mm 0,0 UV-I 0 W/m 11,0 C 16,7 C 4,8 km/h (1 Bft) 96,23 %
11.06.2017 23:00 16,6 C 25,0 C 69 % 1014,3 hPa 0,0 l/m 3,9 km/h (1 Bft) O-NO 73 0 min 0,000 mm 0,0 UV-I 0 W/m 10,9 C 16,6 C 4,8 km/h (1 Bft) 97,87 %
11.06.2017 23:02 16,6 C 25,0 C 70 % 1014,3 hPa 0,0 l/m 3,8 km/h (1 Bft) O-NO 73 0 min 0,026 mm 0,0 UV-I 0 W/m 11,1 C 16,6 C 4,8 km/h (1 Bft) 97,56 %
11.06.2017 23:04 16,6 C 25,0 C 70 % 1014,3 hPa 0,0 l/m 3,0 km/h (1 Bft) O-NO 73 0 min 0,000 mm 0,0 UV-I 0 W/m 11,1 C 16,6 C 4,8 km/h (1 Bft) 98,11 %
11.06.2017 23:06 16,6 C 25,0 C 68 % 1014,3 hPa 0,0 l/m 1,3 km/h (1 Bft) O-NO 73 0 min 0,000 mm 0,0 UV-I 0 W/m 10,7 C 16,6 C 3,2 km/h (1 Bft) 96,00 %
11.06.2017 23:08 16,7 C 25,0 C 66 % 1014,3 hPa 0,0 l/m 1,3 km/h (1 Bft) O-NO 73 0 min 0,000 mm 0,0 UV-I 0 W/m 10,3 C 16,7 C 3,2 km/h (1 Bft) 97,56 %
11.06.2017 23:10 16,8 C 25,0 C 67 % 1014,3 hPa 0,0 l/m 1,1 km/h (1 Bft) O-NO 73 0 min 0,000 mm 0,0 UV-I 0 W/m 10,6 C 16,8 C 1,6 km/h (1 Bft) 98,00 %
11.06.2017 23:12 16,8 C 25,0 C 67 % 1014,2 hPa 0,0 l/m 2,0 km/h (1 Bft) O-NO 73 0 min 0,000 mm 0,0 UV-I 0 W/m 10,6 C 16,8 C 4,8 km/h (1 Bft) 97,87 %
11.06.2017 23:14 16,8 C 25,0 C 67 % 1014,3 hPa 0,0 l/m 2,2 km/h (1 Bft) O-NO 73 0 min 0,000 mm 0,0 UV-I 0 W/m 10,6 C 16,8 C 3,2 km/h (1 Bft) 97,87 %
11.06.2017 23:16 16,8 C 25,0 C 66 % 1014,2 hPa 0,0 l/m 1,8 km/h (1 Bft) O-NO 73 0 min 0,000 mm 0,0 UV-I 0 W/m 10,4 C 16,8 C 3,2 km/h (1 Bft) 100,00 %
11.06.2017 23:18 16,8 C 25,0 C 65 % 1014,2 hPa 0,0 l/m 3,5 km/h (1 Bft) O-NO 73 0 min 0,000 mm 0,0 UV-I 0 W/m 10,2 C 16,8 C 4,8 km/h (1 Bft) 95,74 %
11.06.2017 23:20 16,8 C 25,0 C 63 % 1014,2 hPa 0,0 l/m 3,3 km/h (1 Bft) O-NO 73 0 min 0,000 mm 0,0 UV-I 0 W/m 9,7 C 16,8 C 4,8 km/h (1 Bft) 100,00 %
11.06.2017 23:22 16,8 C 25,0 C 64 % 1014,2 hPa 0,0 l/m 3,5 km/h (1 Bft) O-NO 73 0 min 0,000 mm 0,0 UV-I 0 W/m 10,0 C 16,8 C 4,8 km/h (1 Bft) 100,00 %
11.06.2017 23:24 16,8 C 25,0 C 63 % 1014,2 hPa 0,0 l/m 2,6 km/h (1 Bft) O-NO 73 0 min 0,000 mm 0,0 UV-I 0 W/m 9,7 C 16,8 C 4,8 km/h (1 Bft) 100,00 %
11.06.2017 23:26 16,8 C 25,0 C 64 % 1014,2 hPa 0,0 l/m 3,2 km/h (1 Bft) O-NO 73 0 min 0,000 mm 0,0 UV-I 0 W/m 10,0 C 16,8 C 4,8 km/h (1 Bft) 100,00 %
11.06.2017 23:28 16,8 C 25,0 C 65 % 1014,2 hPa 0,0 l/m 3,0 km/h (1 Bft) O-NO 73 0 min 0,000 mm 0,0 UV-I 0 W/m 10,2 C 16,8 C 4,8 km/h (1 Bft) 100,00 %
11.06.2017 23:30 16,8 C 25,0 C 65 % 1014,3 hPa 0,0 l/m 2,0 km/h (1 Bft) O-NO 73 0 min 0,000 mm 0,0 UV-I 0 W/m 10,2 C 16,8 C 4,8 km/h (1 Bft) 95,74 %
11.06.2017 23:32 16,7 C 25,0 C 64 % 1014,3 hPa 0,0 l/m 0,1 km/h (0 Bft) O-NO 73 0 min 0,000 mm 0,0 UV-I 0 W/m 9,9 C 16,7 C 1,6 km/h (1 Bft) 95,83 %
11.06.2017 23:34 16,7 C 25,0 C 66 % 1014,3 hPa 0,0 l/m 0,0 km/h (0 Bft) O-NO 73 0 min 0,000 mm 0,0 UV-I 0 W/m 10,3 C 16,7 C 0,0 km/h (0 Bft) 97,87 %
11.06.2017 23:36 16,6 C 25,0 C 66 % 1014,2 hPa 0,0 l/m 0,0 km/h (0 Bft) O-NO 73 0 min 0,000 mm 0,0 UV-I 0 W/m 10,2 C 16,6 C 0,0 km/h (0 Bft) 92,68 %
11.06.2017 23:38 16,5 C 25,0 C 71 % 1014,2 hPa 0,0 l/m 0,0 km/h (0 Bft) O-NO 73 0 min 0,000 mm 0,0 UV-I 0 W/m 11,2 C 16,5 C 0,0 km/h (0 Bft) 98,00 %
11.06.2017 23:40 16,3 C 25,0 C 72 % 1014,3 hPa 0,0 l/m 0,0 km/h (0 Bft) O-NO 73 0 min 0,000 mm 0,0 UV-I 0 W/m 11,2 C 16,3 C 0,0 km/h (0 Bft) 96,00 %
11.06.2017 23:42 16,2 C 25,0 C 72 % 1014,2 hPa 0,0 l/m 0,0 km/h (0 Bft) O-NO 73 0 min 0,000 mm 0,0 UV-I 0 W/m 11,1 C 16,2 C 0,0 km/h (0 Bft) 97,37 %
11.06.2017 23:44 16,1 C 25,0 C 73 % 1014,2 hPa 0,0 l/m 0,0 km/h (0 Bft) O-NO 73 0 min 0,000 mm 0,0 UV-I 0 W/m 11,3 C 16,1 C 0,0 km/h (0 Bft) 94,00 %
11.06.2017 23:46 15,9 C 25,0 C 73 % 1014,2 hPa 0,0 l/m 0,0 km/h (0 Bft) O-NO 73 0 min 0,000 mm 0,0 UV-I 0 W/m 11,1 C 15,9 C 0,0 km/h (0 Bft) 97,87 %
11.06.2017 23:48 15,8 C 25,0 C 73 % 1014,2 hPa 0,0 l/m 1,3 km/h (1 Bft) O-NO 73 0 min 0,000 mm 0,0 UV-I 0 W/m 11,0 C 15,8 C 4,8 km/h (1 Bft) 95,74 %
11.06.2017 23:50 15,8 C 25,0 C 72 % 1014,2 hPa 0,0 l/m 3,0 km/h (1 Bft) O-NO 73 0 min 0,000 mm 0,0 UV-I 0 W/m 10,8 C 15,8 C 4,8 km/h (1 Bft) 95,12 %
11.06.2017 23:52 15,7 C 25,0 C 72 % 1014,2 hPa 0,0 l/m 1,2 km/h (1 Bft) O-NO 73 0 min 0,000 mm 0,0 UV-I 0 W/m 10,7 C 15,7 C 3,2 km/h (1 Bft) 95,74 %
11.06.2017 23:54 15,7 C 25,0 C 74 % 1014,1 hPa 0,0 l/m 1,1 km/h (1 Bft) O-NO 73 0 min 0,000 mm 0,0 UV-I 0 W/m 11,1 C 15,7 C 1,6 km/h (1 Bft) 95,74 %
11.06.2017 23:56 15,7 C 25,0 C 74 % 1014,2 hPa 0,0 l/m 0,6 km/h (0 Bft) O-NO 73 0 min 0,000 mm 0,0 UV-I 0 W/m 11,1 C 15,7 C 1,6 km/h (1 Bft) 98,11 %
11.06.2017 23:58 15,6 C 25,0 C 74 % 1014,1 hPa 0,0 l/m 0,0 km/h (0 Bft) O-NO 73 0 min 0,000 mm 0,0 UV-I 0 W/m 11,0 C 15,6 C 1,6 km/h (1 Bft) 95,74 %
_ Min-Zeit 05:20 07:10 16:46 23:54 - 06:32 - - - - - - 18:52 04:28 06:34 05:28
Minimum _ 12,1 C 22,8 C 33 % 1014,1 hPa - 0,0 km/h (0 Bft) - - - - - - 8,0 C 11,9 C 0,0 km/h (0 Bft) 89,36 %
_ Max-Zeit 16:54 21:24 05:22 07:32 00:00 18:02 - - 17:19 13:00 12:50 13:20 10:34 17:04 17:16 00:10
Maximum _ 26,1 C 26,1 C 87 % 1021,1 hPa 0,0 l/m 10,5 km/h
O-NO (2 Bft)
- - 3 min 0,610 mm 7,3 UV-I 932 W/m 14,4 C 26,1 C 17,7 km/h
O-NO (3 Bft)
100,00 %
Durchschnitt _ 19,4 C 24,3 C 60 % 1018,5 hPa #0,0 l/m 3,7 km/h (1 Bft) O-NO - #14:58 h #5,766 mm 4,0 UV-I 503 W/m 10,7 C 19,4 C 6,6 km/h (2 Bft) 97,34 %